<?xml version="1.0" encoding="utf-8"?>
<gpx xmlns:xsi="http://www.w3.org/2001/XMLSchema-instance" xmlns:xsd="http://www.w3.org/2001/XMLSchema" version="1.1" creator="Shapelink.com" xmlns="http://www.topografix.com/GPX/1/1" xmlns:gpxtpx="http://www.garmin.com/xmlschemas/TrackPointExtension/v1">
  <metadata>
    <name>Gåing 11.22 km, 2013-10-27</name>
    <desc></desc>
    <author><name>Alexander Engvall</name></author> 
    <time>2013-10-27T08:47:12Z</time>
  </metadata>
  <trk>
    <name>Gåing 11.22 km, 2013-10-27</name>
    <trkseg>
      <trkpt lat="59.458982" lon="17.8042949">
        <ele>45</ele>
        <time>2013-10-27T08:47:12Z</time>
      </trkpt>
      <trkpt lat="59.45901" lon="17.8043664">
        <ele>44.6</ele>
        <time>2013-10-27T08:47:16Z</time>
      </trkpt>
      <trkpt lat="59.4590533" lon="17.8044035">
        <ele>44.6</ele>
        <time>2013-10-27T08:47:21Z</time>
      </trkpt>
      <trkpt lat="59.4590818" lon="17.8044423">
        <ele>44.4</ele>
        <time>2013-10-27T08:47:24Z</time>
      </trkpt>
      <trkpt lat="59.4590973" lon="17.8044303">
        <ele>44.2</ele>
        <time>2013-10-27T08:47:27Z</time>
      </trkpt>
      <trkpt lat="59.4591215" lon="17.8043398">
        <ele>44</ele>
        <time>2013-10-27T08:47:31Z</time>
      </trkpt>
      <trkpt lat="59.4591209" lon="17.8043164">
        <ele>44</ele>
        <time>2013-10-27T08:47:32Z</time>
      </trkpt>
      <trkpt lat="59.4591297" lon="17.8042839">
        <ele>43.8</ele>
        <time>2013-10-27T08:47:34Z</time>
      </trkpt>
      <trkpt lat="59.4591867" lon="17.8042718">
        <ele>43.8</ele>
        <time>2013-10-27T08:47:37Z</time>
      </trkpt>
      <trkpt lat="59.4592602" lon="17.8041825">
        <ele>43.6</ele>
        <time>2013-10-27T08:47:43Z</time>
      </trkpt>
      <trkpt lat="59.4592927" lon="17.8041531">
        <ele>43.4</ele>
        <time>2013-10-27T08:47:45Z</time>
      </trkpt>
      <trkpt lat="59.4593151" lon="17.8041484">
        <ele>43.4</ele>
        <time>2013-10-27T08:47:47Z</time>
      </trkpt>
      <trkpt lat="59.4593339" lon="17.8041616">
        <ele>43.4</ele>
        <time>2013-10-27T08:47:48Z</time>
      </trkpt>
      <trkpt lat="59.4593807" lon="17.8041553">
        <ele>43.2</ele>
        <time>2013-10-27T08:47:51Z</time>
      </trkpt>
      <trkpt lat="59.4593938" lon="17.8041458">
        <ele>43.2</ele>
        <time>2013-10-27T08:47:52Z</time>
      </trkpt>
      <trkpt lat="59.4594586" lon="17.8040611">
        <ele>42.8</ele>
        <time>2013-10-27T08:47:57Z</time>
      </trkpt>
      <trkpt lat="59.4595197" lon="17.8040356">
        <ele>42.4</ele>
        <time>2013-10-27T08:48:01Z</time>
      </trkpt>
      <trkpt lat="59.4595394" lon="17.8040372">
        <ele>42.4</ele>
        <time>2013-10-27T08:48:02Z</time>
      </trkpt>
      <trkpt lat="59.4595922" lon="17.8039624">
        <ele>42</ele>
        <time>2013-10-27T08:48:06Z</time>
      </trkpt>
      <trkpt lat="59.4596511" lon="17.8038662">
        <ele>41.4</ele>
        <time>2013-10-27T08:48:11Z</time>
      </trkpt>
      <trkpt lat="59.4596713" lon="17.8038487">
        <ele>41.4</ele>
        <time>2013-10-27T08:48:13Z</time>
      </trkpt>
      <trkpt lat="59.4596938" lon="17.8037821">
        <ele>41.2</ele>
        <time>2013-10-27T08:48:15Z</time>
      </trkpt>
      <trkpt lat="59.459713" lon="17.8037771">
        <ele>41.2</ele>
        <time>2013-10-27T08:48:16Z</time>
      </trkpt>
      <trkpt lat="59.4597652" lon="17.8036197">
        <ele>40.8</ele>
        <time>2013-10-27T08:48:21Z</time>
      </trkpt>
      <trkpt lat="59.4597723" lon="17.8035912">
        <ele>40.8</ele>
        <time>2013-10-27T08:48:22Z</time>
      </trkpt>
      <trkpt lat="59.4598093" lon="17.8034947">
        <ele>40.8</ele>
        <time>2013-10-27T08:48:26Z</time>
      </trkpt>
      <trkpt lat="59.4598588" lon="17.8034036">
        <ele>40.6</ele>
        <time>2013-10-27T08:48:30Z</time>
      </trkpt>
      <trkpt lat="59.4598717" lon="17.803386">
        <ele>40.6</ele>
        <time>2013-10-27T08:48:31Z</time>
      </trkpt>
      <trkpt lat="59.4599172" lon="17.8033447">
        <ele>40.4</ele>
        <time>2013-10-27T08:48:35Z</time>
      </trkpt>
      <trkpt lat="59.4599597" lon="17.8033351">
        <ele>40.4</ele>
        <time>2013-10-27T08:48:37Z</time>
      </trkpt>
      <trkpt lat="59.4600574" lon="17.8032989">
        <ele>40.2</ele>
        <time>2013-10-27T08:48:44Z</time>
      </trkpt>
      <trkpt lat="59.4602233" lon="17.8031996">
        <ele>40</ele>
        <time>2013-10-27T08:48:52Z</time>
      </trkpt>
      <trkpt lat="59.4603508" lon="17.8030592">
        <ele>40</ele>
        <time>2013-10-27T08:48:59Z</time>
      </trkpt>
      <trkpt lat="59.4604775" lon="17.8029533">
        <ele>40</ele>
        <time>2013-10-27T08:49:06Z</time>
      </trkpt>
      <trkpt lat="59.4605234" lon="17.8028852">
        <ele>39.6</ele>
        <time>2013-10-27T08:49:11Z</time>
      </trkpt>
      <trkpt lat="59.4605342" lon="17.8028748">
        <ele>39.6</ele>
        <time>2013-10-27T08:49:12Z</time>
      </trkpt>
      <trkpt lat="59.4605971" lon="17.8028173">
        <ele>39.2</ele>
        <time>2013-10-27T08:49:16Z</time>
      </trkpt>
      <trkpt lat="59.4606337" lon="17.802783">
        <ele>39</ele>
        <time>2013-10-27T08:49:18Z</time>
      </trkpt>
      <trkpt lat="59.4606482" lon="17.8027338">
        <ele>39</ele>
        <time>2013-10-27T08:49:20Z</time>
      </trkpt>
      <trkpt lat="59.4606603" lon="17.8026863">
        <ele>39</ele>
        <time>2013-10-27T08:49:22Z</time>
      </trkpt>
      <trkpt lat="59.4606965" lon="17.8026409">
        <ele>38.8</ele>
        <time>2013-10-27T08:49:25Z</time>
      </trkpt>
      <trkpt lat="59.4607398" lon="17.8026127">
        <ele>38.4</ele>
        <time>2013-10-27T08:49:28Z</time>
      </trkpt>
      <trkpt lat="59.460826" lon="17.8025465">
        <ele>37.8</ele>
        <time>2013-10-27T08:49:33Z</time>
      </trkpt>
      <trkpt lat="59.4608975" lon="17.8025058">
        <ele>37</ele>
        <time>2013-10-27T08:49:38Z</time>
      </trkpt>
      <trkpt lat="59.4609126" lon="17.8024946">
        <ele>37</ele>
        <time>2013-10-27T08:49:39Z</time>
      </trkpt>
      <trkpt lat="59.4609627" lon="17.8024469">
        <ele>36.4</ele>
        <time>2013-10-27T08:49:43Z</time>
      </trkpt>
      <trkpt lat="59.4609912" lon="17.8024346">
        <ele>36</ele>
        <time>2013-10-27T08:49:46Z</time>
      </trkpt>
      <trkpt lat="59.4611012" lon="17.802398">
        <ele>35.4</ele>
        <time>2013-10-27T08:49:52Z</time>
      </trkpt>
      <trkpt lat="59.4612115" lon="17.8022899">
        <ele>35</ele>
        <time>2013-10-27T08:49:58Z</time>
      </trkpt>
      <trkpt lat="59.4612429" lon="17.8022108">
        <ele>34.8</ele>
        <time>2013-10-27T08:50:01Z</time>
      </trkpt>
      <trkpt lat="59.4612446" lon="17.8021474">
        <ele>34.8</ele>
        <time>2013-10-27T08:50:03Z</time>
      </trkpt>
      <trkpt lat="59.4612385" lon="17.8020979">
        <ele>34.6</ele>
        <time>2013-10-27T08:50:05Z</time>
      </trkpt>
      <trkpt lat="59.4612337" lon="17.8020675">
        <ele>34.4</ele>
        <time>2013-10-27T08:50:06Z</time>
      </trkpt>
      <trkpt lat="59.4612239" lon="17.8019815">
        <ele>34.2</ele>
        <time>2013-10-27T08:50:09Z</time>
      </trkpt>
      <trkpt lat="59.4612148" lon="17.8018433">
        <ele>33.8</ele>
        <time>2013-10-27T08:50:14Z</time>
      </trkpt>
      <trkpt lat="59.4612108" lon="17.8018206">
        <ele>33.6</ele>
        <time>2013-10-27T08:50:15Z</time>
      </trkpt>
      <trkpt lat="59.4611878" lon="17.8016886">
        <ele>33.2</ele>
        <time>2013-10-27T08:50:20Z</time>
      </trkpt>
      <trkpt lat="59.4611906" lon="17.8016502">
        <ele>33.2</ele>
        <time>2013-10-27T08:50:21Z</time>
      </trkpt>
      <trkpt lat="59.461206" lon="17.8015527">
        <ele>32.8</ele>
        <time>2013-10-27T08:50:24Z</time>
      </trkpt>
      <trkpt lat="59.4611903" lon="17.8014024">
        <ele>32.4</ele>
        <time>2013-10-27T08:50:29Z</time>
      </trkpt>
      <trkpt lat="59.4611863" lon="17.8013446">
        <ele>32.2</ele>
        <time>2013-10-27T08:50:31Z</time>
      </trkpt>
      <trkpt lat="59.4611751" lon="17.8012474">
        <ele>32</ele>
        <time>2013-10-27T08:50:34Z</time>
      </trkpt>
      <trkpt lat="59.4611624" lon="17.8010434">
        <ele>31.4</ele>
        <time>2013-10-27T08:50:40Z</time>
      </trkpt>
      <trkpt lat="59.4611799" lon="17.8009173">
        <ele>31</ele>
        <time>2013-10-27T08:50:44Z</time>
      </trkpt>
      <trkpt lat="59.4612227" lon="17.8008609">
        <ele>30.6</ele>
        <time>2013-10-27T08:50:47Z</time>
      </trkpt>
      <trkpt lat="59.461255" lon="17.8008479">
        <ele>30.4</ele>
        <time>2013-10-27T08:50:49Z</time>
      </trkpt>
      <trkpt lat="59.4613597" lon="17.8008561">
        <ele>29.8</ele>
        <time>2013-10-27T08:50:55Z</time>
      </trkpt>
      <trkpt lat="59.461463" lon="17.800867">
        <ele>29.2</ele>
        <time>2013-10-27T08:51:01Z</time>
      </trkpt>
      <trkpt lat="59.46158" lon="17.8008695">
        <ele>28.8</ele>
        <time>2013-10-27T08:51:07Z</time>
      </trkpt>
      <trkpt lat="59.4616876" lon="17.8008853">
        <ele>28.2</ele>
        <time>2013-10-27T08:51:14Z</time>
      </trkpt>
      <trkpt lat="59.4618087" lon="17.8009079">
        <ele>27.6</ele>
        <time>2013-10-27T08:51:21Z</time>
      </trkpt>
      <trkpt lat="59.461928" lon="17.8009327">
        <ele>27</ele>
        <time>2013-10-27T08:51:28Z</time>
      </trkpt>
      <trkpt lat="59.4620604" lon="17.8009629">
        <ele>26.2</ele>
        <time>2013-10-27T08:51:36Z</time>
      </trkpt>
      <trkpt lat="59.4621889" lon="17.8009959">
        <ele>25.6</ele>
        <time>2013-10-27T08:51:43Z</time>
      </trkpt>
      <trkpt lat="59.4623077" lon="17.8009994">
        <ele>25</ele>
        <time>2013-10-27T08:51:50Z</time>
      </trkpt>
      <trkpt lat="59.4624173" lon="17.8010156">
        <ele>24.6</ele>
        <time>2013-10-27T08:51:57Z</time>
      </trkpt>
      <trkpt lat="59.4625395" lon="17.8010459">
        <ele>23.8</ele>
        <time>2013-10-27T08:52:05Z</time>
      </trkpt>
      <trkpt lat="59.4626631" lon="17.8010503">
        <ele>23</ele>
        <time>2013-10-27T08:52:13Z</time>
      </trkpt>
      <trkpt lat="59.4627738" lon="17.8010555">
        <ele>22.4</ele>
        <time>2013-10-27T08:52:20Z</time>
      </trkpt>
      <trkpt lat="59.4628666" lon="17.8010419">
        <ele>22.2</ele>
        <time>2013-10-27T08:52:25Z</time>
      </trkpt>
      <trkpt lat="59.4629706" lon="17.8010249">
        <ele>21.6</ele>
        <time>2013-10-27T08:52:32Z</time>
      </trkpt>
      <trkpt lat="59.4630981" lon="17.8010375">
        <ele>21</ele>
        <time>2013-10-27T08:52:40Z</time>
      </trkpt>
      <trkpt lat="59.4631807" lon="17.8010075">
        <ele>20.8</ele>
        <time>2013-10-27T08:52:45Z</time>
      </trkpt>
      <trkpt lat="59.463194" lon="17.8009658">
        <ele>20.4</ele>
        <time>2013-10-27T08:52:49Z</time>
      </trkpt>
      <trkpt lat="59.4631876" lon="17.800869">
        <ele>20</ele>
        <time>2013-10-27T08:52:53Z</time>
      </trkpt>
      <trkpt lat="59.4631955" lon="17.8008464">
        <ele>20</ele>
        <time>2013-10-27T08:52:54Z</time>
      </trkpt>
      <trkpt lat="59.4632054" lon="17.8008035">
        <ele>19.8</ele>
        <time>2013-10-27T08:52:56Z</time>
      </trkpt>
      <trkpt lat="59.4632147" lon="17.8007287">
        <ele>19.6</ele>
        <time>2013-10-27T08:52:59Z</time>
      </trkpt>
      <trkpt lat="59.4632222" lon="17.8005859">
        <ele>19.4</ele>
        <time>2013-10-27T08:53:04Z</time>
      </trkpt>
      <trkpt lat="59.4632193" lon="17.800515">
        <ele>19.4</ele>
        <time>2013-10-27T08:53:06Z</time>
      </trkpt>
      <trkpt lat="59.4631908" lon="17.8004046">
        <ele>19</ele>
        <time>2013-10-27T08:53:10Z</time>
      </trkpt>
      <trkpt lat="59.4631717" lon="17.8003031">
        <ele>18.8</ele>
        <time>2013-10-27T08:53:14Z</time>
      </trkpt>
      <trkpt lat="59.4631844" lon="17.800268">
        <ele>18.8</ele>
        <time>2013-10-27T08:53:16Z</time>
      </trkpt>
      <trkpt lat="59.4632" lon="17.8001337">
        <ele>18.4</ele>
        <time>2013-10-27T08:53:20Z</time>
      </trkpt>
      <trkpt lat="59.4631969" lon="17.8001018">
        <ele>18.2</ele>
        <time>2013-10-27T08:53:21Z</time>
      </trkpt>
      <trkpt lat="59.4631899" lon="17.8000718">
        <ele>18.2</ele>
        <time>2013-10-27T08:53:22Z</time>
      </trkpt>
      <trkpt lat="59.4631309" lon="17.799982">
        <ele>17.4</ele>
        <time>2013-10-27T08:53:28Z</time>
      </trkpt>
      <trkpt lat="59.4630567" lon="17.7999178">
        <ele>16.4</ele>
        <time>2013-10-27T08:53:33Z</time>
      </trkpt>
      <trkpt lat="59.4629654" lon="17.7998543">
        <ele>15.6</ele>
        <time>2013-10-27T08:53:41Z</time>
      </trkpt>
      <trkpt lat="59.4629401" lon="17.7998361">
        <ele>15.2</ele>
        <time>2013-10-27T08:53:46Z</time>
      </trkpt>
      <trkpt lat="59.462857" lon="17.7997857">
        <ele>14.6</ele>
        <time>2013-10-27T08:53:52Z</time>
      </trkpt>
      <trkpt lat="59.4628272" lon="17.7997644">
        <ele>14.4</ele>
        <time>2013-10-27T08:53:55Z</time>
      </trkpt>
      <trkpt lat="59.4627943" lon="17.7997421">
        <ele>14.2</ele>
        <time>2013-10-27T08:53:57Z</time>
      </trkpt>
      <trkpt lat="59.4626926" lon="17.7996675">
        <ele>13.4</ele>
        <time>2013-10-27T08:54:03Z</time>
      </trkpt>
      <trkpt lat="59.4626122" lon="17.7996217">
        <ele>12.6</ele>
        <time>2013-10-27T08:54:09Z</time>
      </trkpt>
      <trkpt lat="59.4625518" lon="17.7995843">
        <ele>12</ele>
        <time>2013-10-27T08:54:13Z</time>
      </trkpt>
      <trkpt lat="59.4625284" lon="17.7995707">
        <ele>11.6</ele>
        <time>2013-10-27T08:54:15Z</time>
      </trkpt>
      <trkpt lat="59.4624584" lon="17.7995539">
        <ele>11</ele>
        <time>2013-10-27T08:54:19Z</time>
      </trkpt>
      <trkpt lat="59.4624239" lon="17.7995614">
        <ele>10.6</ele>
        <time>2013-10-27T08:54:21Z</time>
      </trkpt>
      <trkpt lat="59.4623498" lon="17.7995626">
        <ele>10.2</ele>
        <time>2013-10-27T08:54:25Z</time>
      </trkpt>
      <trkpt lat="59.4623118" lon="17.7995563">
        <ele>9.8</ele>
        <time>2013-10-27T08:54:27Z</time>
      </trkpt>
      <trkpt lat="59.4622563" lon="17.7995462">
        <ele>9.4</ele>
        <time>2013-10-27T08:54:30Z</time>
      </trkpt>
      <trkpt lat="59.4622201" lon="17.7995243">
        <ele>9.2</ele>
        <time>2013-10-27T08:54:32Z</time>
      </trkpt>
      <trkpt lat="59.4621615" lon="17.7994798">
        <ele>8.8</ele>
        <time>2013-10-27T08:54:36Z</time>
      </trkpt>
      <trkpt lat="59.4621316" lon="17.7994447">
        <ele>8.6</ele>
        <time>2013-10-27T08:54:39Z</time>
      </trkpt>
      <trkpt lat="59.4620436" lon="17.7994134">
        <ele>8.2</ele>
        <time>2013-10-27T08:54:44Z</time>
      </trkpt>
      <trkpt lat="59.4620228" lon="17.7994129">
        <ele>8.2</ele>
        <time>2013-10-27T08:54:45Z</time>
      </trkpt>
      <trkpt lat="59.4619744" lon="17.7993912">
        <ele>8</ele>
        <time>2013-10-27T08:54:48Z</time>
      </trkpt>
      <trkpt lat="59.461919" lon="17.7993739">
        <ele>7.8</ele>
        <time>2013-10-27T08:54:51Z</time>
      </trkpt>
      <trkpt lat="59.461829" lon="17.7993777">
        <ele>7.4</ele>
        <time>2013-10-27T08:54:57Z</time>
      </trkpt>
      <trkpt lat="59.4617368" lon="17.7993893">
        <ele>7</ele>
        <time>2013-10-27T08:55:04Z</time>
      </trkpt>
      <trkpt lat="59.4616146" lon="17.7994021">
        <ele>6.4</ele>
        <time>2013-10-27T08:55:11Z</time>
      </trkpt>
      <trkpt lat="59.4614748" lon="17.7994041">
        <ele>5.8</ele>
        <time>2013-10-27T08:55:19Z</time>
      </trkpt>
      <trkpt lat="59.4613855" lon="17.7993932">
        <ele>5.4</ele>
        <time>2013-10-27T08:55:25Z</time>
      </trkpt>
      <trkpt lat="59.4612876" lon="17.7993771">
        <ele>4.8</ele>
        <time>2013-10-27T08:55:31Z</time>
      </trkpt>
      <trkpt lat="59.4612419" lon="17.7993585">
        <ele>4.6</ele>
        <time>2013-10-27T08:55:34Z</time>
      </trkpt>
      <trkpt lat="59.4611982" lon="17.7993531">
        <ele>4.4</ele>
        <time>2013-10-27T08:55:37Z</time>
      </trkpt>
      <trkpt lat="59.4611048" lon="17.7993411">
        <ele>3.8</ele>
        <time>2013-10-27T08:55:44Z</time>
      </trkpt>
      <trkpt lat="59.4610246" lon="17.7993448">
        <ele>3.2</ele>
        <time>2013-10-27T08:55:50Z</time>
      </trkpt>
      <trkpt lat="59.4609245" lon="17.7993748">
        <ele>2.8</ele>
        <time>2013-10-27T08:55:56Z</time>
      </trkpt>
      <trkpt lat="59.4608934" lon="17.7993881">
        <ele>2.6</ele>
        <time>2013-10-27T08:55:58Z</time>
      </trkpt>
      <trkpt lat="59.4608399" lon="17.7993885">
        <ele>2.6</ele>
        <time>2013-10-27T08:56:01Z</time>
      </trkpt>
      <trkpt lat="59.4607336" lon="17.7994757">
        <ele>2.4</ele>
        <time>2013-10-27T08:56:07Z</time>
      </trkpt>
      <trkpt lat="59.4606609" lon="17.7995048">
        <ele>2.2</ele>
        <time>2013-10-27T08:56:11Z</time>
      </trkpt>
      <trkpt lat="59.4605407" lon="17.7996338">
        <ele>2.6</ele>
        <time>2013-10-27T08:56:18Z</time>
      </trkpt>
      <trkpt lat="59.4604253" lon="17.7997527">
        <ele>2.4</ele>
        <time>2013-10-27T08:56:27Z</time>
      </trkpt>
      <trkpt lat="59.4603342" lon="17.7998414">
        <ele>2.4</ele>
        <time>2013-10-27T08:56:34Z</time>
      </trkpt>
      <trkpt lat="59.4602411" lon="17.7999127">
        <ele>2.2</ele>
        <time>2013-10-27T08:56:42Z</time>
      </trkpt>
      <trkpt lat="59.4601962" lon="17.7999361">
        <ele>2</ele>
        <time>2013-10-27T08:56:45Z</time>
      </trkpt>
      <trkpt lat="59.4601221" lon="17.7999869">
        <ele>1.8</ele>
        <time>2013-10-27T08:56:50Z</time>
      </trkpt>
      <trkpt lat="59.4600647" lon="17.8000267">
        <ele>1.6</ele>
        <time>2013-10-27T08:56:55Z</time>
      </trkpt>
      <trkpt lat="59.4600254" lon="17.8000528">
        <ele>1.4</ele>
        <time>2013-10-27T08:56:58Z</time>
      </trkpt>
      <trkpt lat="59.4600004" lon="17.8000748">
        <ele>1.4</ele>
        <time>2013-10-27T08:57:00Z</time>
      </trkpt>
      <trkpt lat="59.4599758" lon="17.8001041">
        <ele>1.2</ele>
        <time>2013-10-27T08:57:02Z</time>
      </trkpt>
      <trkpt lat="59.4599146" lon="17.8001552">
        <ele>1</ele>
        <time>2013-10-27T08:57:06Z</time>
      </trkpt>
      <trkpt lat="59.4598178" lon="17.8002531">
        <ele>0.6</ele>
        <time>2013-10-27T08:57:11Z</time>
      </trkpt>
      <trkpt lat="59.4597828" lon="17.8003061">
        <ele>0.6</ele>
        <time>2013-10-27T08:57:13Z</time>
      </trkpt>
      <trkpt lat="59.459704" lon="17.8004037">
        <ele>0.2</ele>
        <time>2013-10-27T08:57:18Z</time>
      </trkpt>
      <trkpt lat="59.4596171" lon="17.8004905">
        <ele>0.2</ele>
        <time>2013-10-27T08:57:23Z</time>
      </trkpt>
      <trkpt lat="59.4595889" lon="17.8005074">
        <ele>0</ele>
        <time>2013-10-27T08:57:25Z</time>
      </trkpt>
      <trkpt lat="59.4594836" lon="17.8005239">
        <ele>0</ele>
        <time>2013-10-27T08:57:32Z</time>
      </trkpt>
      <trkpt lat="59.4594199" lon="17.8005423">
        <ele>0</ele>
        <time>2013-10-27T08:57:36Z</time>
      </trkpt>
      <trkpt lat="59.4593877" lon="17.8005637">
        <ele>0.2</ele>
        <time>2013-10-27T08:57:38Z</time>
      </trkpt>
      <trkpt lat="59.4593505" lon="17.8005578">
        <ele>0.4</ele>
        <time>2013-10-27T08:57:40Z</time>
      </trkpt>
      <trkpt lat="59.459276" lon="17.8005702">
        <ele>0.8</ele>
        <time>2013-10-27T08:57:44Z</time>
      </trkpt>
      <trkpt lat="59.4592016" lon="17.8005784">
        <ele>1.4</ele>
        <time>2013-10-27T08:57:48Z</time>
      </trkpt>
      <trkpt lat="59.4590931" lon="17.8005904">
        <ele>2.2</ele>
        <time>2013-10-27T08:57:54Z</time>
      </trkpt>
      <trkpt lat="59.4589808" lon="17.8006079">
        <ele>2.8</ele>
        <time>2013-10-27T08:58:01Z</time>
      </trkpt>
      <trkpt lat="59.4589443" lon="17.8006236">
        <ele>3</ele>
        <time>2013-10-27T08:58:03Z</time>
      </trkpt>
      <trkpt lat="59.4588828" lon="17.8006407">
        <ele>3.2</ele>
        <time>2013-10-27T08:58:07Z</time>
      </trkpt>
      <trkpt lat="59.4587845" lon="17.8006314">
        <ele>3.4</ele>
        <time>2013-10-27T08:58:13Z</time>
      </trkpt>
      <trkpt lat="59.458697" lon="17.8006498">
        <ele>4.2</ele>
        <time>2013-10-27T08:58:18Z</time>
      </trkpt>
      <trkpt lat="59.4585488" lon="17.8006546">
        <ele>5.4</ele>
        <time>2013-10-27T08:58:28Z</time>
      </trkpt>
      <trkpt lat="59.4584857" lon="17.8006649">
        <ele>5.8</ele>
        <time>2013-10-27T08:58:33Z</time>
      </trkpt>
      <trkpt lat="59.4584731" lon="17.8006651">
        <ele>6</ele>
        <time>2013-10-27T08:58:34Z</time>
      </trkpt>
      <trkpt lat="59.458399" lon="17.8006955">
        <ele>6.4</ele>
        <time>2013-10-27T08:58:39Z</time>
      </trkpt>
      <trkpt lat="59.4583133" lon="17.8007514">
        <ele>6.8</ele>
        <time>2013-10-27T08:58:44Z</time>
      </trkpt>
      <trkpt lat="59.4582973" lon="17.8007565">
        <ele>6.8</ele>
        <time>2013-10-27T08:58:45Z</time>
      </trkpt>
      <trkpt lat="59.4582423" lon="17.8007732">
        <ele>6.8</ele>
        <time>2013-10-27T08:58:49Z</time>
      </trkpt>
      <trkpt lat="59.4581669" lon="17.8007824">
        <ele>7.2</ele>
        <time>2013-10-27T08:58:54Z</time>
      </trkpt>
      <trkpt lat="59.4580086" lon="17.8008385">
        <ele>7.6</ele>
        <time>2013-10-27T08:59:05Z</time>
      </trkpt>
      <trkpt lat="59.457923" lon="17.8008772">
        <ele>7.8</ele>
        <time>2013-10-27T08:59:11Z</time>
      </trkpt>
      <trkpt lat="59.4578978" lon="17.8008964">
        <ele>7.8</ele>
        <time>2013-10-27T08:59:13Z</time>
      </trkpt>
      <trkpt lat="59.4578704" lon="17.8009146">
        <ele>7.8</ele>
        <time>2013-10-27T08:59:15Z</time>
      </trkpt>
      <trkpt lat="59.4577808" lon="17.8009405">
        <ele>7.8</ele>
        <time>2013-10-27T08:59:21Z</time>
      </trkpt>
      <trkpt lat="59.4576458" lon="17.8009664">
        <ele>7.8</ele>
        <time>2013-10-27T08:59:30Z</time>
      </trkpt>
      <trkpt lat="59.4575477" lon="17.800949">
        <ele>7.8</ele>
        <time>2013-10-27T08:59:37Z</time>
      </trkpt>
      <trkpt lat="59.4574485" lon="17.8009317">
        <ele>7.8</ele>
        <time>2013-10-27T08:59:44Z</time>
      </trkpt>
      <trkpt lat="59.4573275" lon="17.8009498">
        <ele>8.6</ele>
        <time>2013-10-27T08:59:52Z</time>
      </trkpt>
      <trkpt lat="59.4572411" lon="17.8009458">
        <ele>9</ele>
        <time>2013-10-27T08:59:58Z</time>
      </trkpt>
      <trkpt lat="59.457232" lon="17.8009393">
        <ele>9.2</ele>
        <time>2013-10-27T08:59:59Z</time>
      </trkpt>
      <trkpt lat="59.4572194" lon="17.8009136">
        <ele>9.4</ele>
        <time>2013-10-27T09:00:02Z</time>
      </trkpt>
      <trkpt lat="59.4572016" lon="17.8008405">
        <ele>9.4</ele>
        <time>2013-10-27T09:00:08Z</time>
      </trkpt>
      <trkpt lat="59.4572254" lon="17.800782">
        <ele>9.4</ele>
        <time>2013-10-27T09:00:15Z</time>
      </trkpt>
      <trkpt lat="59.4572368" lon="17.800716">
        <ele>9.4</ele>
        <time>2013-10-27T09:00:19Z</time>
      </trkpt>
      <trkpt lat="59.4572281" lon="17.8006649">
        <ele>9.4</ele>
        <time>2013-10-27T09:00:21Z</time>
      </trkpt>
      <trkpt lat="59.4571547" lon="17.8004808">
        <ele>9.4</ele>
        <time>2013-10-27T09:00:29Z</time>
      </trkpt>
      <trkpt lat="59.4571146" lon="17.8002516">
        <ele>9</ele>
        <time>2013-10-27T09:00:37Z</time>
      </trkpt>
      <trkpt lat="59.4571121" lon="17.7999056">
        <ele>8.6</ele>
        <time>2013-10-27T09:00:48Z</time>
      </trkpt>
      <trkpt lat="59.4571529" lon="17.7997">
        <ele>8.6</ele>
        <time>2013-10-27T09:00:55Z</time>
      </trkpt>
      <trkpt lat="59.4571954" lon="17.7994881">
        <ele>8.4</ele>
        <time>2013-10-27T09:01:02Z</time>
      </trkpt>
      <trkpt lat="59.4572436" lon="17.7992209">
        <ele>8.6</ele>
        <time>2013-10-27T09:01:11Z</time>
      </trkpt>
      <trkpt lat="59.4573033" lon="17.7989183">
        <ele>8.8</ele>
        <time>2013-10-27T09:01:21Z</time>
      </trkpt>
      <trkpt lat="59.4573383" lon="17.7987517">
        <ele>8.6</ele>
        <time>2013-10-27T09:01:27Z</time>
      </trkpt>
      <trkpt lat="59.4573808" lon="17.7985682">
        <ele>8.6</ele>
        <time>2013-10-27T09:01:33Z</time>
      </trkpt>
      <trkpt lat="59.4574222" lon="17.7983701">
        <ele>8.6</ele>
        <time>2013-10-27T09:01:39Z</time>
      </trkpt>
      <trkpt lat="59.4574744" lon="17.7981516">
        <ele>8.8</ele>
        <time>2013-10-27T09:01:46Z</time>
      </trkpt>
      <trkpt lat="59.4575025" lon="17.797989">
        <ele>9</ele>
        <time>2013-10-27T09:01:52Z</time>
      </trkpt>
      <trkpt lat="59.4575401" lon="17.7978464">
        <ele>9.2</ele>
        <time>2013-10-27T09:01:58Z</time>
      </trkpt>
      <trkpt lat="59.457582" lon="17.7976498">
        <ele>9</ele>
        <time>2013-10-27T09:02:05Z</time>
      </trkpt>
      <trkpt lat="59.4576055" lon="17.7974691">
        <ele>9</ele>
        <time>2013-10-27T09:02:11Z</time>
      </trkpt>
      <trkpt lat="59.4576054" lon="17.7974505">
        <ele>8.8</ele>
        <time>2013-10-27T09:02:12Z</time>
      </trkpt>
      <trkpt lat="59.4576388" lon="17.7972953">
        <ele>8.8</ele>
        <time>2013-10-27T09:02:17Z</time>
      </trkpt>
      <trkpt lat="59.4577035" lon="17.7970983">
        <ele>9</ele>
        <time>2013-10-27T09:02:24Z</time>
      </trkpt>
      <trkpt lat="59.4577417" lon="17.7968669">
        <ele>9</ele>
        <time>2013-10-27T09:02:32Z</time>
      </trkpt>
      <trkpt lat="59.4577117" lon="17.7966871">
        <ele>8.8</ele>
        <time>2013-10-27T09:02:38Z</time>
      </trkpt>
      <trkpt lat="59.4576283" lon="17.7965702">
        <ele>8.4</ele>
        <time>2013-10-27T09:02:45Z</time>
      </trkpt>
      <trkpt lat="59.4575321" lon="17.7964571">
        <ele>8</ele>
        <time>2013-10-27T09:02:52Z</time>
      </trkpt>
      <trkpt lat="59.4574243" lon="17.7963112">
        <ele>7.4</ele>
        <time>2013-10-27T09:02:59Z</time>
      </trkpt>
      <trkpt lat="59.4573332" lon="17.7962126">
        <ele>7</ele>
        <time>2013-10-27T09:03:06Z</time>
      </trkpt>
      <trkpt lat="59.4572507" lon="17.7962058">
        <ele>6.6</ele>
        <time>2013-10-27T09:03:12Z</time>
      </trkpt>
      <trkpt lat="59.4572392" lon="17.7962174">
        <ele>6.4</ele>
        <time>2013-10-27T09:03:13Z</time>
      </trkpt>
      <trkpt lat="59.4571725" lon="17.7962533">
        <ele>6.2</ele>
        <time>2013-10-27T09:03:18Z</time>
      </trkpt>
      <trkpt lat="59.4571197" lon="17.7962506">
        <ele>6</ele>
        <time>2013-10-27T09:03:22Z</time>
      </trkpt>
      <trkpt lat="59.4570926" lon="17.7962492">
        <ele>6</ele>
        <time>2013-10-27T09:03:24Z</time>
      </trkpt>
      <trkpt lat="59.4570165" lon="17.7962843">
        <ele>6.2</ele>
        <time>2013-10-27T09:03:29Z</time>
      </trkpt>
      <trkpt lat="59.4568967" lon="17.7961799">
        <ele>6.8</ele>
        <time>2013-10-27T09:03:36Z</time>
      </trkpt>
      <trkpt lat="59.4567831" lon="17.796047">
        <ele>6.8</ele>
        <time>2013-10-27T09:03:43Z</time>
      </trkpt>
      <trkpt lat="59.4566829" lon="17.795936">
        <ele>6.6</ele>
        <time>2013-10-27T09:03:50Z</time>
      </trkpt>
      <trkpt lat="59.456582" lon="17.7958671">
        <ele>6.4</ele>
        <time>2013-10-27T09:03:56Z</time>
      </trkpt>
      <trkpt lat="59.4564553" lon="17.7957308">
        <ele>6.2</ele>
        <time>2013-10-27T09:04:05Z</time>
      </trkpt>
      <trkpt lat="59.4563548" lon="17.795595">
        <ele>6.2</ele>
        <time>2013-10-27T09:04:12Z</time>
      </trkpt>
      <trkpt lat="59.4563192" lon="17.7955914">
        <ele>6.6</ele>
        <time>2013-10-27T09:04:14Z</time>
      </trkpt>
      <trkpt lat="59.4562909" lon="17.7955739">
        <ele>6.4</ele>
        <time>2013-10-27T09:04:16Z</time>
      </trkpt>
      <trkpt lat="59.4562699" lon="17.7955586">
        <ele>6.4</ele>
        <time>2013-10-27T09:04:17Z</time>
      </trkpt>
      <trkpt lat="59.4561458" lon="17.795374">
        <ele>6.8</ele>
        <time>2013-10-27T09:04:26Z</time>
      </trkpt>
      <trkpt lat="59.4561146" lon="17.7953404">
        <ele>7</ele>
        <time>2013-10-27T09:04:28Z</time>
      </trkpt>
      <trkpt lat="59.4560647" lon="17.7953285">
        <ele>6.6</ele>
        <time>2013-10-27T09:04:31Z</time>
      </trkpt>
      <trkpt lat="59.4559679" lon="17.7952488">
        <ele>6.4</ele>
        <time>2013-10-27T09:04:37Z</time>
      </trkpt>
      <trkpt lat="59.4558826" lon="17.7951497">
        <ele>6.2</ele>
        <time>2013-10-27T09:04:43Z</time>
      </trkpt>
      <trkpt lat="59.4557779" lon="17.7950625">
        <ele>5.6</ele>
        <time>2013-10-27T09:04:50Z</time>
      </trkpt>
      <trkpt lat="59.455675" lon="17.7949671">
        <ele>5</ele>
        <time>2013-10-27T09:04:57Z</time>
      </trkpt>
      <trkpt lat="59.4555647" lon="17.7948872">
        <ele>4.6</ele>
        <time>2013-10-27T09:05:04Z</time>
      </trkpt>
      <trkpt lat="59.4554501" lon="17.7948729">
        <ele>4.4</ele>
        <time>2013-10-27T09:05:11Z</time>
      </trkpt>
      <trkpt lat="59.4553251" lon="17.7948871">
        <ele>4.4</ele>
        <time>2013-10-27T09:05:18Z</time>
      </trkpt>
      <trkpt lat="59.4552287" lon="17.7948444">
        <ele>4.4</ele>
        <time>2013-10-27T09:05:24Z</time>
      </trkpt>
      <trkpt lat="59.455129" lon="17.7947774">
        <ele>4.4</ele>
        <time>2013-10-27T09:05:30Z</time>
      </trkpt>
      <trkpt lat="59.4549909" lon="17.7947241">
        <ele>4.2</ele>
        <time>2013-10-27T09:05:38Z</time>
      </trkpt>
      <trkpt lat="59.4548659" lon="17.7946499">
        <ele>4</ele>
        <time>2013-10-27T09:05:46Z</time>
      </trkpt>
      <trkpt lat="59.4547543" lon="17.7945654">
        <ele>3.8</ele>
        <time>2013-10-27T09:05:53Z</time>
      </trkpt>
      <trkpt lat="59.4546555" lon="17.7943968">
        <ele>3.4</ele>
        <time>2013-10-27T09:06:01Z</time>
      </trkpt>
      <trkpt lat="59.4546101" lon="17.7942649">
        <ele>3.2</ele>
        <time>2013-10-27T09:06:06Z</time>
      </trkpt>
      <trkpt lat="59.4545911" lon="17.7942063">
        <ele>3.2</ele>
        <time>2013-10-27T09:06:08Z</time>
      </trkpt>
      <trkpt lat="59.4545663" lon="17.7940853">
        <ele>3</ele>
        <time>2013-10-27T09:06:12Z</time>
      </trkpt>
      <trkpt lat="59.4545573" lon="17.794054">
        <ele>3</ele>
        <time>2013-10-27T09:06:13Z</time>
      </trkpt>
      <trkpt lat="59.4545434" lon="17.7939831">
        <ele>2.8</ele>
        <time>2013-10-27T09:06:15Z</time>
      </trkpt>
      <trkpt lat="59.4545188" lon="17.7938853">
        <ele>2.8</ele>
        <time>2013-10-27T09:06:18Z</time>
      </trkpt>
      <trkpt lat="59.4544555" lon="17.7936436">
        <ele>2.6</ele>
        <time>2013-10-27T09:06:26Z</time>
      </trkpt>
      <trkpt lat="59.4544303" lon="17.7936009">
        <ele>2.6</ele>
        <time>2013-10-27T09:06:28Z</time>
      </trkpt>
      <trkpt lat="59.4543679" lon="17.7935209">
        <ele>2.4</ele>
        <time>2013-10-27T09:06:32Z</time>
      </trkpt>
      <trkpt lat="59.4543077" lon="17.7934109">
        <ele>2.2</ele>
        <time>2013-10-27T09:06:37Z</time>
      </trkpt>
      <trkpt lat="59.4542977" lon="17.793382">
        <ele>2.2</ele>
        <time>2013-10-27T09:06:38Z</time>
      </trkpt>
      <trkpt lat="59.4542423" lon="17.7932601">
        <ele>2.2</ele>
        <time>2013-10-27T09:06:43Z</time>
      </trkpt>
      <trkpt lat="59.4542137" lon="17.7931838">
        <ele>2</ele>
        <time>2013-10-27T09:06:46Z</time>
      </trkpt>
      <trkpt lat="59.454137" lon="17.7930564">
        <ele>1.8</ele>
        <time>2013-10-27T09:06:52Z</time>
      </trkpt>
      <trkpt lat="59.4540462" lon="17.792914">
        <ele>1.8</ele>
        <time>2013-10-27T09:06:59Z</time>
      </trkpt>
      <trkpt lat="59.4539839" lon="17.792756">
        <ele>2</ele>
        <time>2013-10-27T09:07:05Z</time>
      </trkpt>
      <trkpt lat="59.4539081" lon="17.7924823">
        <ele>2</ele>
        <time>2013-10-27T09:07:14Z</time>
      </trkpt>
      <trkpt lat="59.4538846" lon="17.7922566">
        <ele>2.2</ele>
        <time>2013-10-27T09:07:21Z</time>
      </trkpt>
      <trkpt lat="59.4538802" lon="17.7922087">
        <ele>2.4</ele>
        <time>2013-10-27T09:07:23Z</time>
      </trkpt>
      <trkpt lat="59.453877" lon="17.7921413">
        <ele>2.4</ele>
        <time>2013-10-27T09:07:25Z</time>
      </trkpt>
      <trkpt lat="59.4538883" lon="17.7920233">
        <ele>2.6</ele>
        <time>2013-10-27T09:07:29Z</time>
      </trkpt>
      <trkpt lat="59.4538932" lon="17.7919972">
        <ele>2.4</ele>
        <time>2013-10-27T09:07:30Z</time>
      </trkpt>
      <trkpt lat="59.453897" lon="17.7919581">
        <ele>2.4</ele>
        <time>2013-10-27T09:07:32Z</time>
      </trkpt>
      <trkpt lat="59.4538839" lon="17.7918635">
        <ele>2.4</ele>
        <time>2013-10-27T09:07:35Z</time>
      </trkpt>
      <trkpt lat="59.4538464" lon="17.7917237">
        <ele>2.8</ele>
        <time>2013-10-27T09:07:40Z</time>
      </trkpt>
      <trkpt lat="59.453833" lon="17.7916718">
        <ele>2.8</ele>
        <time>2013-10-27T09:07:42Z</time>
      </trkpt>
      <trkpt lat="59.4537967" lon="17.7916389">
        <ele>2.6</ele>
        <time>2013-10-27T09:07:45Z</time>
      </trkpt>
      <trkpt lat="59.4537494" lon="17.7916404">
        <ele>2.6</ele>
        <time>2013-10-27T09:07:48Z</time>
      </trkpt>
      <trkpt lat="59.4537061" lon="17.7916396">
        <ele>2.6</ele>
        <time>2013-10-27T09:07:51Z</time>
      </trkpt>
      <trkpt lat="59.4536208" lon="17.7916618">
        <ele>2.4</ele>
        <time>2013-10-27T09:07:58Z</time>
      </trkpt>
      <trkpt lat="59.453611" lon="17.7916695">
        <ele>2.4</ele>
        <time>2013-10-27T09:07:59Z</time>
      </trkpt>
      <trkpt lat="59.4535586" lon="17.7916731">
        <ele>2.6</ele>
        <time>2013-10-27T09:08:03Z</time>
      </trkpt>
      <trkpt lat="59.4535009" lon="17.7916785">
        <ele>3</ele>
        <time>2013-10-27T09:08:07Z</time>
      </trkpt>
      <trkpt lat="59.4534679" lon="17.7916815">
        <ele>3.2</ele>
        <time>2013-10-27T09:08:09Z</time>
      </trkpt>
      <trkpt lat="59.4533978" lon="17.791671">
        <ele>3.2</ele>
        <time>2013-10-27T09:08:14Z</time>
      </trkpt>
      <trkpt lat="59.453302" lon="17.7916926">
        <ele>3.2</ele>
        <time>2013-10-27T09:08:20Z</time>
      </trkpt>
      <trkpt lat="59.4532151" lon="17.7917753">
        <ele>2.8</ele>
        <time>2013-10-27T09:08:27Z</time>
      </trkpt>
      <trkpt lat="59.4531739" lon="17.7917862">
        <ele>2.8</ele>
        <time>2013-10-27T09:08:30Z</time>
      </trkpt>
      <trkpt lat="59.4531562" lon="17.7917909">
        <ele>2.6</ele>
        <time>2013-10-27T09:08:32Z</time>
      </trkpt>
      <trkpt lat="59.4531171" lon="17.7918056">
        <ele>2.6</ele>
        <time>2013-10-27T09:08:34Z</time>
      </trkpt>
      <trkpt lat="59.4530852" lon="17.7918292">
        <ele>2.4</ele>
        <time>2013-10-27T09:08:36Z</time>
      </trkpt>
      <trkpt lat="59.4530518" lon="17.7918812">
        <ele>2.4</ele>
        <time>2013-10-27T09:08:38Z</time>
      </trkpt>
      <trkpt lat="59.4530118" lon="17.7919384">
        <ele>2</ele>
        <time>2013-10-27T09:08:41Z</time>
      </trkpt>
      <trkpt lat="59.4529633" lon="17.7920737">
        <ele>1.8</ele>
        <time>2013-10-27T09:08:47Z</time>
      </trkpt>
      <trkpt lat="59.4529011" lon="17.7921905">
        <ele>1.4</ele>
        <time>2013-10-27T09:08:53Z</time>
      </trkpt>
      <trkpt lat="59.4528534" lon="17.7922038">
        <ele>1.4</ele>
        <time>2013-10-27T09:08:56Z</time>
      </trkpt>
      <trkpt lat="59.452794" lon="17.7922259">
        <ele>1.2</ele>
        <time>2013-10-27T09:09:00Z</time>
      </trkpt>
      <trkpt lat="59.4526889" lon="17.792236">
        <ele>1.2</ele>
        <time>2013-10-27T09:09:07Z</time>
      </trkpt>
      <trkpt lat="59.4526019" lon="17.7923426">
        <ele>1</ele>
        <time>2013-10-27T09:09:14Z</time>
      </trkpt>
      <trkpt lat="59.4524815" lon="17.792488">
        <ele>0.6</ele>
        <time>2013-10-27T09:09:23Z</time>
      </trkpt>
      <trkpt lat="59.4524135" lon="17.7925787">
        <ele>0.6</ele>
        <time>2013-10-27T09:09:29Z</time>
      </trkpt>
      <trkpt lat="59.452318" lon="17.7926876">
        <ele>0.4</ele>
        <time>2013-10-27T09:09:37Z</time>
      </trkpt>
      <trkpt lat="59.4522198" lon="17.7928066">
        <ele>0.2</ele>
        <time>2013-10-27T09:09:44Z</time>
      </trkpt>
      <trkpt lat="59.4521001" lon="17.7929206">
        <ele>0</ele>
        <time>2013-10-27T09:09:52Z</time>
      </trkpt>
      <trkpt lat="59.4519707" lon="17.7930637">
        <ele>0</ele>
        <time>2013-10-27T09:10:01Z</time>
      </trkpt>
      <trkpt lat="59.4518806" lon="17.7931926">
        <ele>0</ele>
        <time>2013-10-27T09:10:09Z</time>
      </trkpt>
      <trkpt lat="59.4518088" lon="17.7932638">
        <ele>0</ele>
        <time>2013-10-27T09:10:15Z</time>
      </trkpt>
      <trkpt lat="59.4517014" lon="17.7932916">
        <ele>0</ele>
        <time>2013-10-27T09:10:22Z</time>
      </trkpt>
      <trkpt lat="59.4515856" lon="17.7933002">
        <ele>0</ele>
        <time>2013-10-27T09:10:30Z</time>
      </trkpt>
      <trkpt lat="59.4515267" lon="17.7933187">
        <ele>0</ele>
        <time>2013-10-27T09:10:34Z</time>
      </trkpt>
      <trkpt lat="59.4515133" lon="17.7933244">
        <ele>0</ele>
        <time>2013-10-27T09:10:35Z</time>
      </trkpt>
      <trkpt lat="59.451433" lon="17.7933388">
        <ele>0.2</ele>
        <time>2013-10-27T09:10:40Z</time>
      </trkpt>
      <trkpt lat="59.4513888" lon="17.7933404">
        <ele>0.4</ele>
        <time>2013-10-27T09:10:43Z</time>
      </trkpt>
      <trkpt lat="59.451308" lon="17.7933291">
        <ele>0.6</ele>
        <time>2013-10-27T09:10:47Z</time>
      </trkpt>
      <trkpt lat="59.4512875" lon="17.7933206">
        <ele>0.6</ele>
        <time>2013-10-27T09:10:48Z</time>
      </trkpt>
      <trkpt lat="59.4512326" lon="17.7932818">
        <ele>0.6</ele>
        <time>2013-10-27T09:10:51Z</time>
      </trkpt>
      <trkpt lat="59.4512196" lon="17.793263">
        <ele>0.8</ele>
        <time>2013-10-27T09:10:52Z</time>
      </trkpt>
      <trkpt lat="59.4511893" lon="17.7932362">
        <ele>1.2</ele>
        <time>2013-10-27T09:10:54Z</time>
      </trkpt>
      <trkpt lat="59.4511655" lon="17.7931964">
        <ele>1.2</ele>
        <time>2013-10-27T09:10:56Z</time>
      </trkpt>
      <trkpt lat="59.4510652" lon="17.7931061">
        <ele>2.4</ele>
        <time>2013-10-27T09:11:03Z</time>
      </trkpt>
      <trkpt lat="59.4510535" lon="17.7930953">
        <ele>2.4</ele>
        <time>2013-10-27T09:11:04Z</time>
      </trkpt>
      <trkpt lat="59.450985" lon="17.7930704">
        <ele>3.2</ele>
        <time>2013-10-27T09:11:09Z</time>
      </trkpt>
      <trkpt lat="59.4509083" lon="17.7930327">
        <ele>4</ele>
        <time>2013-10-27T09:11:14Z</time>
      </trkpt>
      <trkpt lat="59.4508565" lon="17.7930244">
        <ele>4.2</ele>
        <time>2013-10-27T09:11:18Z</time>
      </trkpt>
      <trkpt lat="59.4508224" lon="17.7930147">
        <ele>4.4</ele>
        <time>2013-10-27T09:11:20Z</time>
      </trkpt>
      <trkpt lat="59.4507421" lon="17.7929238">
        <ele>4.8</ele>
        <time>2013-10-27T09:11:25Z</time>
      </trkpt>
      <trkpt lat="59.4506574" lon="17.7928299">
        <ele>5.4</ele>
        <time>2013-10-27T09:11:30Z</time>
      </trkpt>
      <trkpt lat="59.4505691" lon="17.7927487">
        <ele>5.6</ele>
        <time>2013-10-27T09:11:36Z</time>
      </trkpt>
      <trkpt lat="59.4505515" lon="17.7927424">
        <ele>5.6</ele>
        <time>2013-10-27T09:11:37Z</time>
      </trkpt>
      <trkpt lat="59.4504768" lon="17.7926492">
        <ele>5.6</ele>
        <time>2013-10-27T09:11:42Z</time>
      </trkpt>
      <trkpt lat="59.4504576" lon="17.7926375">
        <ele>5.8</ele>
        <time>2013-10-27T09:11:43Z</time>
      </trkpt>
      <trkpt lat="59.4504514" lon="17.7926236">
        <ele>5.6</ele>
        <time>2013-10-27T09:11:44Z</time>
      </trkpt>
      <trkpt lat="59.4504387" lon="17.792616">
        <ele>5.4</ele>
        <time>2013-10-27T09:11:46Z</time>
      </trkpt>
      <trkpt lat="59.4504281" lon="17.7926147">
        <ele>5.4</ele>
        <time>2013-10-27T09:11:47Z</time>
      </trkpt>
      <trkpt lat="59.4503694" lon="17.792613">
        <ele>5.4</ele>
        <time>2013-10-27T09:11:51Z</time>
      </trkpt>
      <trkpt lat="59.450356" lon="17.7926049">
        <ele>5.4</ele>
        <time>2013-10-27T09:11:52Z</time>
      </trkpt>
      <trkpt lat="59.4502898" lon="17.7925941">
        <ele>5.4</ele>
        <time>2013-10-27T09:11:56Z</time>
      </trkpt>
      <trkpt lat="59.4502717" lon="17.7925584">
        <ele>5.4</ele>
        <time>2013-10-27T09:11:58Z</time>
      </trkpt>
      <trkpt lat="59.4502028" lon="17.7925401">
        <ele>5.2</ele>
        <time>2013-10-27T09:12:02Z</time>
      </trkpt>
      <trkpt lat="59.4501865" lon="17.7925408">
        <ele>5.2</ele>
        <time>2013-10-27T09:12:03Z</time>
      </trkpt>
      <trkpt lat="59.4500912" lon="17.792555">
        <ele>5</ele>
        <time>2013-10-27T09:12:09Z</time>
      </trkpt>
      <trkpt lat="59.4500032" lon="17.7925928">
        <ele>4.8</ele>
        <time>2013-10-27T09:12:15Z</time>
      </trkpt>
      <trkpt lat="59.4499106" lon="17.792584">
        <ele>4.6</ele>
        <time>2013-10-27T09:12:21Z</time>
      </trkpt>
      <trkpt lat="59.4498494" lon="17.7925674">
        <ele>5</ele>
        <time>2013-10-27T09:12:25Z</time>
      </trkpt>
      <trkpt lat="59.4498213" lon="17.7925954">
        <ele>5.2</ele>
        <time>2013-10-27T09:12:27Z</time>
      </trkpt>
      <trkpt lat="59.4497283" lon="17.7926068">
        <ele>5.2</ele>
        <time>2013-10-27T09:12:32Z</time>
      </trkpt>
      <trkpt lat="59.4496385" lon="17.7926335">
        <ele>5.6</ele>
        <time>2013-10-27T09:12:37Z</time>
      </trkpt>
      <trkpt lat="59.4496219" lon="17.7926327">
        <ele>5.8</ele>
        <time>2013-10-27T09:12:38Z</time>
      </trkpt>
      <trkpt lat="59.4495864" lon="17.7926383">
        <ele>5.8</ele>
        <time>2013-10-27T09:12:41Z</time>
      </trkpt>
      <trkpt lat="59.4495565" lon="17.7926533">
        <ele>6</ele>
        <time>2013-10-27T09:12:43Z</time>
      </trkpt>
      <trkpt lat="59.4494735" lon="17.7926497">
        <ele>6.8</ele>
        <time>2013-10-27T09:12:48Z</time>
      </trkpt>
      <trkpt lat="59.4493631" lon="17.7926734">
        <ele>7</ele>
        <time>2013-10-27T09:12:55Z</time>
      </trkpt>
      <trkpt lat="59.449338" lon="17.7926963">
        <ele>7</ele>
        <time>2013-10-27T09:12:57Z</time>
      </trkpt>
      <trkpt lat="59.4493037" lon="17.7927121">
        <ele>7</ele>
        <time>2013-10-27T09:12:59Z</time>
      </trkpt>
      <trkpt lat="59.4492734" lon="17.7927188">
        <ele>6.8</ele>
        <time>2013-10-27T09:13:01Z</time>
      </trkpt>
      <trkpt lat="59.4492308" lon="17.7927278">
        <ele>6.8</ele>
        <time>2013-10-27T09:13:04Z</time>
      </trkpt>
      <trkpt lat="59.44921" lon="17.7927321">
        <ele>6.8</ele>
        <time>2013-10-27T09:13:05Z</time>
      </trkpt>
      <trkpt lat="59.4491149" lon="17.7927153">
        <ele>6.6</ele>
        <time>2013-10-27T09:13:10Z</time>
      </trkpt>
      <trkpt lat="59.4490083" lon="17.7926234">
        <ele>6.8</ele>
        <time>2013-10-27T09:13:16Z</time>
      </trkpt>
      <trkpt lat="59.4489925" lon="17.7926152">
        <ele>7</ele>
        <time>2013-10-27T09:13:17Z</time>
      </trkpt>
      <trkpt lat="59.4489462" lon="17.7925783">
        <ele>7.4</ele>
        <time>2013-10-27T09:13:21Z</time>
      </trkpt>
      <trkpt lat="59.4488618" lon="17.7925714">
        <ele>7.8</ele>
        <time>2013-10-27T09:13:26Z</time>
      </trkpt>
      <trkpt lat="59.448772" lon="17.7925455">
        <ele>7.6</ele>
        <time>2013-10-27T09:13:31Z</time>
      </trkpt>
      <trkpt lat="59.4486521" lon="17.7924894">
        <ele>7.8</ele>
        <time>2013-10-27T09:13:38Z</time>
      </trkpt>
      <trkpt lat="59.4485673" lon="17.7924557">
        <ele>7.8</ele>
        <time>2013-10-27T09:13:44Z</time>
      </trkpt>
      <trkpt lat="59.4485213" lon="17.7924436">
        <ele>7.8</ele>
        <time>2013-10-27T09:13:47Z</time>
      </trkpt>
      <trkpt lat="59.4484709" lon="17.7924146">
        <ele>7.6</ele>
        <time>2013-10-27T09:13:50Z</time>
      </trkpt>
      <trkpt lat="59.4483975" lon="17.79235">
        <ele>7.8</ele>
        <time>2013-10-27T09:13:55Z</time>
      </trkpt>
      <trkpt lat="59.4483648" lon="17.7923505">
        <ele>7.6</ele>
        <time>2013-10-27T09:13:57Z</time>
      </trkpt>
      <trkpt lat="59.448308" lon="17.792298">
        <ele>8</ele>
        <time>2013-10-27T09:14:02Z</time>
      </trkpt>
      <trkpt lat="59.4476914" lon="17.7922508">
        <ele>18.6</ele>
        <time>2013-10-27T09:14:54Z</time>
      </trkpt>
      <trkpt lat="59.4476595" lon="17.7922666">
        <ele>18.2</ele>
        <time>2013-10-27T09:14:56Z</time>
      </trkpt>
      <trkpt lat="59.4475799" lon="17.7922615">
        <ele>17.4</ele>
        <time>2013-10-27T09:15:01Z</time>
      </trkpt>
      <trkpt lat="59.447564" lon="17.7922512">
        <ele>17.2</ele>
        <time>2013-10-27T09:15:02Z</time>
      </trkpt>
      <trkpt lat="59.4475254" lon="17.7922326">
        <ele>16.6</ele>
        <time>2013-10-27T09:15:05Z</time>
      </trkpt>
      <trkpt lat="59.4475011" lon="17.792226">
        <ele>16.2</ele>
        <time>2013-10-27T09:15:07Z</time>
      </trkpt>
      <trkpt lat="59.4474227" lon="17.7922344">
        <ele>15</ele>
        <time>2013-10-27T09:15:14Z</time>
      </trkpt>
      <trkpt lat="59.447398" lon="17.7922224">
        <ele>14.6</ele>
        <time>2013-10-27T09:15:16Z</time>
      </trkpt>
      <trkpt lat="59.4473706" lon="17.7921882">
        <ele>14</ele>
        <time>2013-10-27T09:15:19Z</time>
      </trkpt>
      <trkpt lat="59.4473055" lon="17.7922174">
        <ele>13.2</ele>
        <time>2013-10-27T09:15:24Z</time>
      </trkpt>
      <trkpt lat="59.4472935" lon="17.7922266">
        <ele>13</ele>
        <time>2013-10-27T09:15:25Z</time>
      </trkpt>
      <trkpt lat="59.4472538" lon="17.7922654">
        <ele>12.4</ele>
        <time>2013-10-27T09:15:28Z</time>
      </trkpt>
      <trkpt lat="59.4472309" lon="17.7922659">
        <ele>12</ele>
        <time>2013-10-27T09:15:30Z</time>
      </trkpt>
      <trkpt lat="59.4471681" lon="17.792255">
        <ele>11.4</ele>
        <time>2013-10-27T09:15:35Z</time>
      </trkpt>
      <trkpt lat="59.4471154" lon="17.7922652">
        <ele>10.6</ele>
        <time>2013-10-27T09:15:39Z</time>
      </trkpt>
      <trkpt lat="59.4470712" lon="17.7922661">
        <ele>10.2</ele>
        <time>2013-10-27T09:15:42Z</time>
      </trkpt>
      <trkpt lat="59.4470632" lon="17.7922401">
        <ele>10</ele>
        <time>2013-10-27T09:15:43Z</time>
      </trkpt>
      <trkpt lat="59.4470338" lon="17.7921737">
        <ele>9.6</ele>
        <time>2013-10-27T09:15:46Z</time>
      </trkpt>
      <trkpt lat="59.4470161" lon="17.7921514">
        <ele>9.2</ele>
        <time>2013-10-27T09:15:49Z</time>
      </trkpt>
      <trkpt lat="59.4469424" lon="17.79207">
        <ele>6.4</ele>
        <time>2013-10-27T09:16:54Z</time>
      </trkpt>
      <trkpt lat="59.446935" lon="17.7920804">
        <ele>6.4</ele>
        <time>2013-10-27T09:16:56Z</time>
      </trkpt>
      <trkpt lat="59.4469291" lon="17.7921165">
        <ele>6.4</ele>
        <time>2013-10-27T09:17:00Z</time>
      </trkpt>
      <trkpt lat="59.4468866" lon="17.7921642">
        <ele>6.2</ele>
        <time>2013-10-27T09:17:04Z</time>
      </trkpt>
      <trkpt lat="59.4468273" lon="17.7922431">
        <ele>6</ele>
        <time>2013-10-27T09:17:09Z</time>
      </trkpt>
      <trkpt lat="59.4467357" lon="17.7923352">
        <ele>6</ele>
        <time>2013-10-27T09:17:16Z</time>
      </trkpt>
      <trkpt lat="59.4466797" lon="17.7923497">
        <ele>5.8</ele>
        <time>2013-10-27T09:17:20Z</time>
      </trkpt>
      <trkpt lat="59.44666" lon="17.7923723">
        <ele>5.8</ele>
        <time>2013-10-27T09:17:22Z</time>
      </trkpt>
      <trkpt lat="59.4466395" lon="17.7924138">
        <ele>5.6</ele>
        <time>2013-10-27T09:17:24Z</time>
      </trkpt>
      <trkpt lat="59.4466285" lon="17.7924322">
        <ele>5.6</ele>
        <time>2013-10-27T09:17:25Z</time>
      </trkpt>
      <trkpt lat="59.4465922" lon="17.7924808">
        <ele>5.4</ele>
        <time>2013-10-27T09:17:40Z</time>
      </trkpt>
      <trkpt lat="59.4465806" lon="17.7924909">
        <ele>5.4</ele>
        <time>2013-10-27T09:17:41Z</time>
      </trkpt>
      <trkpt lat="59.4465052" lon="17.7925441">
        <ele>5.4</ele>
        <time>2013-10-27T09:17:48Z</time>
      </trkpt>
      <trkpt lat="59.4464291" lon="17.7925805">
        <ele>5.2</ele>
        <time>2013-10-27T09:17:53Z</time>
      </trkpt>
      <trkpt lat="59.4463792" lon="17.7926096">
        <ele>5.2</ele>
        <time>2013-10-27T09:17:56Z</time>
      </trkpt>
      <trkpt lat="59.4463159" lon="17.7926074">
        <ele>5</ele>
        <time>2013-10-27T09:18:00Z</time>
      </trkpt>
      <trkpt lat="59.4462994" lon="17.7926089">
        <ele>5</ele>
        <time>2013-10-27T09:18:01Z</time>
      </trkpt>
      <trkpt lat="59.4462407" lon="17.7926015">
        <ele>5</ele>
        <time>2013-10-27T09:18:06Z</time>
      </trkpt>
      <trkpt lat="59.4462296" lon="17.7925975">
        <ele>5</ele>
        <time>2013-10-27T09:18:07Z</time>
      </trkpt>
      <trkpt lat="59.4461711" lon="17.7925504">
        <ele>5.2</ele>
        <time>2013-10-27T09:18:11Z</time>
      </trkpt>
      <trkpt lat="59.4461425" lon="17.7925398">
        <ele>5.2</ele>
        <time>2013-10-27T09:18:13Z</time>
      </trkpt>
      <trkpt lat="59.4461276" lon="17.7925437">
        <ele>5.2</ele>
        <time>2013-10-27T09:18:14Z</time>
      </trkpt>
      <trkpt lat="59.4460625" lon="17.7925881">
        <ele>5</ele>
        <time>2013-10-27T09:18:18Z</time>
      </trkpt>
      <trkpt lat="59.4460373" lon="17.7926048">
        <ele>5.2</ele>
        <time>2013-10-27T09:18:20Z</time>
      </trkpt>
      <trkpt lat="59.445937" lon="17.7926716">
        <ele>5.4</ele>
        <time>2013-10-27T09:18:25Z</time>
      </trkpt>
      <trkpt lat="59.4458484" lon="17.7927083">
        <ele>5.2</ele>
        <time>2013-10-27T09:18:31Z</time>
      </trkpt>
      <trkpt lat="59.4457558" lon="17.7926803">
        <ele>5.6</ele>
        <time>2013-10-27T09:18:37Z</time>
      </trkpt>
      <trkpt lat="59.4456258" lon="17.7926923">
        <ele>6.6</ele>
        <time>2013-10-27T09:18:44Z</time>
      </trkpt>
      <trkpt lat="59.4455089" lon="17.7927027">
        <ele>6.8</ele>
        <time>2013-10-27T09:18:51Z</time>
      </trkpt>
      <trkpt lat="59.4454806" lon="17.792702">
        <ele>6.8</ele>
        <time>2013-10-27T09:18:53Z</time>
      </trkpt>
      <trkpt lat="59.4454319" lon="17.7927131">
        <ele>7</ele>
        <time>2013-10-27T09:18:56Z</time>
      </trkpt>
      <trkpt lat="59.4454075" lon="17.7927245">
        <ele>6.8</ele>
        <time>2013-10-27T09:18:57Z</time>
      </trkpt>
      <trkpt lat="59.4453114" lon="17.792749">
        <ele>6.8</ele>
        <time>2013-10-27T09:19:03Z</time>
      </trkpt>
      <trkpt lat="59.4452824" lon="17.7927446">
        <ele>6.8</ele>
        <time>2013-10-27T09:19:05Z</time>
      </trkpt>
      <trkpt lat="59.4452185" lon="17.7927592">
        <ele>6.8</ele>
        <time>2013-10-27T09:19:08Z</time>
      </trkpt>
      <trkpt lat="59.4451613" lon="17.7927373">
        <ele>7.8</ele>
        <time>2013-10-27T09:19:15Z</time>
      </trkpt>
      <trkpt lat="59.4450285" lon="17.7927514">
        <ele>10.6</ele>
        <time>2013-10-27T09:19:24Z</time>
      </trkpt>
      <trkpt lat="59.4448911" lon="17.792746">
        <ele>12.4</ele>
        <time>2013-10-27T09:19:31Z</time>
      </trkpt>
      <trkpt lat="59.4448341" lon="17.792745">
        <ele>13.6</ele>
        <time>2013-10-27T09:19:36Z</time>
      </trkpt>
      <trkpt lat="59.4448269" lon="17.7927381">
        <ele>13.6</ele>
        <time>2013-10-27T09:19:37Z</time>
      </trkpt>
      <trkpt lat="59.4447628" lon="17.7927506">
        <ele>14.2</ele>
        <time>2013-10-27T09:19:45Z</time>
      </trkpt>
      <trkpt lat="59.4446602" lon="17.7927947">
        <ele>13.8</ele>
        <time>2013-10-27T09:19:52Z</time>
      </trkpt>
      <trkpt lat="59.4446528" lon="17.7928091">
        <ele>13.8</ele>
        <time>2013-10-27T09:19:53Z</time>
      </trkpt>
      <trkpt lat="59.444616" lon="17.7929036">
        <ele>14.4</ele>
        <time>2013-10-27T09:20:00Z</time>
      </trkpt>
      <trkpt lat="59.4446289" lon="17.7929369">
        <ele>15.2</ele>
        <time>2013-10-27T09:20:02Z</time>
      </trkpt>
      <trkpt lat="59.4446342" lon="17.7930201">
        <ele>16.6</ele>
        <time>2013-10-27T09:20:06Z</time>
      </trkpt>
      <trkpt lat="59.444621" lon="17.793176">
        <ele>17.6</ele>
        <time>2013-10-27T09:20:13Z</time>
      </trkpt>
      <trkpt lat="59.4446467" lon="17.7933816">
        <ele>17.2</ele>
        <time>2013-10-27T09:20:21Z</time>
      </trkpt>
      <trkpt lat="59.4446451" lon="17.7934601">
        <ele>17.2</ele>
        <time>2013-10-27T09:20:25Z</time>
      </trkpt>
      <trkpt lat="59.4446668" lon="17.7935154">
        <ele>17.8</ele>
        <time>2013-10-27T09:20:28Z</time>
      </trkpt>
      <trkpt lat="59.4446807" lon="17.7935475">
        <ele>18</ele>
        <time>2013-10-27T09:20:30Z</time>
      </trkpt>
      <trkpt lat="59.4447161" lon="17.7936637">
        <ele>20.6</ele>
        <time>2013-10-27T09:20:35Z</time>
      </trkpt>
      <trkpt lat="59.4447206" lon="17.793778">
        <ele>22</ele>
        <time>2013-10-27T09:20:39Z</time>
      </trkpt>
      <trkpt lat="59.4447063" lon="17.7938153">
        <ele>23.2</ele>
        <time>2013-10-27T09:20:41Z</time>
      </trkpt>
      <trkpt lat="59.4446948" lon="17.7938597">
        <ele>24.4</ele>
        <time>2013-10-27T09:20:43Z</time>
      </trkpt>
      <trkpt lat="59.4446383" lon="17.7940149">
        <ele>25.6</ele>
        <time>2013-10-27T09:20:48Z</time>
      </trkpt>
      <trkpt lat="59.4445697" lon="17.7942181">
        <ele>25.6</ele>
        <time>2013-10-27T09:20:55Z</time>
      </trkpt>
      <trkpt lat="59.444526" lon="17.7943487">
        <ele>25.2</ele>
        <time>2013-10-27T09:21:00Z</time>
      </trkpt>
      <trkpt lat="59.4445063" lon="17.7944009">
        <ele>25.2</ele>
        <time>2013-10-27T09:21:02Z</time>
      </trkpt>
      <trkpt lat="59.4444771" lon="17.794437">
        <ele>25</ele>
        <time>2013-10-27T09:21:04Z</time>
      </trkpt>
      <trkpt lat="59.4444284" lon="17.794515">
        <ele>25</ele>
        <time>2013-10-27T09:21:09Z</time>
      </trkpt>
      <trkpt lat="59.4443522" lon="17.7946006">
        <ele>27.2</ele>
        <time>2013-10-27T09:21:16Z</time>
      </trkpt>
      <trkpt lat="59.4443379" lon="17.7945853">
        <ele>27.4</ele>
        <time>2013-10-27T09:21:17Z</time>
      </trkpt>
      <trkpt lat="59.4443208" lon="17.79469">
        <ele>29.2</ele>
        <time>2013-10-27T09:21:23Z</time>
      </trkpt>
      <trkpt lat="59.4443088" lon="17.7948984">
        <ele>30</ele>
        <time>2013-10-27T09:21:30Z</time>
      </trkpt>
      <trkpt lat="59.4442957" lon="17.7949855">
        <ele>30.6</ele>
        <time>2013-10-27T09:21:34Z</time>
      </trkpt>
      <trkpt lat="59.4442991" lon="17.7950517">
        <ele>31.4</ele>
        <time>2013-10-27T09:21:37Z</time>
      </trkpt>
      <trkpt lat="59.4442876" lon="17.7952108">
        <ele>34.6</ele>
        <time>2013-10-27T09:21:44Z</time>
      </trkpt>
      <trkpt lat="59.4442255" lon="17.7954008">
        <ele>36.6</ele>
        <time>2013-10-27T09:21:52Z</time>
      </trkpt>
      <trkpt lat="59.444212" lon="17.795438">
        <ele>37.4</ele>
        <time>2013-10-27T09:21:54Z</time>
      </trkpt>
      <trkpt lat="59.4441816" lon="17.7954984">
        <ele>39.2</ele>
        <time>2013-10-27T09:21:58Z</time>
      </trkpt>
      <trkpt lat="59.4441712" lon="17.7955282">
        <ele>39.8</ele>
        <time>2013-10-27T09:21:59Z</time>
      </trkpt>
      <trkpt lat="59.4441249" lon="17.7956729">
        <ele>41.6</ele>
        <time>2013-10-27T09:22:05Z</time>
      </trkpt>
      <trkpt lat="59.4441283" lon="17.7957022">
        <ele>41.6</ele>
        <time>2013-10-27T09:22:06Z</time>
      </trkpt>
      <trkpt lat="59.4441177" lon="17.7958138">
        <ele>42.4</ele>
        <time>2013-10-27T09:22:10Z</time>
      </trkpt>
      <trkpt lat="59.4440768" lon="17.7959184">
        <ele>42.6</ele>
        <time>2013-10-27T09:22:16Z</time>
      </trkpt>
      <trkpt lat="59.4440684" lon="17.795945">
        <ele>42.6</ele>
        <time>2013-10-27T09:22:18Z</time>
      </trkpt>
      <trkpt lat="59.444062" lon="17.7959562">
        <ele>42.6</ele>
        <time>2013-10-27T09:22:19Z</time>
      </trkpt>
      <trkpt lat="59.4440296" lon="17.7959603">
        <ele>42.6</ele>
        <time>2013-10-27T09:22:21Z</time>
      </trkpt>
      <trkpt lat="59.4439453" lon="17.7958972">
        <ele>42.2</ele>
        <time>2013-10-27T09:22:27Z</time>
      </trkpt>
      <trkpt lat="59.4439313" lon="17.7959033">
        <ele>42.2</ele>
        <time>2013-10-27T09:22:28Z</time>
      </trkpt>
      <trkpt lat="59.4439131" lon="17.7959284">
        <ele>42.2</ele>
        <time>2013-10-27T09:22:32Z</time>
      </trkpt>
      <trkpt lat="59.4438946" lon="17.7959473">
        <ele>42.2</ele>
        <time>2013-10-27T09:22:34Z</time>
      </trkpt>
      <trkpt lat="59.4438855" lon="17.7959477">
        <ele>42.2</ele>
        <time>2013-10-27T09:22:35Z</time>
      </trkpt>
      <trkpt lat="59.4438415" lon="17.7959495">
        <ele>42</ele>
        <time>2013-10-27T09:22:39Z</time>
      </trkpt>
      <trkpt lat="59.4438224" lon="17.7959594">
        <ele>42</ele>
        <time>2013-10-27T09:22:40Z</time>
      </trkpt>
      <trkpt lat="59.443797" lon="17.7959638">
        <ele>42</ele>
        <time>2013-10-27T09:22:43Z</time>
      </trkpt>
      <trkpt lat="59.443769" lon="17.7959923">
        <ele>42</ele>
        <time>2013-10-27T09:22:47Z</time>
      </trkpt>
      <trkpt lat="59.4437543" lon="17.7959963">
        <ele>42</ele>
        <time>2013-10-27T09:22:48Z</time>
      </trkpt>
      <trkpt lat="59.4436648" lon="17.796033">
        <ele>41.6</ele>
        <time>2013-10-27T09:22:56Z</time>
      </trkpt>
      <trkpt lat="59.4436488" lon="17.7960617">
        <ele>41.4</ele>
        <time>2013-10-27T09:22:58Z</time>
      </trkpt>
      <trkpt lat="59.4436348" lon="17.796033">
        <ele>41.4</ele>
        <time>2013-10-27T09:22:59Z</time>
      </trkpt>
      <trkpt lat="59.4436044" lon="17.7960426">
        <ele>41</ele>
        <time>2013-10-27T09:23:03Z</time>
      </trkpt>
      <trkpt lat="59.4435225" lon="17.7960659">
        <ele>39.6</ele>
        <time>2013-10-27T09:23:18Z</time>
      </trkpt>
      <trkpt lat="59.4434915" lon="17.7960611">
        <ele>39</ele>
        <time>2013-10-27T09:23:23Z</time>
      </trkpt>
      <trkpt lat="59.4434578" lon="17.7960795">
        <ele>38.4</ele>
        <time>2013-10-27T09:23:27Z</time>
      </trkpt>
      <trkpt lat="59.443438" lon="17.7961023">
        <ele>38</ele>
        <time>2013-10-27T09:23:29Z</time>
      </trkpt>
      <trkpt lat="59.4434085" lon="17.7961547">
        <ele>37.4</ele>
        <time>2013-10-27T09:23:32Z</time>
      </trkpt>
      <trkpt lat="59.4433347" lon="17.7961322">
        <ele>36.8</ele>
        <time>2013-10-27T09:23:37Z</time>
      </trkpt>
      <trkpt lat="59.4433064" lon="17.7961402">
        <ele>36.4</ele>
        <time>2013-10-27T09:23:39Z</time>
      </trkpt>
      <trkpt lat="59.4432815" lon="17.7961338">
        <ele>36</ele>
        <time>2013-10-27T09:23:43Z</time>
      </trkpt>
      <trkpt lat="59.4432495" lon="17.7962134">
        <ele>35.6</ele>
        <time>2013-10-27T09:23:47Z</time>
      </trkpt>
      <trkpt lat="59.4432473" lon="17.796223">
        <ele>35.4</ele>
        <time>2013-10-27T09:23:48Z</time>
      </trkpt>
      <trkpt lat="59.4432053" lon="17.7961756">
        <ele>35</ele>
        <time>2013-10-27T09:23:52Z</time>
      </trkpt>
      <trkpt lat="59.4431974" lon="17.7961558">
        <ele>34.8</ele>
        <time>2013-10-27T09:23:53Z</time>
      </trkpt>
      <trkpt lat="59.4431397" lon="17.7961101">
        <ele>34.4</ele>
        <time>2013-10-27T09:23:57Z</time>
      </trkpt>
      <trkpt lat="59.4431226" lon="17.7960733">
        <ele>33.8</ele>
        <time>2013-10-27T09:24:01Z</time>
      </trkpt>
      <trkpt lat="59.4431016" lon="17.79605">
        <ele>33.2</ele>
        <time>2013-10-27T09:24:06Z</time>
      </trkpt>
      <trkpt lat="59.4430454" lon="17.7959976">
        <ele>32.8</ele>
        <time>2013-10-27T09:24:13Z</time>
      </trkpt>
      <trkpt lat="59.4430182" lon="17.7959697">
        <ele>32.4</ele>
        <time>2013-10-27T09:24:17Z</time>
      </trkpt>
      <trkpt lat="59.4429975" lon="17.7959656">
        <ele>32.2</ele>
        <time>2013-10-27T09:24:20Z</time>
      </trkpt>
      <trkpt lat="59.4429881" lon="17.7959434">
        <ele>32.2</ele>
        <time>2013-10-27T09:24:22Z</time>
      </trkpt>
      <trkpt lat="59.4429398" lon="17.7958269">
        <ele>33.2</ele>
        <time>2013-10-27T09:24:36Z</time>
      </trkpt>
      <trkpt lat="59.4428818" lon="17.7958096">
        <ele>33.2</ele>
        <time>2013-10-27T09:24:41Z</time>
      </trkpt>
      <trkpt lat="59.4428268" lon="17.7958022">
        <ele>33</ele>
        <time>2013-10-27T09:24:46Z</time>
      </trkpt>
      <trkpt lat="59.4428245" lon="17.7958248">
        <ele>33</ele>
        <time>2013-10-27T09:24:48Z</time>
      </trkpt>
      <trkpt lat="59.4427879" lon="17.7958485">
        <ele>33</ele>
        <time>2013-10-27T09:24:51Z</time>
      </trkpt>
      <trkpt lat="59.4427724" lon="17.7958493">
        <ele>33</ele>
        <time>2013-10-27T09:24:52Z</time>
      </trkpt>
      <trkpt lat="59.442762" lon="17.795849">
        <ele>32.8</ele>
        <time>2013-10-27T09:24:53Z</time>
      </trkpt>
      <trkpt lat="59.4427435" lon="17.795808">
        <ele>32.6</ele>
        <time>2013-10-27T09:24:57Z</time>
      </trkpt>
      <trkpt lat="59.4427289" lon="17.7957966">
        <ele>32.8</ele>
        <time>2013-10-27T09:24:58Z</time>
      </trkpt>
      <trkpt lat="59.4426995" lon="17.7957579">
        <ele>32.6</ele>
        <time>2013-10-27T09:25:01Z</time>
      </trkpt>
      <trkpt lat="59.4426624" lon="17.7957375">
        <ele>32.4</ele>
        <time>2013-10-27T09:25:06Z</time>
      </trkpt>
      <trkpt lat="59.4426533" lon="17.7957478">
        <ele>32.4</ele>
        <time>2013-10-27T09:25:07Z</time>
      </trkpt>
      <trkpt lat="59.4426393" lon="17.7957725">
        <ele>32.4</ele>
        <time>2013-10-27T09:25:10Z</time>
      </trkpt>
      <trkpt lat="59.4426284" lon="17.7957747">
        <ele>32.2</ele>
        <time>2013-10-27T09:25:11Z</time>
      </trkpt>
      <trkpt lat="59.4426217" lon="17.7957739">
        <ele>32.2</ele>
        <time>2013-10-27T09:25:12Z</time>
      </trkpt>
      <trkpt lat="59.4425941" lon="17.7958017">
        <ele>32.2</ele>
        <time>2013-10-27T09:25:16Z</time>
      </trkpt>
      <trkpt lat="59.4425652" lon="17.7957816">
        <ele>32.2</ele>
        <time>2013-10-27T09:25:19Z</time>
      </trkpt>
      <trkpt lat="59.4425477" lon="17.7958216">
        <ele>32.4</ele>
        <time>2013-10-27T09:25:21Z</time>
      </trkpt>
      <trkpt lat="59.4425218" lon="17.7958697">
        <ele>32.2</ele>
        <time>2013-10-27T09:25:24Z</time>
      </trkpt>
      <trkpt lat="59.4424983" lon="17.7958799">
        <ele>32.6</ele>
        <time>2013-10-27T09:25:26Z</time>
      </trkpt>
      <trkpt lat="59.4424601" lon="17.7958624">
        <ele>32.4</ele>
        <time>2013-10-27T09:25:29Z</time>
      </trkpt>
      <trkpt lat="59.4423398" lon="17.7957979">
        <ele>32.2</ele>
        <time>2013-10-27T09:25:36Z</time>
      </trkpt>
      <trkpt lat="59.4422385" lon="17.7957962">
        <ele>31.8</ele>
        <time>2013-10-27T09:25:42Z</time>
      </trkpt>
      <trkpt lat="59.4422155" lon="17.7957853">
        <ele>31.8</ele>
        <time>2013-10-27T09:25:44Z</time>
      </trkpt>
      <trkpt lat="59.4421584" lon="17.7957918">
        <ele>31.6</ele>
        <time>2013-10-27T09:25:48Z</time>
      </trkpt>
      <trkpt lat="59.4421268" lon="17.7958026">
        <ele>31.6</ele>
        <time>2013-10-27T09:25:50Z</time>
      </trkpt>
      <trkpt lat="59.4421135" lon="17.795793">
        <ele>31.6</ele>
        <time>2013-10-27T09:25:51Z</time>
      </trkpt>
      <trkpt lat="59.4420599" lon="17.7957587">
        <ele>31.6</ele>
        <time>2013-10-27T09:25:55Z</time>
      </trkpt>
      <trkpt lat="59.441995" lon="17.7956863">
        <ele>31.4</ele>
        <time>2013-10-27T09:26:00Z</time>
      </trkpt>
      <trkpt lat="59.4419468" lon="17.7956301">
        <ele>31.2</ele>
        <time>2013-10-27T09:26:05Z</time>
      </trkpt>
      <trkpt lat="59.4419116" lon="17.7956041">
        <ele>31.2</ele>
        <time>2013-10-27T09:26:07Z</time>
      </trkpt>
      <trkpt lat="59.4418113" lon="17.7955594">
        <ele>31</ele>
        <time>2013-10-27T09:26:14Z</time>
      </trkpt>
      <trkpt lat="59.4417218" lon="17.7955763">
        <ele>30.8</ele>
        <time>2013-10-27T09:26:20Z</time>
      </trkpt>
      <trkpt lat="59.4416839" lon="17.7955894">
        <ele>30.6</ele>
        <time>2013-10-27T09:26:23Z</time>
      </trkpt>
      <trkpt lat="59.441647" lon="17.795587">
        <ele>30.4</ele>
        <time>2013-10-27T09:26:25Z</time>
      </trkpt>
      <trkpt lat="59.4415501" lon="17.7955568">
        <ele>30.2</ele>
        <time>2013-10-27T09:26:30Z</time>
      </trkpt>
      <trkpt lat="59.4415406" lon="17.7955454">
        <ele>30</ele>
        <time>2013-10-27T09:26:31Z</time>
      </trkpt>
      <trkpt lat="59.4415172" lon="17.7955223">
        <ele>30</ele>
        <time>2013-10-27T09:26:33Z</time>
      </trkpt>
      <trkpt lat="59.441466" lon="17.7954973">
        <ele>29.8</ele>
        <time>2013-10-27T09:26:36Z</time>
      </trkpt>
      <trkpt lat="59.441427" lon="17.7954915">
        <ele>29.6</ele>
        <time>2013-10-27T09:26:38Z</time>
      </trkpt>
      <trkpt lat="59.4413508" lon="17.7954477">
        <ele>29.6</ele>
        <time>2013-10-27T09:26:43Z</time>
      </trkpt>
      <trkpt lat="59.4412875" lon="17.7954668">
        <ele>29.4</ele>
        <time>2013-10-27T09:26:47Z</time>
      </trkpt>
      <trkpt lat="59.4412574" lon="17.7954558">
        <ele>29.4</ele>
        <time>2013-10-27T09:26:49Z</time>
      </trkpt>
      <trkpt lat="59.4411936" lon="17.795463">
        <ele>29.2</ele>
        <time>2013-10-27T09:26:52Z</time>
      </trkpt>
      <trkpt lat="59.4411546" lon="17.7954279">
        <ele>29.2</ele>
        <time>2013-10-27T09:26:55Z</time>
      </trkpt>
      <trkpt lat="59.4410625" lon="17.7954328">
        <ele>29</ele>
        <time>2013-10-27T09:27:00Z</time>
      </trkpt>
      <trkpt lat="59.4409702" lon="17.7954014">
        <ele>29.2</ele>
        <time>2013-10-27T09:27:07Z</time>
      </trkpt>
      <trkpt lat="59.4408928" lon="17.7954097">
        <ele>29.2</ele>
        <time>2013-10-27T09:27:12Z</time>
      </trkpt>
      <trkpt lat="59.4408759" lon="17.7954042">
        <ele>29.2</ele>
        <time>2013-10-27T09:27:13Z</time>
      </trkpt>
      <trkpt lat="59.4407736" lon="17.795404">
        <ele>28.8</ele>
        <time>2013-10-27T09:27:19Z</time>
      </trkpt>
      <trkpt lat="59.4407168" lon="17.7953961">
        <ele>28.6</ele>
        <time>2013-10-27T09:27:22Z</time>
      </trkpt>
      <trkpt lat="59.4406693" lon="17.7954115">
        <ele>28.4</ele>
        <time>2013-10-27T09:27:25Z</time>
      </trkpt>
      <trkpt lat="59.440642" lon="17.7954272">
        <ele>28.4</ele>
        <time>2013-10-27T09:27:27Z</time>
      </trkpt>
      <trkpt lat="59.4406089" lon="17.7954391">
        <ele>28.4</ele>
        <time>2013-10-27T09:27:29Z</time>
      </trkpt>
      <trkpt lat="59.4405889" lon="17.7954366">
        <ele>28.2</ele>
        <time>2013-10-27T09:27:30Z</time>
      </trkpt>
      <trkpt lat="59.4405419" lon="17.7954295">
        <ele>28</ele>
        <time>2013-10-27T09:27:33Z</time>
      </trkpt>
      <trkpt lat="59.4404754" lon="17.7954475">
        <ele>27.6</ele>
        <time>2013-10-27T09:27:37Z</time>
      </trkpt>
      <trkpt lat="59.4404416" lon="17.7955012">
        <ele>27.4</ele>
        <time>2013-10-27T09:27:40Z</time>
      </trkpt>
      <trkpt lat="59.4404112" lon="17.7955261">
        <ele>27</ele>
        <time>2013-10-27T09:27:42Z</time>
      </trkpt>
      <trkpt lat="59.4403324" lon="17.795544">
        <ele>26.4</ele>
        <time>2013-10-27T09:27:48Z</time>
      </trkpt>
      <trkpt lat="59.4403129" lon="17.7955436">
        <ele>26.4</ele>
        <time>2013-10-27T09:27:49Z</time>
      </trkpt>
      <trkpt lat="59.4402633" lon="17.7955066">
        <ele>26.2</ele>
        <time>2013-10-27T09:27:52Z</time>
      </trkpt>
      <trkpt lat="59.440251" lon="17.7955069">
        <ele>26.2</ele>
        <time>2013-10-27T09:27:53Z</time>
      </trkpt>
      <trkpt lat="59.4401943" lon="17.7955214">
        <ele>26</ele>
        <time>2013-10-27T09:27:57Z</time>
      </trkpt>
      <trkpt lat="59.440143" lon="17.7955413">
        <ele>25.8</ele>
        <time>2013-10-27T09:28:00Z</time>
      </trkpt>
      <trkpt lat="59.440122" lon="17.7955407">
        <ele>25.8</ele>
        <time>2013-10-27T09:28:01Z</time>
      </trkpt>
      <trkpt lat="59.4400538" lon="17.7955582">
        <ele>25.8</ele>
        <time>2013-10-27T09:28:05Z</time>
      </trkpt>
      <trkpt lat="59.4400121" lon="17.7956029">
        <ele>25.8</ele>
        <time>2013-10-27T09:28:08Z</time>
      </trkpt>
      <trkpt lat="59.4399844" lon="17.7956164">
        <ele>25.8</ele>
        <time>2013-10-27T09:28:10Z</time>
      </trkpt>
      <trkpt lat="59.4399342" lon="17.7956454">
        <ele>25.6</ele>
        <time>2013-10-27T09:28:13Z</time>
      </trkpt>
      <trkpt lat="59.4398784" lon="17.7956384">
        <ele>25.4</ele>
        <time>2013-10-27T09:28:16Z</time>
      </trkpt>
      <trkpt lat="59.4398329" lon="17.7956144">
        <ele>25.4</ele>
        <time>2013-10-27T09:28:19Z</time>
      </trkpt>
      <trkpt lat="59.4397696" lon="17.7955423">
        <ele>25.2</ele>
        <time>2013-10-27T09:28:23Z</time>
      </trkpt>
      <trkpt lat="59.4397381" lon="17.7954937">
        <ele>25.2</ele>
        <time>2013-10-27T09:28:25Z</time>
      </trkpt>
      <trkpt lat="59.439628" lon="17.7954066">
        <ele>24.8</ele>
        <time>2013-10-27T09:28:32Z</time>
      </trkpt>
      <trkpt lat="59.4396183" lon="17.7953911">
        <ele>24.8</ele>
        <time>2013-10-27T09:28:33Z</time>
      </trkpt>
      <trkpt lat="59.4395705" lon="17.7952905">
        <ele>24.6</ele>
        <time>2013-10-27T09:28:38Z</time>
      </trkpt>
      <trkpt lat="59.4395415" lon="17.7952693">
        <ele>24.6</ele>
        <time>2013-10-27T09:28:40Z</time>
      </trkpt>
      <trkpt lat="59.4395053" lon="17.795222">
        <ele>24.2</ele>
        <time>2013-10-27T09:28:43Z</time>
      </trkpt>
      <trkpt lat="59.4394799" lon="17.7951877">
        <ele>23.8</ele>
        <time>2013-10-27T09:28:45Z</time>
      </trkpt>
      <trkpt lat="59.4394457" lon="17.7951806">
        <ele>23.8</ele>
        <time>2013-10-27T09:28:48Z</time>
      </trkpt>
      <trkpt lat="59.439393" lon="17.7952125">
        <ele>23.4</ele>
        <time>2013-10-27T09:28:53Z</time>
      </trkpt>
      <trkpt lat="59.4393824" lon="17.7952223">
        <ele>23.4</ele>
        <time>2013-10-27T09:28:54Z</time>
      </trkpt>
      <trkpt lat="59.4393359" lon="17.7952408">
        <ele>23.2</ele>
        <time>2013-10-27T09:28:59Z</time>
      </trkpt>
      <trkpt lat="59.439323" lon="17.7952579">
        <ele>23.2</ele>
        <time>2013-10-27T09:29:00Z</time>
      </trkpt>
      <trkpt lat="59.4392596" lon="17.7952478">
        <ele>24</ele>
        <time>2013-10-27T09:29:04Z</time>
      </trkpt>
      <trkpt lat="59.4392458" lon="17.7952326">
        <ele>24.2</ele>
        <time>2013-10-27T09:29:05Z</time>
      </trkpt>
      <trkpt lat="59.4392338" lon="17.7952326">
        <ele>24.6</ele>
        <time>2013-10-27T09:29:06Z</time>
      </trkpt>
      <trkpt lat="59.4392064" lon="17.795223">
        <ele>25</ele>
        <time>2013-10-27T09:29:08Z</time>
      </trkpt>
      <trkpt lat="59.4391851" lon="17.7952238">
        <ele>25.6</ele>
        <time>2013-10-27T09:29:10Z</time>
      </trkpt>
      <trkpt lat="59.4391334" lon="17.7951823">
        <ele>27</ele>
        <time>2013-10-27T09:29:14Z</time>
      </trkpt>
      <trkpt lat="59.4391272" lon="17.7951567">
        <ele>27.6</ele>
        <time>2013-10-27T09:29:15Z</time>
      </trkpt>
      <trkpt lat="59.4390309" lon="17.7951518">
        <ele>30</ele>
        <time>2013-10-27T09:29:21Z</time>
      </trkpt>
      <trkpt lat="59.4389498" lon="17.7951096">
        <ele>29.8</ele>
        <time>2013-10-27T09:29:26Z</time>
      </trkpt>
      <trkpt lat="59.4389077" lon="17.7950374">
        <ele>30.8</ele>
        <time>2013-10-27T09:29:30Z</time>
      </trkpt>
      <trkpt lat="59.4388809" lon="17.7950019">
        <ele>31</ele>
        <time>2013-10-27T09:29:32Z</time>
      </trkpt>
      <trkpt lat="59.4388595" lon="17.7949934">
        <ele>31</ele>
        <time>2013-10-27T09:29:34Z</time>
      </trkpt>
      <trkpt lat="59.43879" lon="17.7949227">
        <ele>30.8</ele>
        <time>2013-10-27T09:29:39Z</time>
      </trkpt>
      <trkpt lat="59.4387465" lon="17.794897">
        <ele>30.6</ele>
        <time>2013-10-27T09:29:42Z</time>
      </trkpt>
      <trkpt lat="59.4387059" lon="17.7948779">
        <ele>30.4</ele>
        <time>2013-10-27T09:29:44Z</time>
      </trkpt>
      <trkpt lat="59.4386933" lon="17.7948587">
        <ele>30.2</ele>
        <time>2013-10-27T09:29:45Z</time>
      </trkpt>
      <trkpt lat="59.4386408" lon="17.7948053">
        <ele>29.8</ele>
        <time>2013-10-27T09:29:49Z</time>
      </trkpt>
      <trkpt lat="59.4385915" lon="17.7947772">
        <ele>29.6</ele>
        <time>2013-10-27T09:29:52Z</time>
      </trkpt>
      <trkpt lat="59.4385672" lon="17.7947462">
        <ele>29.2</ele>
        <time>2013-10-27T09:29:54Z</time>
      </trkpt>
      <trkpt lat="59.4385544" lon="17.7947256">
        <ele>29</ele>
        <time>2013-10-27T09:29:55Z</time>
      </trkpt>
      <trkpt lat="59.4384789" lon="17.7946716">
        <ele>28.2</ele>
        <time>2013-10-27T09:30:00Z</time>
      </trkpt>
      <trkpt lat="59.4384639" lon="17.7946405">
        <ele>27.8</ele>
        <time>2013-10-27T09:30:02Z</time>
      </trkpt>
      <trkpt lat="59.4384355" lon="17.794612">
        <ele>27.4</ele>
        <time>2013-10-27T09:30:04Z</time>
      </trkpt>
      <trkpt lat="59.4383709" lon="17.7945866">
        <ele>26.4</ele>
        <time>2013-10-27T09:30:08Z</time>
      </trkpt>
      <trkpt lat="59.4382816" lon="17.7944395">
        <ele>26.2</ele>
        <time>2013-10-27T09:30:13Z</time>
      </trkpt>
      <trkpt lat="59.4381898" lon="17.7943544">
        <ele>26.4</ele>
        <time>2013-10-27T09:30:19Z</time>
      </trkpt>
      <trkpt lat="59.438127" lon="17.7943369">
        <ele>27.4</ele>
        <time>2013-10-27T09:30:24Z</time>
      </trkpt>
      <trkpt lat="59.4381147" lon="17.7943371">
        <ele>27.6</ele>
        <time>2013-10-27T09:30:25Z</time>
      </trkpt>
      <trkpt lat="59.4380586" lon="17.7942917">
        <ele>29</ele>
        <time>2013-10-27T09:30:30Z</time>
      </trkpt>
      <trkpt lat="59.4380418" lon="17.7942651">
        <ele>29.8</ele>
        <time>2013-10-27T09:30:32Z</time>
      </trkpt>
      <trkpt lat="59.4379688" lon="17.7942357">
        <ele>32</ele>
        <time>2013-10-27T09:30:38Z</time>
      </trkpt>
      <trkpt lat="59.4378622" lon="17.7942195">
        <ele>34</ele>
        <time>2013-10-27T09:30:43Z</time>
      </trkpt>
      <trkpt lat="59.4378446" lon="17.7942213">
        <ele>33.6</ele>
        <time>2013-10-27T09:30:44Z</time>
      </trkpt>
      <trkpt lat="59.437752" lon="17.7942841">
        <ele>34</ele>
        <time>2013-10-27T09:30:49Z</time>
      </trkpt>
      <trkpt lat="59.437725" lon="17.7943045">
        <ele>34</ele>
        <time>2013-10-27T09:30:51Z</time>
      </trkpt>
      <trkpt lat="59.4376589" lon="17.7942761">
        <ele>34.2</ele>
        <time>2013-10-27T09:30:55Z</time>
      </trkpt>
      <trkpt lat="59.4375954" lon="17.7942631">
        <ele>34</ele>
        <time>2013-10-27T09:31:00Z</time>
      </trkpt>
      <trkpt lat="59.4375574" lon="17.7942098">
        <ele>34</ele>
        <time>2013-10-27T09:31:04Z</time>
      </trkpt>
      <trkpt lat="59.4375386" lon="17.7942007">
        <ele>34</ele>
        <time>2013-10-27T09:31:06Z</time>
      </trkpt>
      <trkpt lat="59.437482" lon="17.7941919">
        <ele>34.2</ele>
        <time>2013-10-27T09:31:11Z</time>
      </trkpt>
      <trkpt lat="59.4374613" lon="17.794176">
        <ele>34.2</ele>
        <time>2013-10-27T09:31:13Z</time>
      </trkpt>
      <trkpt lat="59.4374319" lon="17.7941453">
        <ele>34.4</ele>
        <time>2013-10-27T09:31:16Z</time>
      </trkpt>
      <trkpt lat="59.4373532" lon="17.7941002">
        <ele>35</ele>
        <time>2013-10-27T09:31:21Z</time>
      </trkpt>
      <trkpt lat="59.4373224" lon="17.7940463">
        <ele>35</ele>
        <time>2013-10-27T09:31:25Z</time>
      </trkpt>
      <trkpt lat="59.4373204" lon="17.7940146">
        <ele>35</ele>
        <time>2013-10-27T09:31:26Z</time>
      </trkpt>
      <trkpt lat="59.437328" lon="17.7938793">
        <ele>35</ele>
        <time>2013-10-27T09:31:31Z</time>
      </trkpt>
      <trkpt lat="59.4373247" lon="17.7938573">
        <ele>35</ele>
        <time>2013-10-27T09:31:32Z</time>
      </trkpt>
      <trkpt lat="59.4373173" lon="17.7938391">
        <ele>35</ele>
        <time>2013-10-27T09:31:33Z</time>
      </trkpt>
      <trkpt lat="59.4372973" lon="17.7937182">
        <ele>34.8</ele>
        <time>2013-10-27T09:31:38Z</time>
      </trkpt>
      <trkpt lat="59.4372722" lon="17.7936242">
        <ele>34.8</ele>
        <time>2013-10-27T09:31:41Z</time>
      </trkpt>
      <trkpt lat="59.4372471" lon="17.7935629">
        <ele>34.8</ele>
        <time>2013-10-27T09:31:43Z</time>
      </trkpt>
      <trkpt lat="59.4371824" lon="17.7934739">
        <ele>34.6</ele>
        <time>2013-10-27T09:31:48Z</time>
      </trkpt>
      <trkpt lat="59.4371066" lon="17.7933313">
        <ele>34.6</ele>
        <time>2013-10-27T09:31:55Z</time>
      </trkpt>
      <trkpt lat="59.4370356" lon="17.793197">
        <ele>34.4</ele>
        <time>2013-10-27T09:32:01Z</time>
      </trkpt>
      <trkpt lat="59.4370039" lon="17.7931733">
        <ele>34.2</ele>
        <time>2013-10-27T09:32:03Z</time>
      </trkpt>
      <trkpt lat="59.4369635" lon="17.793106">
        <ele>34.2</ele>
        <time>2013-10-27T09:32:06Z</time>
      </trkpt>
      <trkpt lat="59.4369305" lon="17.7930161">
        <ele>33.8</ele>
        <time>2013-10-27T09:32:10Z</time>
      </trkpt>
      <trkpt lat="59.4369135" lon="17.793">
        <ele>33.8</ele>
        <time>2013-10-27T09:32:11Z</time>
      </trkpt>
      <trkpt lat="59.4368615" lon="17.7929067">
        <ele>33.6</ele>
        <time>2013-10-27T09:32:15Z</time>
      </trkpt>
      <trkpt lat="59.4368092" lon="17.7927879">
        <ele>33.2</ele>
        <time>2013-10-27T09:32:21Z</time>
      </trkpt>
      <trkpt lat="59.436775" lon="17.7926998">
        <ele>33.2</ele>
        <time>2013-10-27T09:32:25Z</time>
      </trkpt>
      <trkpt lat="59.4367647" lon="17.7926812">
        <ele>33</ele>
        <time>2013-10-27T09:32:26Z</time>
      </trkpt>
      <trkpt lat="59.4366872" lon="17.7925629">
        <ele>32.6</ele>
        <time>2013-10-27T09:32:31Z</time>
      </trkpt>
      <trkpt lat="59.4366455" lon="17.7924658">
        <ele>32.4</ele>
        <time>2013-10-27T09:32:36Z</time>
      </trkpt>
      <trkpt lat="59.436637" lon="17.7924389">
        <ele>32.4</ele>
        <time>2013-10-27T09:32:37Z</time>
      </trkpt>
      <trkpt lat="59.4366103" lon="17.7923669">
        <ele>32</ele>
        <time>2013-10-27T09:32:40Z</time>
      </trkpt>
      <trkpt lat="59.4365752" lon="17.792306">
        <ele>31.6</ele>
        <time>2013-10-27T09:32:43Z</time>
      </trkpt>
      <trkpt lat="59.4365568" lon="17.7922536">
        <ele>31.4</ele>
        <time>2013-10-27T09:32:45Z</time>
      </trkpt>
      <trkpt lat="59.4365542" lon="17.7921821">
        <ele>31.2</ele>
        <time>2013-10-27T09:32:48Z</time>
      </trkpt>
      <trkpt lat="59.4365554" lon="17.7921597">
        <ele>31</ele>
        <time>2013-10-27T09:32:49Z</time>
      </trkpt>
      <trkpt lat="59.4365385" lon="17.792064">
        <ele>30.4</ele>
        <time>2013-10-27T09:32:53Z</time>
      </trkpt>
      <trkpt lat="59.4365055" lon="17.7918707">
        <ele>30</ele>
        <time>2013-10-27T09:32:59Z</time>
      </trkpt>
      <trkpt lat="59.4364969" lon="17.7917738">
        <ele>29.6</ele>
        <time>2013-10-27T09:33:03Z</time>
      </trkpt>
      <trkpt lat="59.4364926" lon="17.7917474">
        <ele>29.6</ele>
        <time>2013-10-27T09:33:04Z</time>
      </trkpt>
      <trkpt lat="59.4364859" lon="17.7916895">
        <ele>29.4</ele>
        <time>2013-10-27T09:33:06Z</time>
      </trkpt>
      <trkpt lat="59.4364612" lon="17.7915828">
        <ele>29.4</ele>
        <time>2013-10-27T09:33:10Z</time>
      </trkpt>
      <trkpt lat="59.4364344" lon="17.7914583">
        <ele>29</ele>
        <time>2013-10-27T09:33:15Z</time>
      </trkpt>
      <trkpt lat="59.4364208" lon="17.791406">
        <ele>29</ele>
        <time>2013-10-27T09:33:17Z</time>
      </trkpt>
      <trkpt lat="59.4363692" lon="17.79121">
        <ele>30.2</ele>
        <time>2013-10-27T09:33:22Z</time>
      </trkpt>
      <trkpt lat="59.4363715" lon="17.7911849">
        <ele>30.2</ele>
        <time>2013-10-27T09:33:23Z</time>
      </trkpt>
      <trkpt lat="59.436318" lon="17.791084">
        <ele>30.2</ele>
        <time>2013-10-27T09:33:29Z</time>
      </trkpt>
      <trkpt lat="59.4362958" lon="17.7910436">
        <ele>30.2</ele>
        <time>2013-10-27T09:33:31Z</time>
      </trkpt>
      <trkpt lat="59.4362873" lon="17.7908923">
        <ele>30</ele>
        <time>2013-10-27T09:33:36Z</time>
      </trkpt>
      <trkpt lat="59.4362627" lon="17.790757">
        <ele>30</ele>
        <time>2013-10-27T09:33:41Z</time>
      </trkpt>
      <trkpt lat="59.4362432" lon="17.7907036">
        <ele>30</ele>
        <time>2013-10-27T09:33:45Z</time>
      </trkpt>
      <trkpt lat="59.4362354" lon="17.7907037">
        <ele>30</ele>
        <time>2013-10-27T09:33:46Z</time>
      </trkpt>
      <trkpt lat="59.4362159" lon="17.7906219">
        <ele>30.6</ele>
        <time>2013-10-27T09:33:51Z</time>
      </trkpt>
      <trkpt lat="59.4361885" lon="17.7905988">
        <ele>30.2</ele>
        <time>2013-10-27T09:33:53Z</time>
      </trkpt>
      <trkpt lat="59.4361578" lon="17.7904669">
        <ele>30.2</ele>
        <time>2013-10-27T09:33:58Z</time>
      </trkpt>
      <trkpt lat="59.4361111" lon="17.7903842">
        <ele>30</ele>
        <time>2013-10-27T09:34:03Z</time>
      </trkpt>
      <trkpt lat="59.4360762" lon="17.7903137">
        <ele>30</ele>
        <time>2013-10-27T09:34:07Z</time>
      </trkpt>
      <trkpt lat="59.4360725" lon="17.7902913">
        <ele>30</ele>
        <time>2013-10-27T09:34:08Z</time>
      </trkpt>
      <trkpt lat="59.4360493" lon="17.7901918">
        <ele>29.8</ele>
        <time>2013-10-27T09:34:12Z</time>
      </trkpt>
      <trkpt lat="59.4360372" lon="17.7901321">
        <ele>29.8</ele>
        <time>2013-10-27T09:34:14Z</time>
      </trkpt>
      <trkpt lat="59.4360254" lon="17.7900882">
        <ele>29.8</ele>
        <time>2013-10-27T09:34:16Z</time>
      </trkpt>
      <trkpt lat="59.4360295" lon="17.7900344">
        <ele>29.8</ele>
        <time>2013-10-27T09:34:18Z</time>
      </trkpt>
      <trkpt lat="59.4360302" lon="17.7900163">
        <ele>29.6</ele>
        <time>2013-10-27T09:34:21Z</time>
      </trkpt>
      <trkpt lat="59.4359995" lon="17.7900655">
        <ele>29.2</ele>
        <time>2013-10-27T09:34:33Z</time>
      </trkpt>
      <trkpt lat="59.4359868" lon="17.7900622">
        <ele>29.2</ele>
        <time>2013-10-27T09:34:34Z</time>
      </trkpt>
      <trkpt lat="59.4359101" lon="17.7900634">
        <ele>29</ele>
        <time>2013-10-27T09:34:40Z</time>
      </trkpt>
      <trkpt lat="59.4358834" lon="17.7900782">
        <ele>28.8</ele>
        <time>2013-10-27T09:34:43Z</time>
      </trkpt>
      <trkpt lat="59.4358634" lon="17.7901335">
        <ele>28.6</ele>
        <time>2013-10-27T09:34:47Z</time>
      </trkpt>
      <trkpt lat="59.4358456" lon="17.7901701">
        <ele>28.4</ele>
        <time>2013-10-27T09:34:50Z</time>
      </trkpt>
      <trkpt lat="59.4358282" lon="17.790165">
        <ele>28.4</ele>
        <time>2013-10-27T09:34:51Z</time>
      </trkpt>
      <trkpt lat="59.4357442" lon="17.7901152">
        <ele>28</ele>
        <time>2013-10-27T09:34:57Z</time>
      </trkpt>
      <trkpt lat="59.4357353" lon="17.7900933">
        <ele>28</ele>
        <time>2013-10-27T09:34:58Z</time>
      </trkpt>
      <trkpt lat="59.4357037" lon="17.7899768">
        <ele>27.8</ele>
        <time>2013-10-27T09:35:03Z</time>
      </trkpt>
      <trkpt lat="59.435661" lon="17.7897857">
        <ele>27.4</ele>
        <time>2013-10-27T09:35:10Z</time>
      </trkpt>
      <trkpt lat="59.4356508" lon="17.7897242">
        <ele>27.4</ele>
        <time>2013-10-27T09:35:12Z</time>
      </trkpt>
      <trkpt lat="59.4356317" lon="17.7896267">
        <ele>27.2</ele>
        <time>2013-10-27T09:35:15Z</time>
      </trkpt>
      <trkpt lat="59.4355801" lon="17.7894561">
        <ele>26.8</ele>
        <time>2013-10-27T09:35:21Z</time>
      </trkpt>
      <trkpt lat="59.4355378" lon="17.7893772">
        <ele>26.6</ele>
        <time>2013-10-27T09:35:25Z</time>
      </trkpt>
      <trkpt lat="59.4355173" lon="17.7893519">
        <ele>26.6</ele>
        <time>2013-10-27T09:35:27Z</time>
      </trkpt>
      <trkpt lat="59.435439" lon="17.7893489">
        <ele>26.4</ele>
        <time>2013-10-27T09:35:33Z</time>
      </trkpt>
      <trkpt lat="59.435339" lon="17.7893568">
        <ele>26.4</ele>
        <time>2013-10-27T09:35:40Z</time>
      </trkpt>
      <trkpt lat="59.4352028" lon="17.7893775">
        <ele>26.4</ele>
        <time>2013-10-27T09:35:48Z</time>
      </trkpt>
      <trkpt lat="59.4350811" lon="17.7893815">
        <ele>26.2</ele>
        <time>2013-10-27T09:35:55Z</time>
      </trkpt>
      <trkpt lat="59.434995" lon="17.7893031">
        <ele>26</ele>
        <time>2013-10-27T09:36:01Z</time>
      </trkpt>
      <trkpt lat="59.4349679" lon="17.7891202">
        <ele>25.6</ele>
        <time>2013-10-27T09:36:06Z</time>
      </trkpt>
      <trkpt lat="59.4349626" lon="17.7890928">
        <ele>25.6</ele>
        <time>2013-10-27T09:36:07Z</time>
      </trkpt>
      <trkpt lat="59.4349479" lon="17.7888887">
        <ele>25</ele>
        <time>2013-10-27T09:36:13Z</time>
      </trkpt>
      <trkpt lat="59.4349374" lon="17.7888525">
        <ele>24.8</ele>
        <time>2013-10-27T09:36:15Z</time>
      </trkpt>
      <trkpt lat="59.4349274" lon="17.7887582">
        <ele>24.6</ele>
        <time>2013-10-27T09:36:18Z</time>
      </trkpt>
      <trkpt lat="59.434901" lon="17.7885459">
        <ele>24</ele>
        <time>2013-10-27T09:36:25Z</time>
      </trkpt>
      <trkpt lat="59.4348985" lon="17.7884213">
        <ele>23.8</ele>
        <time>2013-10-27T09:36:29Z</time>
      </trkpt>
      <trkpt lat="59.4348787" lon="17.7881976">
        <ele>23.4</ele>
        <time>2013-10-27T09:36:36Z</time>
      </trkpt>
      <trkpt lat="59.4348707" lon="17.7880631">
        <ele>23.2</ele>
        <time>2013-10-27T09:36:41Z</time>
      </trkpt>
      <trkpt lat="59.4348633" lon="17.7880068">
        <ele>23.2</ele>
        <time>2013-10-27T09:36:43Z</time>
      </trkpt>
      <trkpt lat="59.4348215" lon="17.7878784">
        <ele>23</ele>
        <time>2013-10-27T09:36:48Z</time>
      </trkpt>
      <trkpt lat="59.4347707" lon="17.787817">
        <ele>22.8</ele>
        <time>2013-10-27T09:36:52Z</time>
      </trkpt>
      <trkpt lat="59.4347308" lon="17.7878082">
        <ele>22.8</ele>
        <time>2013-10-27T09:36:54Z</time>
      </trkpt>
      <trkpt lat="59.4346407" lon="17.7877792">
        <ele>22.6</ele>
        <time>2013-10-27T09:37:00Z</time>
      </trkpt>
      <trkpt lat="59.4345303" lon="17.7877336">
        <ele>22.2</ele>
        <time>2013-10-27T09:37:08Z</time>
      </trkpt>
      <trkpt lat="59.43445" lon="17.7877263">
        <ele>22</ele>
        <time>2013-10-27T09:37:13Z</time>
      </trkpt>
      <trkpt lat="59.4343465" lon="17.7877303">
        <ele>21.6</ele>
        <time>2013-10-27T09:37:20Z</time>
      </trkpt>
      <trkpt lat="59.4342776" lon="17.7877054">
        <ele>21.4</ele>
        <time>2013-10-27T09:37:25Z</time>
      </trkpt>
      <trkpt lat="59.4341966" lon="17.7876517">
        <ele>21.2</ele>
        <time>2013-10-27T09:37:31Z</time>
      </trkpt>
      <trkpt lat="59.4341131" lon="17.7876094">
        <ele>21</ele>
        <time>2013-10-27T09:37:36Z</time>
      </trkpt>
      <trkpt lat="59.4340366" lon="17.7874971">
        <ele>20.8</ele>
        <time>2013-10-27T09:37:42Z</time>
      </trkpt>
      <trkpt lat="59.4339532" lon="17.7873641">
        <ele>20.4</ele>
        <time>2013-10-27T09:37:49Z</time>
      </trkpt>
      <trkpt lat="59.4338971" lon="17.7873">
        <ele>20.2</ele>
        <time>2013-10-27T09:37:53Z</time>
      </trkpt>
      <trkpt lat="59.4338703" lon="17.7872619">
        <ele>20</ele>
        <time>2013-10-27T09:37:55Z</time>
      </trkpt>
      <trkpt lat="59.433833" lon="17.7872067">
        <ele>20</ele>
        <time>2013-10-27T09:37:58Z</time>
      </trkpt>
      <trkpt lat="59.4337733" lon="17.7871384">
        <ele>19.8</ele>
        <time>2013-10-27T09:38:02Z</time>
      </trkpt>
      <trkpt lat="59.4337106" lon="17.7870659">
        <ele>19.6</ele>
        <time>2013-10-27T09:38:06Z</time>
      </trkpt>
      <trkpt lat="59.4336764" lon="17.7870169">
        <ele>19.4</ele>
        <time>2013-10-27T09:38:09Z</time>
      </trkpt>
      <trkpt lat="59.433583" lon="17.7869268">
        <ele>19.2</ele>
        <time>2013-10-27T09:38:15Z</time>
      </trkpt>
      <trkpt lat="59.4334905" lon="17.7868642">
        <ele>18.8</ele>
        <time>2013-10-27T09:38:21Z</time>
      </trkpt>
      <trkpt lat="59.4334721" lon="17.7868563">
        <ele>18.6</ele>
        <time>2013-10-27T09:38:22Z</time>
      </trkpt>
      <trkpt lat="59.4333769" lon="17.7867685">
        <ele>18.2</ele>
        <time>2013-10-27T09:38:29Z</time>
      </trkpt>
      <trkpt lat="59.433267" lon="17.7866112">
        <ele>17.4</ele>
        <time>2013-10-27T09:38:37Z</time>
      </trkpt>
      <trkpt lat="59.4331872" lon="17.7864365">
        <ele>16.8</ele>
        <time>2013-10-27T09:38:44Z</time>
      </trkpt>
      <trkpt lat="59.4331267" lon="17.786279">
        <ele>16.2</ele>
        <time>2013-10-27T09:38:50Z</time>
      </trkpt>
      <trkpt lat="59.4330776" lon="17.7860982">
        <ele>15.4</ele>
        <time>2013-10-27T09:38:57Z</time>
      </trkpt>
      <trkpt lat="59.4330699" lon="17.7860656">
        <ele>15.4</ele>
        <time>2013-10-27T09:38:58Z</time>
      </trkpt>
      <trkpt lat="59.4330314" lon="17.7858163">
        <ele>14.4</ele>
        <time>2013-10-27T09:39:06Z</time>
      </trkpt>
      <trkpt lat="59.4329661" lon="17.7856309">
        <ele>13.4</ele>
        <time>2013-10-27T09:39:13Z</time>
      </trkpt>
      <trkpt lat="59.432864" lon="17.7855504">
        <ele>12.6</ele>
        <time>2013-10-27T09:39:20Z</time>
      </trkpt>
      <trkpt lat="59.4327701" lon="17.7854728">
        <ele>12</ele>
        <time>2013-10-27T09:39:26Z</time>
      </trkpt>
      <trkpt lat="59.4326541" lon="17.7852956">
        <ele>11</ele>
        <time>2013-10-27T09:39:35Z</time>
      </trkpt>
      <trkpt lat="59.4325561" lon="17.7851288">
        <ele>10.2</ele>
        <time>2013-10-27T09:39:43Z</time>
      </trkpt>
      <trkpt lat="59.4325207" lon="17.7850635">
        <ele>9.8</ele>
        <time>2013-10-27T09:39:46Z</time>
      </trkpt>
      <trkpt lat="59.432471" lon="17.7849708">
        <ele>9.4</ele>
        <time>2013-10-27T09:39:50Z</time>
      </trkpt>
      <trkpt lat="59.4323929" lon="17.7847731">
        <ele>8.8</ele>
        <time>2013-10-27T09:39:57Z</time>
      </trkpt>
      <trkpt lat="59.4323384" lon="17.7845984">
        <ele>8.4</ele>
        <time>2013-10-27T09:40:03Z</time>
      </trkpt>
      <trkpt lat="59.4323018" lon="17.7844186">
        <ele>8</ele>
        <time>2013-10-27T09:40:09Z</time>
      </trkpt>
      <trkpt lat="59.4322963" lon="17.7843914">
        <ele>8</ele>
        <time>2013-10-27T09:40:10Z</time>
      </trkpt>
      <trkpt lat="59.4322715" lon="17.7841796">
        <ele>7.6</ele>
        <time>2013-10-27T09:40:18Z</time>
      </trkpt>
      <trkpt lat="59.4322454" lon="17.7839769">
        <ele>7.4</ele>
        <time>2013-10-27T09:40:25Z</time>
      </trkpt>
      <trkpt lat="59.4322253" lon="17.7837348">
        <ele>7.2</ele>
        <time>2013-10-27T09:40:33Z</time>
      </trkpt>
      <trkpt lat="59.432205" lon="17.7835426">
        <ele>7.2</ele>
        <time>2013-10-27T09:40:40Z</time>
      </trkpt>
      <trkpt lat="59.4321771" lon="17.7832427">
        <ele>7.6</ele>
        <time>2013-10-27T09:40:50Z</time>
      </trkpt>
      <trkpt lat="59.4321554" lon="17.7829839">
        <ele>8</ele>
        <time>2013-10-27T09:40:59Z</time>
      </trkpt>
      <trkpt lat="59.4321263" lon="17.7827321">
        <ele>8.4</ele>
        <time>2013-10-27T09:41:07Z</time>
      </trkpt>
      <trkpt lat="59.4320874" lon="17.7825652">
        <ele>8.8</ele>
        <time>2013-10-27T09:41:13Z</time>
      </trkpt>
      <trkpt lat="59.4320304" lon="17.7823696">
        <ele>9</ele>
        <time>2013-10-27T09:41:19Z</time>
      </trkpt>
      <trkpt lat="59.4319258" lon="17.7821787">
        <ele>9.6</ele>
        <time>2013-10-27T09:41:28Z</time>
      </trkpt>
      <trkpt lat="59.4318238" lon="17.7820559">
        <ele>10.2</ele>
        <time>2013-10-27T09:41:36Z</time>
      </trkpt>
      <trkpt lat="59.4317607" lon="17.7819557">
        <ele>10.6</ele>
        <time>2013-10-27T09:41:42Z</time>
      </trkpt>
      <trkpt lat="59.4316743" lon="17.7819411">
        <ele>11.2</ele>
        <time>2013-10-27T09:41:49Z</time>
      </trkpt>
      <trkpt lat="59.431543" lon="17.7818462">
        <ele>11.8</ele>
        <time>2013-10-27T09:41:57Z</time>
      </trkpt>
      <trkpt lat="59.4314538" lon="17.7818168">
        <ele>12.4</ele>
        <time>2013-10-27T09:42:03Z</time>
      </trkpt>
      <trkpt lat="59.4313598" lon="17.7817713">
        <ele>13.4</ele>
        <time>2013-10-27T09:42:09Z</time>
      </trkpt>
      <trkpt lat="59.4312861" lon="17.7817253">
        <ele>14</ele>
        <time>2013-10-27T09:42:13Z</time>
      </trkpt>
      <trkpt lat="59.4312702" lon="17.7817024">
        <ele>14.2</ele>
        <time>2013-10-27T09:42:14Z</time>
      </trkpt>
      <trkpt lat="59.431168" lon="17.7815494">
        <ele>15.6</ele>
        <time>2013-10-27T09:42:21Z</time>
      </trkpt>
      <trkpt lat="59.4311447" lon="17.7815151">
        <ele>15.8</ele>
        <time>2013-10-27T09:42:23Z</time>
      </trkpt>
      <trkpt lat="59.431117" lon="17.7814443">
        <ele>16.2</ele>
        <time>2013-10-27T09:42:26Z</time>
      </trkpt>
      <trkpt lat="59.4311021" lon="17.7812999">
        <ele>16.8</ele>
        <time>2013-10-27T09:42:31Z</time>
      </trkpt>
      <trkpt lat="59.4310998" lon="17.7812686">
        <ele>16.8</ele>
        <time>2013-10-27T09:42:32Z</time>
      </trkpt>
      <trkpt lat="59.4310957" lon="17.7811029">
        <ele>17.4</ele>
        <time>2013-10-27T09:42:38Z</time>
      </trkpt>
      <trkpt lat="59.4311008" lon="17.7809596">
        <ele>17.6</ele>
        <time>2013-10-27T09:42:43Z</time>
      </trkpt>
      <trkpt lat="59.4311057" lon="17.7809392">
        <ele>17.8</ele>
        <time>2013-10-27T09:42:44Z</time>
      </trkpt>
      <trkpt lat="59.431093" lon="17.7807991">
        <ele>18</ele>
        <time>2013-10-27T09:42:49Z</time>
      </trkpt>
      <trkpt lat="59.4311084" lon="17.7806507">
        <ele>18.4</ele>
        <time>2013-10-27T09:42:54Z</time>
      </trkpt>
      <trkpt lat="59.43113" lon="17.7805811">
        <ele>18.4</ele>
        <time>2013-10-27T09:42:57Z</time>
      </trkpt>
      <trkpt lat="59.431142" lon="17.7804136">
        <ele>19</ele>
        <time>2013-10-27T09:43:02Z</time>
      </trkpt>
      <trkpt lat="59.431176" lon="17.7802269">
        <ele>19.4</ele>
        <time>2013-10-27T09:43:09Z</time>
      </trkpt>
      <trkpt lat="59.4312217" lon="17.7799548">
        <ele>20</ele>
        <time>2013-10-27T09:43:19Z</time>
      </trkpt>
      <trkpt lat="59.4312253" lon="17.7797834">
        <ele>20</ele>
        <time>2013-10-27T09:43:25Z</time>
      </trkpt>
      <trkpt lat="59.4312891" lon="17.7796172">
        <ele>20</ele>
        <time>2013-10-27T09:43:32Z</time>
      </trkpt>
      <trkpt lat="59.4313372" lon="17.7794784">
        <ele>20</ele>
        <time>2013-10-27T09:43:37Z</time>
      </trkpt>
      <trkpt lat="59.4313352" lon="17.779448">
        <ele>20</ele>
        <time>2013-10-27T09:43:38Z</time>
      </trkpt>
      <trkpt lat="59.4313049" lon="17.7793387">
        <ele>20.2</ele>
        <time>2013-10-27T09:43:42Z</time>
      </trkpt>
      <trkpt lat="59.4312899" lon="17.779297">
        <ele>20.2</ele>
        <time>2013-10-27T09:43:44Z</time>
      </trkpt>
      <trkpt lat="59.431262" lon="17.7790858">
        <ele>20</ele>
        <time>2013-10-27T09:43:51Z</time>
      </trkpt>
      <trkpt lat="59.4312264" lon="17.7789016">
        <ele>20</ele>
        <time>2013-10-27T09:43:58Z</time>
      </trkpt>
      <trkpt lat="59.4312301" lon="17.7788761">
        <ele>19.8</ele>
        <time>2013-10-27T09:43:59Z</time>
      </trkpt>
      <trkpt lat="59.4312709" lon="17.7787042">
        <ele>19.6</ele>
        <time>2013-10-27T09:44:05Z</time>
      </trkpt>
      <trkpt lat="59.4313146" lon="17.7785043">
        <ele>19.4</ele>
        <time>2013-10-27T09:44:12Z</time>
      </trkpt>
      <trkpt lat="59.4313818" lon="17.7782724">
        <ele>19.4</ele>
        <time>2013-10-27T09:44:21Z</time>
      </trkpt>
      <trkpt lat="59.4313925" lon="17.7782186">
        <ele>19.4</ele>
        <time>2013-10-27T09:44:23Z</time>
      </trkpt>
      <trkpt lat="59.4313852" lon="17.7781635">
        <ele>19.4</ele>
        <time>2013-10-27T09:44:26Z</time>
      </trkpt>
      <trkpt lat="59.4313093" lon="17.7780948">
        <ele>19.4</ele>
        <time>2013-10-27T09:44:34Z</time>
      </trkpt>
      <trkpt lat="59.4312726" lon="17.7780829">
        <ele>19.6</ele>
        <time>2013-10-27T09:44:37Z</time>
      </trkpt>
      <trkpt lat="59.4312496" lon="17.778074">
        <ele>19.6</ele>
        <time>2013-10-27T09:44:39Z</time>
      </trkpt>
      <trkpt lat="59.4312339" lon="17.7780688">
        <ele>19.8</ele>
        <time>2013-10-27T09:44:40Z</time>
      </trkpt>
      <trkpt lat="59.4311373" lon="17.7780517">
        <ele>20.6</ele>
        <time>2013-10-27T09:44:47Z</time>
      </trkpt>
      <trkpt lat="59.4311223" lon="17.7780443">
        <ele>20.8</ele>
        <time>2013-10-27T09:44:48Z</time>
      </trkpt>
      <trkpt lat="59.4310438" lon="17.7779989">
        <ele>22</ele>
        <time>2013-10-27T09:44:54Z</time>
      </trkpt>
      <trkpt lat="59.4310166" lon="17.7779921">
        <ele>22.4</ele>
        <time>2013-10-27T09:44:56Z</time>
      </trkpt>
      <trkpt lat="59.4309821" lon="17.7779742">
        <ele>22.8</ele>
        <time>2013-10-27T09:44:58Z</time>
      </trkpt>
      <trkpt lat="59.4309339" lon="17.7779629">
        <ele>23.6</ele>
        <time>2013-10-27T09:45:01Z</time>
      </trkpt>
      <trkpt lat="59.4308934" lon="17.7779201">
        <ele>24.2</ele>
        <time>2013-10-27T09:45:04Z</time>
      </trkpt>
      <trkpt lat="59.4308774" lon="17.7778904">
        <ele>24.4</ele>
        <time>2013-10-27T09:45:06Z</time>
      </trkpt>
      <trkpt lat="59.4308417" lon="17.7778428">
        <ele>24.6</ele>
        <time>2013-10-27T09:45:09Z</time>
      </trkpt>
      <trkpt lat="59.4307713" lon="17.7777497">
        <ele>25.4</ele>
        <time>2013-10-27T09:45:16Z</time>
      </trkpt>
      <trkpt lat="59.4307038" lon="17.7776347">
        <ele>26.8</ele>
        <time>2013-10-27T09:45:22Z</time>
      </trkpt>
      <trkpt lat="59.4306948" lon="17.7776186">
        <ele>26.8</ele>
        <time>2013-10-27T09:45:23Z</time>
      </trkpt>
      <trkpt lat="59.4306358" lon="17.7775351">
        <ele>28</ele>
        <time>2013-10-27T09:45:27Z</time>
      </trkpt>
      <trkpt lat="59.430622" lon="17.7775219">
        <ele>28.2</ele>
        <time>2013-10-27T09:45:28Z</time>
      </trkpt>
      <trkpt lat="59.4305672" lon="17.7774836">
        <ele>29.2</ele>
        <time>2013-10-27T09:45:32Z</time>
      </trkpt>
      <trkpt lat="59.4304916" lon="17.7774298">
        <ele>30.2</ele>
        <time>2013-10-27T09:45:37Z</time>
      </trkpt>
      <trkpt lat="59.4304535" lon="17.7773939">
        <ele>31</ele>
        <time>2013-10-27T09:45:40Z</time>
      </trkpt>
      <trkpt lat="59.4304298" lon="17.7773629">
        <ele>31.6</ele>
        <time>2013-10-27T09:45:42Z</time>
      </trkpt>
      <trkpt lat="59.4303785" lon="17.7773142">
        <ele>32.6</ele>
        <time>2013-10-27T09:45:45Z</time>
      </trkpt>
      <trkpt lat="59.4303589" lon="17.7772979">
        <ele>33</ele>
        <time>2013-10-27T09:45:46Z</time>
      </trkpt>
      <trkpt lat="59.4303261" lon="17.7772732">
        <ele>33.6</ele>
        <time>2013-10-27T09:45:48Z</time>
      </trkpt>
      <trkpt lat="59.4302962" lon="17.7772447">
        <ele>34.2</ele>
        <time>2013-10-27T09:45:50Z</time>
      </trkpt>
      <trkpt lat="59.4302809" lon="17.7772385">
        <ele>34.4</ele>
        <time>2013-10-27T09:45:51Z</time>
      </trkpt>
      <trkpt lat="59.4302132" lon="17.7772048">
        <ele>35.8</ele>
        <time>2013-10-27T09:45:55Z</time>
      </trkpt>
      <trkpt lat="59.4301883" lon="17.7771867">
        <ele>36.4</ele>
        <time>2013-10-27T09:45:57Z</time>
      </trkpt>
      <trkpt lat="59.4301237" lon="17.7771423">
        <ele>38</ele>
        <time>2013-10-27T09:46:01Z</time>
      </trkpt>
      <trkpt lat="59.4301086" lon="17.7771404">
        <ele>38.4</ele>
        <time>2013-10-27T09:46:02Z</time>
      </trkpt>
      <trkpt lat="59.4300173" lon="17.7770382">
        <ele>40.4</ele>
        <time>2013-10-27T09:46:08Z</time>
      </trkpt>
      <trkpt lat="59.4300052" lon="17.7770261">
        <ele>40.6</ele>
        <time>2013-10-27T09:46:09Z</time>
      </trkpt>
      <trkpt lat="59.429924" lon="17.7770054">
        <ele>42.4</ele>
        <time>2013-10-27T09:46:15Z</time>
      </trkpt>
      <trkpt lat="59.4298801" lon="17.7769847">
        <ele>43.4</ele>
        <time>2013-10-27T09:46:19Z</time>
      </trkpt>
      <trkpt lat="59.4298662" lon="17.7769638">
        <ele>43.8</ele>
        <time>2013-10-27T09:46:21Z</time>
      </trkpt>
      <trkpt lat="59.4298331" lon="17.7768553">
        <ele>43.8</ele>
        <time>2013-10-27T09:46:26Z</time>
      </trkpt>
      <trkpt lat="59.4298361" lon="17.7768317">
        <ele>43.6</ele>
        <time>2013-10-27T09:46:27Z</time>
      </trkpt>
      <trkpt lat="59.4298739" lon="17.7766292">
        <ele>43.6</ele>
        <time>2013-10-27T09:46:34Z</time>
      </trkpt>
      <trkpt lat="59.4299102" lon="17.776554">
        <ele>43.6</ele>
        <time>2013-10-27T09:46:39Z</time>
      </trkpt>
      <trkpt lat="59.4299583" lon="17.7765333">
        <ele>43.6</ele>
        <time>2013-10-27T09:46:42Z</time>
      </trkpt>
      <trkpt lat="59.4300075" lon="17.776493">
        <ele>43.4</ele>
        <time>2013-10-27T09:46:46Z</time>
      </trkpt>
      <trkpt lat="59.4300123" lon="17.7764795">
        <ele>43.4</ele>
        <time>2013-10-27T09:46:47Z</time>
      </trkpt>
      <trkpt lat="59.4300796" lon="17.7763973">
        <ele>42.8</ele>
        <time>2013-10-27T09:46:53Z</time>
      </trkpt>
      <trkpt lat="59.4301394" lon="17.7763546">
        <ele>42.4</ele>
        <time>2013-10-27T09:46:58Z</time>
      </trkpt>
      <trkpt lat="59.4302334" lon="17.7763074">
        <ele>41.6</ele>
        <time>2013-10-27T09:47:05Z</time>
      </trkpt>
      <trkpt lat="59.4303197" lon="17.7762598">
        <ele>41.2</ele>
        <time>2013-10-27T09:47:11Z</time>
      </trkpt>
      <trkpt lat="59.4303738" lon="17.776261">
        <ele>40.8</ele>
        <time>2013-10-27T09:47:15Z</time>
      </trkpt>
      <trkpt lat="59.4304032" lon="17.776258">
        <ele>40.6</ele>
        <time>2013-10-27T09:47:17Z</time>
      </trkpt>
      <trkpt lat="59.430479" lon="17.7762509">
        <ele>40</ele>
        <time>2013-10-27T09:47:22Z</time>
      </trkpt>
      <trkpt lat="59.4305809" lon="17.7762095">
        <ele>39.2</ele>
        <time>2013-10-27T09:47:29Z</time>
      </trkpt>
      <trkpt lat="59.4306596" lon="17.7761773">
        <ele>38.8</ele>
        <time>2013-10-27T09:47:35Z</time>
      </trkpt>
      <trkpt lat="59.4307686" lon="17.776158">
        <ele>38.2</ele>
        <time>2013-10-27T09:47:42Z</time>
      </trkpt>
      <trkpt lat="59.4308828" lon="17.7760686">
        <ele>37.8</ele>
        <time>2013-10-27T09:47:50Z</time>
      </trkpt>
      <trkpt lat="59.4309869" lon="17.7759577">
        <ele>37.4</ele>
        <time>2013-10-27T09:47:58Z</time>
      </trkpt>
      <trkpt lat="59.4311054" lon="17.7758421">
        <ele>37.2</ele>
        <time>2013-10-27T09:48:06Z</time>
      </trkpt>
      <trkpt lat="59.4311873" lon="17.7757218">
        <ele>37</ele>
        <time>2013-10-27T09:48:14Z</time>
      </trkpt>
      <trkpt lat="59.4312625" lon="17.7755956">
        <ele>37.2</ele>
        <time>2013-10-27T09:48:21Z</time>
      </trkpt>
      <trkpt lat="59.4313636" lon="17.7754682">
        <ele>37.8</ele>
        <time>2013-10-27T09:48:30Z</time>
      </trkpt>
      <trkpt lat="59.4314506" lon="17.7753638">
        <ele>38.8</ele>
        <time>2013-10-27T09:48:38Z</time>
      </trkpt>
      <trkpt lat="59.4315072" lon="17.7752975">
        <ele>39.4</ele>
        <time>2013-10-27T09:48:43Z</time>
      </trkpt>
      <trkpt lat="59.431618" lon="17.7752046">
        <ele>40.8</ele>
        <time>2013-10-27T09:48:52Z</time>
      </trkpt>
      <trkpt lat="59.4316964" lon="17.7751539">
        <ele>42.2</ele>
        <time>2013-10-27T09:48:59Z</time>
      </trkpt>
      <trkpt lat="59.4318197" lon="17.7751234">
        <ele>43.6</ele>
        <time>2013-10-27T09:49:08Z</time>
      </trkpt>
      <trkpt lat="59.4319566" lon="17.7750586">
        <ele>44.8</ele>
        <time>2013-10-27T09:49:16Z</time>
      </trkpt>
      <trkpt lat="59.4320776" lon="17.7750249">
        <ele>45.8</ele>
        <time>2013-10-27T09:49:24Z</time>
      </trkpt>
      <trkpt lat="59.4321876" lon="17.7750207">
        <ele>46.8</ele>
        <time>2013-10-27T09:49:31Z</time>
      </trkpt>
      <trkpt lat="59.4322283" lon="17.7750032">
        <ele>47</ele>
        <time>2013-10-27T09:49:34Z</time>
      </trkpt>
      <trkpt lat="59.4322869" lon="17.7750213">
        <ele>47.6</ele>
        <time>2013-10-27T09:49:38Z</time>
      </trkpt>
      <trkpt lat="59.4323076" lon="17.775035">
        <ele>48</ele>
        <time>2013-10-27T09:49:40Z</time>
      </trkpt>
      <trkpt lat="59.4323448" lon="17.7750582">
        <ele>48.6</ele>
        <time>2013-10-27T09:49:43Z</time>
      </trkpt>
      <trkpt lat="59.4323659" lon="17.7750747">
        <ele>49</ele>
        <time>2013-10-27T09:49:45Z</time>
      </trkpt>
      <trkpt lat="59.4324349" lon="17.7751307">
        <ele>50.2</ele>
        <time>2013-10-27T09:49:51Z</time>
      </trkpt>
      <trkpt lat="59.4324607" lon="17.7751236">
        <ele>51.2</ele>
        <time>2013-10-27T09:49:56Z</time>
      </trkpt>
      <trkpt lat="59.4324989" lon="17.775254">
        <ele>59.8</ele>
        <time>2013-10-27T09:51:30Z</time>
      </trkpt>
      <trkpt lat="59.4324719" lon="17.7753727">
        <ele>59.8</ele>
        <time>2013-10-27T09:51:35Z</time>
      </trkpt>
      <trkpt lat="59.4324754" lon="17.7753972">
        <ele>59.8</ele>
        <time>2013-10-27T09:51:36Z</time>
      </trkpt>
      <trkpt lat="59.4324857" lon="17.775418">
        <ele>59.8</ele>
        <time>2013-10-27T09:51:37Z</time>
      </trkpt>
      <trkpt lat="59.4325419" lon="17.7754446">
        <ele>59.8</ele>
        <time>2013-10-27T09:51:41Z</time>
      </trkpt>
      <trkpt lat="59.4326127" lon="17.7755057">
        <ele>59.6</ele>
        <time>2013-10-27T09:51:47Z</time>
      </trkpt>
      <trkpt lat="59.4326761" lon="17.7755694">
        <ele>59.4</ele>
        <time>2013-10-27T09:51:54Z</time>
      </trkpt>
      <trkpt lat="59.4327038" lon="17.775582">
        <ele>59</ele>
        <time>2013-10-27T09:52:00Z</time>
      </trkpt>
      <trkpt lat="59.4327796" lon="17.7756118">
        <ele>58.8</ele>
        <time>2013-10-27T09:52:05Z</time>
      </trkpt>
      <trkpt lat="59.4328531" lon="17.7756549">
        <ele>58</ele>
        <time>2013-10-27T09:52:12Z</time>
      </trkpt>
      <trkpt lat="59.4329128" lon="17.7757342">
        <ele>57.2</ele>
        <time>2013-10-27T09:52:19Z</time>
      </trkpt>
      <trkpt lat="59.432924" lon="17.7757458">
        <ele>57</ele>
        <time>2013-10-27T09:52:20Z</time>
      </trkpt>
      <trkpt lat="59.4330108" lon="17.7758356">
        <ele>56</ele>
        <time>2013-10-27T09:52:28Z</time>
      </trkpt>
      <trkpt lat="59.4330929" lon="17.7759183">
        <ele>54.8</ele>
        <time>2013-10-27T09:52:36Z</time>
      </trkpt>
      <trkpt lat="59.4331399" lon="17.7760182">
        <ele>53.8</ele>
        <time>2013-10-27T09:52:42Z</time>
      </trkpt>
      <trkpt lat="59.4332081" lon="17.7761371">
        <ele>52.6</ele>
        <time>2013-10-27T09:52:50Z</time>
      </trkpt>
      <trkpt lat="59.4332701" lon="17.7762682">
        <ele>51.4</ele>
        <time>2013-10-27T09:52:57Z</time>
      </trkpt>
      <trkpt lat="59.4333173" lon="17.7763936">
        <ele>50</ele>
        <time>2013-10-27T09:53:04Z</time>
      </trkpt>
      <trkpt lat="59.4333328" lon="17.7764275">
        <ele>49.8</ele>
        <time>2013-10-27T09:53:06Z</time>
      </trkpt>
      <trkpt lat="59.4333581" lon="17.7764601">
        <ele>49.2</ele>
        <time>2013-10-27T09:53:09Z</time>
      </trkpt>
      <trkpt lat="59.4334585" lon="17.7765138">
        <ele>47.2</ele>
        <time>2013-10-27T09:53:18Z</time>
      </trkpt>
      <trkpt lat="59.43353" lon="17.7764748">
        <ele>45.8</ele>
        <time>2013-10-27T09:53:24Z</time>
      </trkpt>
      <trkpt lat="59.4336033" lon="17.7764541">
        <ele>44.6</ele>
        <time>2013-10-27T09:53:30Z</time>
      </trkpt>
      <trkpt lat="59.4336877" lon="17.7765047">
        <ele>42.8</ele>
        <time>2013-10-27T09:53:37Z</time>
      </trkpt>
      <trkpt lat="59.4336976" lon="17.7765323">
        <ele>42.2</ele>
        <time>2013-10-27T09:53:39Z</time>
      </trkpt>
      <trkpt lat="59.4337024" lon="17.7765938">
        <ele>41.2</ele>
        <time>2013-10-27T09:53:43Z</time>
      </trkpt>
      <trkpt lat="59.4337043" lon="17.7766317">
        <ele>40.8</ele>
        <time>2013-10-27T09:53:45Z</time>
      </trkpt>
      <trkpt lat="59.4337105" lon="17.7767316">
        <ele>39.8</ele>
        <time>2013-10-27T09:53:49Z</time>
      </trkpt>
      <trkpt lat="59.4337165" lon="17.7768559">
        <ele>38.2</ele>
        <time>2013-10-27T09:53:55Z</time>
      </trkpt>
      <trkpt lat="59.4337124" lon="17.7769413">
        <ele>37.2</ele>
        <time>2013-10-27T09:53:59Z</time>
      </trkpt>
      <trkpt lat="59.4337159" lon="17.7769859">
        <ele>36.8</ele>
        <time>2013-10-27T09:54:01Z</time>
      </trkpt>
      <trkpt lat="59.4337158" lon="17.777046">
        <ele>36.2</ele>
        <time>2013-10-27T09:54:03Z</time>
      </trkpt>
      <trkpt lat="59.4337197" lon="17.7770657">
        <ele>36</ele>
        <time>2013-10-27T09:54:04Z</time>
      </trkpt>
      <trkpt lat="59.4337171" lon="17.7771433">
        <ele>35.2</ele>
        <time>2013-10-27T09:54:07Z</time>
      </trkpt>
      <trkpt lat="59.4337161" lon="17.7771669">
        <ele>34.8</ele>
        <time>2013-10-27T09:54:08Z</time>
      </trkpt>
      <trkpt lat="59.4337285" lon="17.7772171">
        <ele>34.4</ele>
        <time>2013-10-27T09:54:10Z</time>
      </trkpt>
      <trkpt lat="59.4337525" lon="17.7772877">
        <ele>33.6</ele>
        <time>2013-10-27T09:54:13Z</time>
      </trkpt>
      <trkpt lat="59.4337958" lon="17.7774095">
        <ele>32.2</ele>
        <time>2013-10-27T09:54:18Z</time>
      </trkpt>
      <trkpt lat="59.4338583" lon="17.7774879">
        <ele>31</ele>
        <time>2013-10-27T09:54:23Z</time>
      </trkpt>
      <trkpt lat="59.4338689" lon="17.7774912">
        <ele>30.6</ele>
        <time>2013-10-27T09:54:24Z</time>
      </trkpt>
      <trkpt lat="59.4339825" lon="17.7775115">
        <ele>28.4</ele>
        <time>2013-10-27T09:54:32Z</time>
      </trkpt>
      <trkpt lat="59.434079" lon="17.7774309">
        <ele>27</ele>
        <time>2013-10-27T09:54:38Z</time>
      </trkpt>
      <trkpt lat="59.4341828" lon="17.77735">
        <ele>25.4</ele>
        <time>2013-10-27T09:54:46Z</time>
      </trkpt>
      <trkpt lat="59.4342612" lon="17.7772825">
        <ele>24.2</ele>
        <time>2013-10-27T09:54:52Z</time>
      </trkpt>
      <trkpt lat="59.4343664" lon="17.7771864">
        <ele>22.4</ele>
        <time>2013-10-27T09:55:00Z</time>
      </trkpt>
      <trkpt lat="59.4344041" lon="17.7771709">
        <ele>21.6</ele>
        <time>2013-10-27T09:55:05Z</time>
      </trkpt>
      <trkpt lat="59.434476" lon="17.777211">
        <ele>20.6</ele>
        <time>2013-10-27T09:55:10Z</time>
      </trkpt>
      <trkpt lat="59.4344881" lon="17.7772286">
        <ele>20.4</ele>
        <time>2013-10-27T09:55:11Z</time>
      </trkpt>
      <trkpt lat="59.4345156" lon="17.7772703">
        <ele>20</ele>
        <time>2013-10-27T09:55:13Z</time>
      </trkpt>
      <trkpt lat="59.4345345" lon="17.7773654">
        <ele>19.2</ele>
        <time>2013-10-27T09:55:16Z</time>
      </trkpt>
      <trkpt lat="59.4345409" lon="17.7773875">
        <ele>19</ele>
        <time>2013-10-27T09:55:17Z</time>
      </trkpt>
      <trkpt lat="59.4345767" lon="17.777459">
        <ele>17.8</ele>
        <time>2013-10-27T09:55:21Z</time>
      </trkpt>
      <trkpt lat="59.4345905" lon="17.7774541">
        <ele>17.6</ele>
        <time>2013-10-27T09:55:22Z</time>
      </trkpt>
      <trkpt lat="59.4347023" lon="17.7774126">
        <ele>16.6</ele>
        <time>2013-10-27T09:55:28Z</time>
      </trkpt>
      <trkpt lat="59.4348729" lon="17.7773298">
        <ele>15</ele>
        <time>2013-10-27T09:55:37Z</time>
      </trkpt>
      <trkpt lat="59.4349539" lon="17.7772923">
        <ele>14.4</ele>
        <time>2013-10-27T09:55:42Z</time>
      </trkpt>
      <trkpt lat="59.4350401" lon="17.7772359">
        <ele>13.8</ele>
        <time>2013-10-27T09:55:48Z</time>
      </trkpt>
      <trkpt lat="59.4350737" lon="17.7772251">
        <ele>13.6</ele>
        <time>2013-10-27T09:55:50Z</time>
      </trkpt>
      <trkpt lat="59.4351209" lon="17.7771964">
        <ele>13.2</ele>
        <time>2013-10-27T09:55:53Z</time>
      </trkpt>
      <trkpt lat="59.4352375" lon="17.7771433">
        <ele>12.6</ele>
        <time>2013-10-27T09:56:00Z</time>
      </trkpt>
      <trkpt lat="59.4352856" lon="17.777153">
        <ele>12.2</ele>
        <time>2013-10-27T09:56:04Z</time>
      </trkpt>
      <trkpt lat="59.4352901" lon="17.7771775">
        <ele>12</ele>
        <time>2013-10-27T09:56:06Z</time>
      </trkpt>
      <trkpt lat="59.4353262" lon="17.7772549">
        <ele>11.8</ele>
        <time>2013-10-27T09:56:10Z</time>
      </trkpt>
      <trkpt lat="59.4353944" lon="17.7773032">
        <ele>11.4</ele>
        <time>2013-10-27T09:56:16Z</time>
      </trkpt>
      <trkpt lat="59.4354393" lon="17.7773012">
        <ele>11</ele>
        <time>2013-10-27T09:56:19Z</time>
      </trkpt>
      <trkpt lat="59.4355142" lon="17.7772877">
        <ele>10.8</ele>
        <time>2013-10-27T09:56:23Z</time>
      </trkpt>
      <trkpt lat="59.4356078" lon="17.777327">
        <ele>10.4</ele>
        <time>2013-10-27T09:56:28Z</time>
      </trkpt>
      <trkpt lat="59.4356275" lon="17.7773405">
        <ele>10.4</ele>
        <time>2013-10-27T09:56:29Z</time>
      </trkpt>
      <trkpt lat="59.4357118" lon="17.777408">
        <ele>10</ele>
        <time>2013-10-27T09:56:35Z</time>
      </trkpt>
      <trkpt lat="59.435741" lon="17.7774324">
        <ele>9.8</ele>
        <time>2013-10-27T09:56:37Z</time>
      </trkpt>
      <trkpt lat="59.4358057" lon="17.7774751">
        <ele>9.4</ele>
        <time>2013-10-27T09:56:41Z</time>
      </trkpt>
      <trkpt lat="59.4358824" lon="17.777527">
        <ele>8.8</ele>
        <time>2013-10-27T09:56:47Z</time>
      </trkpt>
      <trkpt lat="59.4359846" lon="17.7776419">
        <ele>8.6</ele>
        <time>2013-10-27T09:56:53Z</time>
      </trkpt>
      <trkpt lat="59.4360219" lon="17.7777173">
        <ele>8.2</ele>
        <time>2013-10-27T09:56:57Z</time>
      </trkpt>
      <trkpt lat="59.436029" lon="17.7777381">
        <ele>8.2</ele>
        <time>2013-10-27T09:56:58Z</time>
      </trkpt>
      <trkpt lat="59.4360634" lon="17.777825">
        <ele>7.8</ele>
        <time>2013-10-27T09:57:02Z</time>
      </trkpt>
      <trkpt lat="59.4360637" lon="17.7778324">
        <ele>7.8</ele>
        <time>2013-10-27T09:57:03Z</time>
      </trkpt>
      <trkpt lat="59.4360748" lon="17.7778564">
        <ele>7.8</ele>
        <time>2013-10-27T09:57:04Z</time>
      </trkpt>
      <trkpt lat="59.4360922" lon="17.7779476">
        <ele>7.4</ele>
        <time>2013-10-27T09:57:07Z</time>
      </trkpt>
      <trkpt lat="59.4361393" lon="17.7781286">
        <ele>6.6</ele>
        <time>2013-10-27T09:57:13Z</time>
      </trkpt>
      <trkpt lat="59.4361761" lon="17.7782194">
        <ele>6.2</ele>
        <time>2013-10-27T09:57:17Z</time>
      </trkpt>
      <trkpt lat="59.4361991" lon="17.7783022">
        <ele>5.6</ele>
        <time>2013-10-27T09:57:20Z</time>
      </trkpt>
      <trkpt lat="59.4362377" lon="17.7784096">
        <ele>4.8</ele>
        <time>2013-10-27T09:57:24Z</time>
      </trkpt>
      <trkpt lat="59.4362507" lon="17.7784629">
        <ele>4.6</ele>
        <time>2013-10-27T09:57:26Z</time>
      </trkpt>
      <trkpt lat="59.4363092" lon="17.7786288">
        <ele>3.4</ele>
        <time>2013-10-27T09:57:33Z</time>
      </trkpt>
      <trkpt lat="59.4363536" lon="17.7787323">
        <ele>2.6</ele>
        <time>2013-10-27T09:57:38Z</time>
      </trkpt>
      <trkpt lat="59.4363807" lon="17.7787597">
        <ele>2.4</ele>
        <time>2013-10-27T09:57:40Z</time>
      </trkpt>
      <trkpt lat="59.4364536" lon="17.778799">
        <ele>1.8</ele>
        <time>2013-10-27T09:57:44Z</time>
      </trkpt>
      <trkpt lat="59.4364673" lon="17.7788051">
        <ele>1.8</ele>
        <time>2013-10-27T09:57:45Z</time>
      </trkpt>
      <trkpt lat="59.4366055" lon="17.7788226">
        <ele>1</ele>
        <time>2013-10-27T09:57:51Z</time>
      </trkpt>
      <trkpt lat="59.4366188" lon="17.778838">
        <ele>0.8</ele>
        <time>2013-10-27T09:57:52Z</time>
      </trkpt>
      <trkpt lat="59.4366905" lon="17.7789124">
        <ele>0.6</ele>
        <time>2013-10-27T09:57:56Z</time>
      </trkpt>
      <trkpt lat="59.4367353" lon="17.7790043">
        <ele>0.2</ele>
        <time>2013-10-27T09:58:00Z</time>
      </trkpt>
      <trkpt lat="59.4367381" lon="17.779011">
        <ele>0.2</ele>
        <time>2013-10-27T09:58:01Z</time>
      </trkpt>
      <trkpt lat="59.4367792" lon="17.7790787">
        <ele>0</ele>
        <time>2013-10-27T09:58:05Z</time>
      </trkpt>
      <trkpt lat="59.4367889" lon="17.7791214">
        <ele>0</ele>
        <time>2013-10-27T09:58:06Z</time>
      </trkpt>
      <trkpt lat="59.436811" lon="17.779249">
        <ele>0</ele>
        <time>2013-10-27T09:58:10Z</time>
      </trkpt>
      <trkpt lat="59.4368172" lon="17.7792696">
        <ele>0</ele>
        <time>2013-10-27T09:58:11Z</time>
      </trkpt>
      <trkpt lat="59.4368306" lon="17.7792878">
        <ele>0</ele>
        <time>2013-10-27T09:58:12Z</time>
      </trkpt>
      <trkpt lat="59.4368344" lon="17.7793748">
        <ele>0</ele>
        <time>2013-10-27T09:58:15Z</time>
      </trkpt>
      <trkpt lat="59.4368143" lon="17.7794862">
        <ele>0</ele>
        <time>2013-10-27T09:58:18Z</time>
      </trkpt>
      <trkpt lat="59.4367862" lon="17.7795963">
        <ele>0</ele>
        <time>2013-10-27T09:58:21Z</time>
      </trkpt>
      <trkpt lat="59.4367906" lon="17.7796218">
        <ele>0</ele>
        <time>2013-10-27T09:58:22Z</time>
      </trkpt>
      <trkpt lat="59.4367874" lon="17.7797033">
        <ele>0</ele>
        <time>2013-10-27T09:58:25Z</time>
      </trkpt>
      <trkpt lat="59.4367835" lon="17.7799139">
        <ele>0</ele>
        <time>2013-10-27T09:58:32Z</time>
      </trkpt>
      <trkpt lat="59.4367849" lon="17.7800107">
        <ele>0</ele>
        <time>2013-10-27T09:58:35Z</time>
      </trkpt>
      <trkpt lat="59.4367909" lon="17.7800412">
        <ele>0</ele>
        <time>2013-10-27T09:58:36Z</time>
      </trkpt>
      <trkpt lat="59.4367893" lon="17.7801065">
        <ele>0</ele>
        <time>2013-10-27T09:58:38Z</time>
      </trkpt>
      <trkpt lat="59.4368184" lon="17.7802667">
        <ele>0</ele>
        <time>2013-10-27T09:58:44Z</time>
      </trkpt>
      <trkpt lat="59.4368127" lon="17.7802978">
        <ele>0</ele>
        <time>2013-10-27T09:58:45Z</time>
      </trkpt>
      <trkpt lat="59.4368228" lon="17.7804361">
        <ele>0</ele>
        <time>2013-10-27T09:58:49Z</time>
      </trkpt>
      <trkpt lat="59.4368532" lon="17.7805568">
        <ele>0</ele>
        <time>2013-10-27T09:58:53Z</time>
      </trkpt>
      <trkpt lat="59.436849" lon="17.7806438">
        <ele>0</ele>
        <time>2013-10-27T09:58:56Z</time>
      </trkpt>
      <trkpt lat="59.4368509" lon="17.780674">
        <ele>0</ele>
        <time>2013-10-27T09:58:57Z</time>
      </trkpt>
      <trkpt lat="59.436853" lon="17.7807045">
        <ele>0</ele>
        <time>2013-10-27T09:58:58Z</time>
      </trkpt>
      <trkpt lat="59.4368592" lon="17.7808016">
        <ele>0</ele>
        <time>2013-10-27T09:59:01Z</time>
      </trkpt>
      <trkpt lat="59.4368782" lon="17.7809418">
        <ele>0</ele>
        <time>2013-10-27T09:59:06Z</time>
      </trkpt>
      <trkpt lat="59.4368867" lon="17.781065">
        <ele>0</ele>
        <time>2013-10-27T09:59:10Z</time>
      </trkpt>
      <trkpt lat="59.4369034" lon="17.7811565">
        <ele>0</ele>
        <time>2013-10-27T09:59:13Z</time>
      </trkpt>
      <trkpt lat="59.4369525" lon="17.7813365">
        <ele>0</ele>
        <time>2013-10-27T09:59:19Z</time>
      </trkpt>
      <trkpt lat="59.4369474" lon="17.7813625">
        <ele>0</ele>
        <time>2013-10-27T09:59:20Z</time>
      </trkpt>
      <trkpt lat="59.4369479" lon="17.7814711">
        <ele>0</ele>
        <time>2013-10-27T09:59:23Z</time>
      </trkpt>
      <trkpt lat="59.4369519" lon="17.781675">
        <ele>0</ele>
        <time>2013-10-27T09:59:31Z</time>
      </trkpt>
      <trkpt lat="59.4369263" lon="17.781798">
        <ele>0</ele>
        <time>2013-10-27T09:59:37Z</time>
      </trkpt>
      <trkpt lat="59.4368676" lon="17.7818778">
        <ele>0</ele>
        <time>2013-10-27T09:59:41Z</time>
      </trkpt>
      <trkpt lat="59.4367977" lon="17.781981">
        <ele>0</ele>
        <time>2013-10-27T09:59:46Z</time>
      </trkpt>
      <trkpt lat="59.4367353" lon="17.7821053">
        <ele>0</ele>
        <time>2013-10-27T09:59:52Z</time>
      </trkpt>
      <trkpt lat="59.436695" lon="17.7822616">
        <ele>0</ele>
        <time>2013-10-27T09:59:58Z</time>
      </trkpt>
      <trkpt lat="59.4366928" lon="17.7822808">
        <ele>0</ele>
        <time>2013-10-27T09:59:59Z</time>
      </trkpt>
      <trkpt lat="59.4366672" lon="17.7823651">
        <ele>0</ele>
        <time>2013-10-27T10:00:02Z</time>
      </trkpt>
      <trkpt lat="59.4366386" lon="17.7824235">
        <ele>0</ele>
        <time>2013-10-27T10:00:05Z</time>
      </trkpt>
      <trkpt lat="59.4366128" lon="17.7824522">
        <ele>0</ele>
        <time>2013-10-27T10:00:07Z</time>
      </trkpt>
      <trkpt lat="59.4365795" lon="17.7825084">
        <ele>0</ele>
        <time>2013-10-27T10:00:10Z</time>
      </trkpt>
      <trkpt lat="59.4365693" lon="17.7825406">
        <ele>0</ele>
        <time>2013-10-27T10:00:12Z</time>
      </trkpt>
      <trkpt lat="59.4365558" lon="17.7825652">
        <ele>0</ele>
        <time>2013-10-27T10:00:13Z</time>
      </trkpt>
      <trkpt lat="59.436541" lon="17.7825835">
        <ele>0</ele>
        <time>2013-10-27T10:00:14Z</time>
      </trkpt>
      <trkpt lat="59.4364799" lon="17.782696">
        <ele>0</ele>
        <time>2013-10-27T10:00:20Z</time>
      </trkpt>
      <trkpt lat="59.4364656" lon="17.7827054">
        <ele>0</ele>
        <time>2013-10-27T10:00:21Z</time>
      </trkpt>
      <trkpt lat="59.4364085" lon="17.7827551">
        <ele>0</ele>
        <time>2013-10-27T10:00:25Z</time>
      </trkpt>
      <trkpt lat="59.4363729" lon="17.7827857">
        <ele>0</ele>
        <time>2013-10-27T10:00:28Z</time>
      </trkpt>
      <trkpt lat="59.43633" lon="17.7828178">
        <ele>0</ele>
        <time>2013-10-27T10:00:31Z</time>
      </trkpt>
      <trkpt lat="59.4362271" lon="17.7828321">
        <ele>0</ele>
        <time>2013-10-27T10:00:37Z</time>
      </trkpt>
      <trkpt lat="59.4361376" lon="17.7828517">
        <ele>0</ele>
        <time>2013-10-27T10:00:43Z</time>
      </trkpt>
      <trkpt lat="59.4361051" lon="17.7828851">
        <ele>0</ele>
        <time>2013-10-27T10:00:46Z</time>
      </trkpt>
      <trkpt lat="59.4360475" lon="17.7828858">
        <ele>0</ele>
        <time>2013-10-27T10:00:49Z</time>
      </trkpt>
      <trkpt lat="59.4360088" lon="17.7828967">
        <ele>0</ele>
        <time>2013-10-27T10:00:51Z</time>
      </trkpt>
      <trkpt lat="59.4359551" lon="17.7829205">
        <ele>0.8</ele>
        <time>2013-10-27T10:00:54Z</time>
      </trkpt>
      <trkpt lat="59.4358503" lon="17.7829614">
        <ele>1.8</ele>
        <time>2013-10-27T10:01:00Z</time>
      </trkpt>
      <trkpt lat="59.4357628" lon="17.7830205">
        <ele>2.6</ele>
        <time>2013-10-27T10:01:07Z</time>
      </trkpt>
      <trkpt lat="59.4357135" lon="17.7830759">
        <ele>2.8</ele>
        <time>2013-10-27T10:01:11Z</time>
      </trkpt>
      <trkpt lat="59.4356997" lon="17.783102">
        <ele>3</ele>
        <time>2013-10-27T10:01:12Z</time>
      </trkpt>
      <trkpt lat="59.4356219" lon="17.7832582">
        <ele>3</ele>
        <time>2013-10-27T10:01:18Z</time>
      </trkpt>
      <trkpt lat="59.4355636" lon="17.7833251">
        <ele>2.8</ele>
        <time>2013-10-27T10:01:22Z</time>
      </trkpt>
      <trkpt lat="59.4355473" lon="17.783347">
        <ele>2.8</ele>
        <time>2013-10-27T10:01:23Z</time>
      </trkpt>
      <trkpt lat="59.4354616" lon="17.7834132">
        <ele>2.8</ele>
        <time>2013-10-27T10:01:28Z</time>
      </trkpt>
      <trkpt lat="59.4353707" lon="17.7834722">
        <ele>3</ele>
        <time>2013-10-27T10:01:33Z</time>
      </trkpt>
      <trkpt lat="59.4352641" lon="17.7835183">
        <ele>3</ele>
        <time>2013-10-27T10:01:39Z</time>
      </trkpt>
      <trkpt lat="59.4351758" lon="17.7835819">
        <ele>3</ele>
        <time>2013-10-27T10:01:45Z</time>
      </trkpt>
      <trkpt lat="59.4351395" lon="17.7835937">
        <ele>3</ele>
        <time>2013-10-27T10:01:47Z</time>
      </trkpt>
      <trkpt lat="59.4350905" lon="17.7836159">
        <ele>3</ele>
        <time>2013-10-27T10:01:50Z</time>
      </trkpt>
      <trkpt lat="59.4349972" lon="17.7836498">
        <ele>3.6</ele>
        <time>2013-10-27T10:01:56Z</time>
      </trkpt>
      <trkpt lat="59.4349173" lon="17.783662">
        <ele>4.4</ele>
        <time>2013-10-27T10:02:01Z</time>
      </trkpt>
      <trkpt lat="59.4349043" lon="17.7836708">
        <ele>4.6</ele>
        <time>2013-10-27T10:02:02Z</time>
      </trkpt>
      <trkpt lat="59.4348773" lon="17.783683">
        <ele>5</ele>
        <time>2013-10-27T10:02:04Z</time>
      </trkpt>
      <trkpt lat="59.4348339" lon="17.7836922">
        <ele>5.6</ele>
        <time>2013-10-27T10:02:08Z</time>
      </trkpt>
      <trkpt lat="59.4348142" lon="17.783696">
        <ele>5.8</ele>
        <time>2013-10-27T10:02:09Z</time>
      </trkpt>
      <trkpt lat="59.4347402" lon="17.7836988">
        <ele>6.4</ele>
        <time>2013-10-27T10:02:13Z</time>
      </trkpt>
      <trkpt lat="59.4347267" lon="17.7837021">
        <ele>6.6</ele>
        <time>2013-10-27T10:02:14Z</time>
      </trkpt>
      <trkpt lat="59.4346507" lon="17.7837623">
        <ele>6.8</ele>
        <time>2013-10-27T10:02:19Z</time>
      </trkpt>
      <trkpt lat="59.4346267" lon="17.7837788">
        <ele>6.8</ele>
        <time>2013-10-27T10:02:20Z</time>
      </trkpt>
      <trkpt lat="59.4345742" lon="17.783901">
        <ele>7.2</ele>
        <time>2013-10-27T10:02:25Z</time>
      </trkpt>
      <trkpt lat="59.4345709" lon="17.7839327">
        <ele>7.2</ele>
        <time>2013-10-27T10:02:26Z</time>
      </trkpt>
      <trkpt lat="59.4345595" lon="17.7841626">
        <ele>7</ele>
        <time>2013-10-27T10:02:33Z</time>
      </trkpt>
      <trkpt lat="59.4345649" lon="17.7843161">
        <ele>6.6</ele>
        <time>2013-10-27T10:02:38Z</time>
      </trkpt>
      <trkpt lat="59.4345688" lon="17.7843492">
        <ele>6.4</ele>
        <time>2013-10-27T10:02:39Z</time>
      </trkpt>
      <trkpt lat="59.4345885" lon="17.7844673">
        <ele>6.2</ele>
        <time>2013-10-27T10:02:44Z</time>
      </trkpt>
      <trkpt lat="59.4345857" lon="17.7844941">
        <ele>6</ele>
        <time>2013-10-27T10:02:45Z</time>
      </trkpt>
      <trkpt lat="59.4345874" lon="17.7846347">
        <ele>5.6</ele>
        <time>2013-10-27T10:02:49Z</time>
      </trkpt>
      <trkpt lat="59.434605" lon="17.7848006">
        <ele>4.8</ele>
        <time>2013-10-27T10:02:54Z</time>
      </trkpt>
      <trkpt lat="59.4346117" lon="17.7848326">
        <ele>4.8</ele>
        <time>2013-10-27T10:02:55Z</time>
      </trkpt>
      <trkpt lat="59.4346233" lon="17.7848945">
        <ele>4.4</ele>
        <time>2013-10-27T10:02:57Z</time>
      </trkpt>
      <trkpt lat="59.434663" lon="17.7850001">
        <ele>3.8</ele>
        <time>2013-10-27T10:03:01Z</time>
      </trkpt>
      <trkpt lat="59.4347448" lon="17.7851363">
        <ele>3</ele>
        <time>2013-10-27T10:03:08Z</time>
      </trkpt>
      <trkpt lat="59.4348281" lon="17.7852173">
        <ele>2.2</ele>
        <time>2013-10-27T10:03:14Z</time>
      </trkpt>
      <trkpt lat="59.4348567" lon="17.7852338">
        <ele>2</ele>
        <time>2013-10-27T10:03:16Z</time>
      </trkpt>
      <trkpt lat="59.4349114" lon="17.7852636">
        <ele>1.8</ele>
        <time>2013-10-27T10:03:19Z</time>
      </trkpt>
      <trkpt lat="59.4350116" lon="17.785316">
        <ele>1.4</ele>
        <time>2013-10-27T10:03:25Z</time>
      </trkpt>
      <trkpt lat="59.4350246" lon="17.7853282">
        <ele>1.2</ele>
        <time>2013-10-27T10:03:26Z</time>
      </trkpt>
      <trkpt lat="59.4351098" lon="17.7853262">
        <ele>1</ele>
        <time>2013-10-27T10:03:31Z</time>
      </trkpt>
      <trkpt lat="59.435169" lon="17.7853225">
        <ele>1</ele>
        <time>2013-10-27T10:03:35Z</time>
      </trkpt>
      <trkpt lat="59.4351841" lon="17.785326">
        <ele>1</ele>
        <time>2013-10-27T10:03:36Z</time>
      </trkpt>
      <trkpt lat="59.4352338" lon="17.7853609">
        <ele>0.8</ele>
        <time>2013-10-27T10:03:40Z</time>
      </trkpt>
      <trkpt lat="59.4352544" lon="17.7853831">
        <ele>0.6</ele>
        <time>2013-10-27T10:03:42Z</time>
      </trkpt>
      <trkpt lat="59.4353566" lon="17.7854414">
        <ele>0.6</ele>
        <time>2013-10-27T10:03:49Z</time>
      </trkpt>
      <trkpt lat="59.435424" lon="17.7855682">
        <ele>0.6</ele>
        <time>2013-10-27T10:03:55Z</time>
      </trkpt>
      <trkpt lat="59.4354788" lon="17.7857366">
        <ele>0.6</ele>
        <time>2013-10-27T10:04:02Z</time>
      </trkpt>
      <trkpt lat="59.4355384" lon="17.7859757">
        <ele>1</ele>
        <time>2013-10-27T10:04:11Z</time>
      </trkpt>
      <trkpt lat="59.4355435" lon="17.7860295">
        <ele>0.8</ele>
        <time>2013-10-27T10:04:13Z</time>
      </trkpt>
      <trkpt lat="59.4355672" lon="17.7861498">
        <ele>0.8</ele>
        <time>2013-10-27T10:04:17Z</time>
      </trkpt>
      <trkpt lat="59.4356091" lon="17.7862472">
        <ele>1</ele>
        <time>2013-10-27T10:04:21Z</time>
      </trkpt>
      <trkpt lat="59.4356194" lon="17.7863015">
        <ele>0.8</ele>
        <time>2013-10-27T10:04:23Z</time>
      </trkpt>
      <trkpt lat="59.4356664" lon="17.7864693">
        <ele>0.8</ele>
        <time>2013-10-27T10:04:30Z</time>
      </trkpt>
      <trkpt lat="59.4356832" lon="17.7865326">
        <ele>0.6</ele>
        <time>2013-10-27T10:04:33Z</time>
      </trkpt>
      <trkpt lat="59.4356944" lon="17.7865798">
        <ele>0.6</ele>
        <time>2013-10-27T10:04:36Z</time>
      </trkpt>
      <trkpt lat="59.4357192" lon="17.7867009">
        <ele>0.6</ele>
        <time>2013-10-27T10:04:41Z</time>
      </trkpt>
      <trkpt lat="59.4357809" lon="17.7868004">
        <ele>0.6</ele>
        <time>2013-10-27T10:04:47Z</time>
      </trkpt>
      <trkpt lat="59.4358527" lon="17.7868284">
        <ele>0.4</ele>
        <time>2013-10-27T10:04:53Z</time>
      </trkpt>
      <trkpt lat="59.43588" lon="17.7868436">
        <ele>0.6</ele>
        <time>2013-10-27T10:04:55Z</time>
      </trkpt>
      <trkpt lat="59.4358937" lon="17.7868657">
        <ele>0.6</ele>
        <time>2013-10-27T10:04:56Z</time>
      </trkpt>
      <trkpt lat="59.4359381" lon="17.7869118">
        <ele>0.6</ele>
        <time>2013-10-27T10:04:59Z</time>
      </trkpt>
      <trkpt lat="59.4360169" lon="17.787028">
        <ele>0.6</ele>
        <time>2013-10-27T10:05:05Z</time>
      </trkpt>
      <trkpt lat="59.4360329" lon="17.7870605">
        <ele>0.4</ele>
        <time>2013-10-27T10:05:07Z</time>
      </trkpt>
      <trkpt lat="59.4360724" lon="17.7870752">
        <ele>0.4</ele>
        <time>2013-10-27T10:05:10Z</time>
      </trkpt>
      <trkpt lat="59.4360879" lon="17.7870734">
        <ele>0.4</ele>
        <time>2013-10-27T10:05:11Z</time>
      </trkpt>
      <trkpt lat="59.4361227" lon="17.7870433">
        <ele>0.4</ele>
        <time>2013-10-27T10:05:15Z</time>
      </trkpt>
      <trkpt lat="59.4361896" lon="17.7870303">
        <ele>0.4</ele>
        <time>2013-10-27T10:05:19Z</time>
      </trkpt>
      <trkpt lat="59.4362588" lon="17.787039">
        <ele>0.4</ele>
        <time>2013-10-27T10:05:23Z</time>
      </trkpt>
      <trkpt lat="59.4362677" lon="17.7870284">
        <ele>0.4</ele>
        <time>2013-10-27T10:05:24Z</time>
      </trkpt>
      <trkpt lat="59.436345" lon="17.7870536">
        <ele>0.8</ele>
        <time>2013-10-27T10:05:28Z</time>
      </trkpt>
      <trkpt lat="59.4363589" lon="17.7870582">
        <ele>0.8</ele>
        <time>2013-10-27T10:05:29Z</time>
      </trkpt>
      <trkpt lat="59.4364652" lon="17.7870753">
        <ele>0.6</ele>
        <time>2013-10-27T10:05:35Z</time>
      </trkpt>
      <trkpt lat="59.4365601" lon="17.7870289">
        <ele>0.6</ele>
        <time>2013-10-27T10:05:42Z</time>
      </trkpt>
      <trkpt lat="59.4365973" lon="17.7869981">
        <ele>0.4</ele>
        <time>2013-10-27T10:05:46Z</time>
      </trkpt>
      <trkpt lat="59.436605" lon="17.786997">
        <ele>0.4</ele>
        <time>2013-10-27T10:05:47Z</time>
      </trkpt>
      <trkpt lat="59.4366204" lon="17.7869872">
        <ele>0.4</ele>
        <time>2013-10-27T10:05:48Z</time>
      </trkpt>
      <trkpt lat="59.4366609" lon="17.7869665">
        <ele>0.6</ele>
        <time>2013-10-27T10:05:51Z</time>
      </trkpt>
      <trkpt lat="59.4366727" lon="17.7869654">
        <ele>0.6</ele>
        <time>2013-10-27T10:05:52Z</time>
      </trkpt>
      <trkpt lat="59.4367081" lon="17.7869735">
        <ele>0.8</ele>
        <time>2013-10-27T10:05:54Z</time>
      </trkpt>
      <trkpt lat="59.4367207" lon="17.7869643">
        <ele>0.8</ele>
        <time>2013-10-27T10:05:55Z</time>
      </trkpt>
      <trkpt lat="59.4367895" lon="17.7869315">
        <ele>1</ele>
        <time>2013-10-27T10:05:59Z</time>
      </trkpt>
      <trkpt lat="59.4368257" lon="17.7869093">
        <ele>1.2</ele>
        <time>2013-10-27T10:06:01Z</time>
      </trkpt>
      <trkpt lat="59.4369268" lon="17.7868471">
        <ele>2.2</ele>
        <time>2013-10-27T10:06:07Z</time>
      </trkpt>
      <trkpt lat="59.4370143" lon="17.7868003">
        <ele>2.8</ele>
        <time>2013-10-27T10:06:14Z</time>
      </trkpt>
      <trkpt lat="59.4370267" lon="17.786801">
        <ele>3</ele>
        <time>2013-10-27T10:06:15Z</time>
      </trkpt>
      <trkpt lat="59.4370417" lon="17.7867976">
        <ele>2.8</ele>
        <time>2013-10-27T10:06:16Z</time>
      </trkpt>
      <trkpt lat="59.4371147" lon="17.7867539">
        <ele>2.8</ele>
        <time>2013-10-27T10:06:20Z</time>
      </trkpt>
      <trkpt lat="59.4371308" lon="17.7867385">
        <ele>2.6</ele>
        <time>2013-10-27T10:06:21Z</time>
      </trkpt>
      <trkpt lat="59.4371659" lon="17.786717">
        <ele>2.6</ele>
        <time>2013-10-27T10:06:23Z</time>
      </trkpt>
      <trkpt lat="59.4372217" lon="17.7866627">
        <ele>2.4</ele>
        <time>2013-10-27T10:06:26Z</time>
      </trkpt>
      <trkpt lat="59.4372483" lon="17.7866361">
        <ele>2.4</ele>
        <time>2013-10-27T10:06:28Z</time>
      </trkpt>
      <trkpt lat="59.437288" lon="17.7865701">
        <ele>2.2</ele>
        <time>2013-10-27T10:06:32Z</time>
      </trkpt>
      <trkpt lat="59.4373004" lon="17.7865336">
        <ele>2.2</ele>
        <time>2013-10-27T10:06:33Z</time>
      </trkpt>
      <trkpt lat="59.4373528" lon="17.786466">
        <ele>2.2</ele>
        <time>2013-10-27T10:06:38Z</time>
      </trkpt>
      <trkpt lat="59.4373783" lon="17.7864433">
        <ele>2.2</ele>
        <time>2013-10-27T10:06:40Z</time>
      </trkpt>
      <trkpt lat="59.4374366" lon="17.7864154">
        <ele>2.6</ele>
        <time>2013-10-27T10:06:44Z</time>
      </trkpt>
      <trkpt lat="59.4374882" lon="17.786432">
        <ele>2.6</ele>
        <time>2013-10-27T10:06:48Z</time>
      </trkpt>
      <trkpt lat="59.4375026" lon="17.7864217">
        <ele>2.4</ele>
        <time>2013-10-27T10:06:49Z</time>
      </trkpt>
      <trkpt lat="59.4376076" lon="17.7864019">
        <ele>2.8</ele>
        <time>2013-10-27T10:06:56Z</time>
      </trkpt>
      <trkpt lat="59.4376514" lon="17.7863848">
        <ele>2.8</ele>
        <time>2013-10-27T10:07:00Z</time>
      </trkpt>
      <trkpt lat="59.4376814" lon="17.7863658">
        <ele>3</ele>
        <time>2013-10-27T10:07:03Z</time>
      </trkpt>
      <trkpt lat="59.4377264" lon="17.7863211">
        <ele>3.2</ele>
        <time>2013-10-27T10:07:06Z</time>
      </trkpt>
      <trkpt lat="59.4377674" lon="17.786253">
        <ele>3.2</ele>
        <time>2013-10-27T10:07:10Z</time>
      </trkpt>
      <trkpt lat="59.4378333" lon="17.7862111">
        <ele>3.2</ele>
        <time>2013-10-27T10:07:14Z</time>
      </trkpt>
      <trkpt lat="59.4378663" lon="17.7862126">
        <ele>3</ele>
        <time>2013-10-27T10:07:16Z</time>
      </trkpt>
      <trkpt lat="59.4379062" lon="17.7862347">
        <ele>3</ele>
        <time>2013-10-27T10:07:19Z</time>
      </trkpt>
      <trkpt lat="59.4379211" lon="17.7862091">
        <ele>3</ele>
        <time>2013-10-27T10:07:21Z</time>
      </trkpt>
      <trkpt lat="59.4379351" lon="17.7862042">
        <ele>3</ele>
        <time>2013-10-27T10:07:22Z</time>
      </trkpt>
      <trkpt lat="59.4380418" lon="17.7860783">
        <ele>2.8</ele>
        <time>2013-10-27T10:07:31Z</time>
      </trkpt>
      <trkpt lat="59.4380523" lon="17.7860525">
        <ele>2.8</ele>
        <time>2013-10-27T10:07:32Z</time>
      </trkpt>
      <trkpt lat="59.4380741" lon="17.7860097">
        <ele>2.6</ele>
        <time>2013-10-27T10:07:34Z</time>
      </trkpt>
      <trkpt lat="59.438087" lon="17.7860103">
        <ele>2.6</ele>
        <time>2013-10-27T10:07:35Z</time>
      </trkpt>
      <trkpt lat="59.4381614" lon="17.7859166">
        <ele>2.8</ele>
        <time>2013-10-27T10:07:41Z</time>
      </trkpt>
      <trkpt lat="59.4382437" lon="17.7858432">
        <ele>3</ele>
        <time>2013-10-27T10:07:47Z</time>
      </trkpt>
      <trkpt lat="59.4383497" lon="17.7858317">
        <ele>3.2</ele>
        <time>2013-10-27T10:07:53Z</time>
      </trkpt>
      <trkpt lat="59.4384124" lon="17.7857701">
        <ele>3.2</ele>
        <time>2013-10-27T10:07:58Z</time>
      </trkpt>
      <trkpt lat="59.438475" lon="17.7856873">
        <ele>3.4</ele>
        <time>2013-10-27T10:08:03Z</time>
      </trkpt>
      <trkpt lat="59.4385668" lon="17.7856004">
        <ele>3.6</ele>
        <time>2013-10-27T10:08:10Z</time>
      </trkpt>
      <trkpt lat="59.4386268" lon="17.7855178">
        <ele>3.8</ele>
        <time>2013-10-27T10:08:15Z</time>
      </trkpt>
      <trkpt lat="59.4386468" lon="17.7854829">
        <ele>4</ele>
        <time>2013-10-27T10:08:17Z</time>
      </trkpt>
      <trkpt lat="59.4386884" lon="17.7854476">
        <ele>3.6</ele>
        <time>2013-10-27T10:08:20Z</time>
      </trkpt>
      <trkpt lat="59.4387339" lon="17.7854256">
        <ele>3.6</ele>
        <time>2013-10-27T10:08:23Z</time>
      </trkpt>
      <trkpt lat="59.4387623" lon="17.7854201">
        <ele>3.6</ele>
        <time>2013-10-27T10:08:25Z</time>
      </trkpt>
      <trkpt lat="59.4388001" lon="17.7853944">
        <ele>3.4</ele>
        <time>2013-10-27T10:08:28Z</time>
      </trkpt>
      <trkpt lat="59.4388511" lon="17.7854189">
        <ele>3.2</ele>
        <time>2013-10-27T10:08:32Z</time>
      </trkpt>
      <trkpt lat="59.4388539" lon="17.7854198">
        <ele>3.2</ele>
        <time>2013-10-27T10:08:33Z</time>
      </trkpt>
      <trkpt lat="59.438869" lon="17.7854146">
        <ele>3.2</ele>
        <time>2013-10-27T10:08:35Z</time>
      </trkpt>
      <trkpt lat="59.4389168" lon="17.7854499">
        <ele>3</ele>
        <time>2013-10-27T10:08:39Z</time>
      </trkpt>
      <trkpt lat="59.4389778" lon="17.7854299">
        <ele>3</ele>
        <time>2013-10-27T10:08:45Z</time>
      </trkpt>
      <trkpt lat="59.4389949" lon="17.7854173">
        <ele>3</ele>
        <time>2013-10-27T10:08:46Z</time>
      </trkpt>
      <trkpt lat="59.4390457" lon="17.7853772">
        <ele>3.2</ele>
        <time>2013-10-27T10:08:50Z</time>
      </trkpt>
      <trkpt lat="59.4390636" lon="17.7853709">
        <ele>3.4</ele>
        <time>2013-10-27T10:08:51Z</time>
      </trkpt>
      <trkpt lat="59.4390837" lon="17.785361">
        <ele>3.6</ele>
        <time>2013-10-27T10:08:52Z</time>
      </trkpt>
      <trkpt lat="59.439123" lon="17.7852651">
        <ele>6.4</ele>
        <time>2013-10-27T10:09:10Z</time>
      </trkpt>
      <trkpt lat="59.4391567" lon="17.78525">
        <ele>6.8</ele>
        <time>2013-10-27T10:09:13Z</time>
      </trkpt>
      <trkpt lat="59.4392226" lon="17.7852069">
        <ele>7.8</ele>
        <time>2013-10-27T10:09:19Z</time>
      </trkpt>
      <trkpt lat="59.4392313" lon="17.7852006">
        <ele>8</ele>
        <time>2013-10-27T10:09:20Z</time>
      </trkpt>
      <trkpt lat="59.4392359" lon="17.7851782">
        <ele>8.2</ele>
        <time>2013-10-27T10:09:21Z</time>
      </trkpt>
      <trkpt lat="59.4392997" lon="17.7850916">
        <ele>8.8</ele>
        <time>2013-10-27T10:09:26Z</time>
      </trkpt>
      <trkpt lat="59.4393749" lon="17.7850089">
        <ele>9.4</ele>
        <time>2013-10-27T10:09:32Z</time>
      </trkpt>
      <trkpt lat="59.439413" lon="17.7848706">
        <ele>9.8</ele>
        <time>2013-10-27T10:09:37Z</time>
      </trkpt>
      <trkpt lat="59.4394788" lon="17.7847713">
        <ele>9.6</ele>
        <time>2013-10-27T10:09:42Z</time>
      </trkpt>
      <trkpt lat="59.4395197" lon="17.7847359">
        <ele>9.8</ele>
        <time>2013-10-27T10:09:45Z</time>
      </trkpt>
      <trkpt lat="59.4395466" lon="17.7846999">
        <ele>9.8</ele>
        <time>2013-10-27T10:09:47Z</time>
      </trkpt>
      <trkpt lat="59.4396112" lon="17.7846547">
        <ele>9.6</ele>
        <time>2013-10-27T10:09:52Z</time>
      </trkpt>
      <trkpt lat="59.4396473" lon="17.7846328">
        <ele>9.4</ele>
        <time>2013-10-27T10:09:56Z</time>
      </trkpt>
      <trkpt lat="59.4396576" lon="17.7846087">
        <ele>9.4</ele>
        <time>2013-10-27T10:09:57Z</time>
      </trkpt>
      <trkpt lat="59.4397255" lon="17.7845393">
        <ele>9.2</ele>
        <time>2013-10-27T10:10:01Z</time>
      </trkpt>
      <trkpt lat="59.4397921" lon="17.7844546">
        <ele>8.8</ele>
        <time>2013-10-27T10:10:06Z</time>
      </trkpt>
      <trkpt lat="59.4398177" lon="17.78442">
        <ele>8.8</ele>
        <time>2013-10-27T10:10:08Z</time>
      </trkpt>
      <trkpt lat="59.4398914" lon="17.7843381">
        <ele>8.4</ele>
        <time>2013-10-27T10:10:13Z</time>
      </trkpt>
      <trkpt lat="59.4399448" lon="17.784209">
        <ele>8.2</ele>
        <time>2013-10-27T10:10:19Z</time>
      </trkpt>
      <trkpt lat="59.4400268" lon="17.7841139">
        <ele>8</ele>
        <time>2013-10-27T10:10:25Z</time>
      </trkpt>
      <trkpt lat="59.4400679" lon="17.7840003">
        <ele>8</ele>
        <time>2013-10-27T10:10:29Z</time>
      </trkpt>
      <trkpt lat="59.4401448" lon="17.7839337">
        <ele>7.6</ele>
        <time>2013-10-27T10:10:34Z</time>
      </trkpt>
      <trkpt lat="59.4402035" lon="17.783813">
        <ele>7.4</ele>
        <time>2013-10-27T10:10:40Z</time>
      </trkpt>
      <trkpt lat="59.4402227" lon="17.7837768">
        <ele>7.4</ele>
        <time>2013-10-27T10:10:42Z</time>
      </trkpt>
      <trkpt lat="59.4402391" lon="17.7837666">
        <ele>7.4</ele>
        <time>2013-10-27T10:10:43Z</time>
      </trkpt>
      <trkpt lat="59.4402792" lon="17.7837299">
        <ele>7.4</ele>
        <time>2013-10-27T10:10:46Z</time>
      </trkpt>
      <trkpt lat="59.4402955" lon="17.7837192">
        <ele>7.4</ele>
        <time>2013-10-27T10:10:47Z</time>
      </trkpt>
      <trkpt lat="59.4403652" lon="17.7836157">
        <ele>7.2</ele>
        <time>2013-10-27T10:10:53Z</time>
      </trkpt>
      <trkpt lat="59.4404386" lon="17.7834968">
        <ele>6.8</ele>
        <time>2013-10-27T10:10:59Z</time>
      </trkpt>
      <trkpt lat="59.4404796" lon="17.7834834">
        <ele>6.6</ele>
        <time>2013-10-27T10:11:01Z</time>
      </trkpt>
      <trkpt lat="59.4405082" lon="17.7834426">
        <ele>6.4</ele>
        <time>2013-10-27T10:11:03Z</time>
      </trkpt>
      <trkpt lat="59.4405738" lon="17.7833709">
        <ele>6.2</ele>
        <time>2013-10-27T10:11:08Z</time>
      </trkpt>
      <trkpt lat="59.4406032" lon="17.7833282">
        <ele>6.2</ele>
        <time>2013-10-27T10:11:12Z</time>
      </trkpt>
      <trkpt lat="59.4406317" lon="17.7832844">
        <ele>6</ele>
        <time>2013-10-27T10:11:14Z</time>
      </trkpt>
      <trkpt lat="59.4406923" lon="17.7832097">
        <ele>6.2</ele>
        <time>2013-10-27T10:11:19Z</time>
      </trkpt>
      <trkpt lat="59.4407209" lon="17.7832056">
        <ele>6.4</ele>
        <time>2013-10-27T10:11:21Z</time>
      </trkpt>
      <trkpt lat="59.4407342" lon="17.7831964">
        <ele>6.2</ele>
        <time>2013-10-27T10:11:22Z</time>
      </trkpt>
      <trkpt lat="59.4407957" lon="17.7831749">
        <ele>6.2</ele>
        <time>2013-10-27T10:11:26Z</time>
      </trkpt>
      <trkpt lat="59.4408763" lon="17.783193">
        <ele>6</ele>
        <time>2013-10-27T10:11:31Z</time>
      </trkpt>
      <trkpt lat="59.4408906" lon="17.7831889">
        <ele>6</ele>
        <time>2013-10-27T10:11:32Z</time>
      </trkpt>
      <trkpt lat="59.4409819" lon="17.783216">
        <ele>5.6</ele>
        <time>2013-10-27T10:11:38Z</time>
      </trkpt>
      <trkpt lat="59.4410473" lon="17.7832496">
        <ele>5.2</ele>
        <time>2013-10-27T10:11:43Z</time>
      </trkpt>
      <trkpt lat="59.4411099" lon="17.7832644">
        <ele>5</ele>
        <time>2013-10-27T10:11:47Z</time>
      </trkpt>
      <trkpt lat="59.4411427" lon="17.7832645">
        <ele>5</ele>
        <time>2013-10-27T10:11:49Z</time>
      </trkpt>
      <trkpt lat="59.4412262" lon="17.7832993">
        <ele>4.6</ele>
        <time>2013-10-27T10:11:54Z</time>
      </trkpt>
      <trkpt lat="59.4413112" lon="17.7833361">
        <ele>4.4</ele>
        <time>2013-10-27T10:11:59Z</time>
      </trkpt>
      <trkpt lat="59.4413899" lon="17.7833672">
        <ele>4</ele>
        <time>2013-10-27T10:12:04Z</time>
      </trkpt>
      <trkpt lat="59.441407" lon="17.7833725">
        <ele>4</ele>
        <time>2013-10-27T10:12:05Z</time>
      </trkpt>
      <trkpt lat="59.4414244" lon="17.783365">
        <ele>4</ele>
        <time>2013-10-27T10:12:06Z</time>
      </trkpt>
      <trkpt lat="59.4414859" lon="17.7833456">
        <ele>3.6</ele>
        <time>2013-10-27T10:12:11Z</time>
      </trkpt>
      <trkpt lat="59.441555" lon="17.7833792">
        <ele>3</ele>
        <time>2013-10-27T10:12:16Z</time>
      </trkpt>
      <trkpt lat="59.4416191" lon="17.7834565">
        <ele>2.2</ele>
        <time>2013-10-27T10:12:22Z</time>
      </trkpt>
      <trkpt lat="59.4416524" lon="17.7835715">
        <ele>1.6</ele>
        <time>2013-10-27T10:12:27Z</time>
      </trkpt>
      <trkpt lat="59.4416545" lon="17.7836175">
        <ele>1.2</ele>
        <time>2013-10-27T10:12:30Z</time>
      </trkpt>
      <trkpt lat="59.4416651" lon="17.7836378">
        <ele>1.2</ele>
        <time>2013-10-27T10:12:31Z</time>
      </trkpt>
      <trkpt lat="59.4416673" lon="17.7836533">
        <ele>1</ele>
        <time>2013-10-27T10:12:32Z</time>
      </trkpt>
      <trkpt lat="59.4416797" lon="17.7836657">
        <ele>1</ele>
        <time>2013-10-27T10:12:33Z</time>
      </trkpt>
      <trkpt lat="59.4417205" lon="17.783783">
        <ele>0.6</ele>
        <time>2013-10-27T10:12:37Z</time>
      </trkpt>
      <trkpt lat="59.441777" lon="17.7839644">
        <ele>0.4</ele>
        <time>2013-10-27T10:12:43Z</time>
      </trkpt>
      <trkpt lat="59.4417931" lon="17.7839911">
        <ele>0.4</ele>
        <time>2013-10-27T10:12:44Z</time>
      </trkpt>
      <trkpt lat="59.4418612" lon="17.7841193">
        <ele>0.4</ele>
        <time>2013-10-27T10:12:49Z</time>
      </trkpt>
      <trkpt lat="59.4419239" lon="17.7841756">
        <ele>0.6</ele>
        <time>2013-10-27T10:12:53Z</time>
      </trkpt>
      <trkpt lat="59.4419801" lon="17.7843145">
        <ele>0.6</ele>
        <time>2013-10-27T10:12:59Z</time>
      </trkpt>
      <trkpt lat="59.4419809" lon="17.7843366">
        <ele>0.6</ele>
        <time>2013-10-27T10:13:00Z</time>
      </trkpt>
      <trkpt lat="59.4420156" lon="17.7844295">
        <ele>0.4</ele>
        <time>2013-10-27T10:13:04Z</time>
      </trkpt>
      <trkpt lat="59.4420871" lon="17.7845436">
        <ele>0.2</ele>
        <time>2013-10-27T10:13:10Z</time>
      </trkpt>
      <trkpt lat="59.4420898" lon="17.7846076">
        <ele>0.2</ele>
        <time>2013-10-27T10:13:12Z</time>
      </trkpt>
      <trkpt lat="59.4420931" lon="17.7846688">
        <ele>0.2</ele>
        <time>2013-10-27T10:13:14Z</time>
      </trkpt>
      <trkpt lat="59.4420992" lon="17.7847402">
        <ele>0</ele>
        <time>2013-10-27T10:13:16Z</time>
      </trkpt>
      <trkpt lat="59.4420898" lon="17.7847751">
        <ele>0</ele>
        <time>2013-10-27T10:13:18Z</time>
      </trkpt>
      <trkpt lat="59.4420887" lon="17.7848562">
        <ele>0</ele>
        <time>2013-10-27T10:13:21Z</time>
      </trkpt>
      <trkpt lat="59.4420877" lon="17.7848946">
        <ele>0</ele>
        <time>2013-10-27T10:13:23Z</time>
      </trkpt>
      <trkpt lat="59.4420721" lon="17.7849824">
        <ele>0</ele>
        <time>2013-10-27T10:13:26Z</time>
      </trkpt>
      <trkpt lat="59.4421055" lon="17.7851034">
        <ele>0</ele>
        <time>2013-10-27T10:13:31Z</time>
      </trkpt>
      <trkpt lat="59.442113" lon="17.7851339">
        <ele>0</ele>
        <time>2013-10-27T10:13:32Z</time>
      </trkpt>
      <trkpt lat="59.4421145" lon="17.7852203">
        <ele>0</ele>
        <time>2013-10-27T10:13:35Z</time>
      </trkpt>
      <trkpt lat="59.4421339" lon="17.7852857">
        <ele>0</ele>
        <time>2013-10-27T10:13:37Z</time>
      </trkpt>
      <trkpt lat="59.4421553" lon="17.7853556">
        <ele>0</ele>
        <time>2013-10-27T10:13:40Z</time>
      </trkpt>
      <trkpt lat="59.4421706" lon="17.785406">
        <ele>0</ele>
        <time>2013-10-27T10:13:42Z</time>
      </trkpt>
      <trkpt lat="59.4422244" lon="17.7855587">
        <ele>0</ele>
        <time>2013-10-27T10:13:48Z</time>
      </trkpt>
      <trkpt lat="59.442263" lon="17.785724">
        <ele>0</ele>
        <time>2013-10-27T10:13:54Z</time>
      </trkpt>
      <trkpt lat="59.4422777" lon="17.7857528">
        <ele>0</ele>
        <time>2013-10-27T10:13:55Z</time>
      </trkpt>
      <trkpt lat="59.4423192" lon="17.7858504">
        <ele>0</ele>
        <time>2013-10-27T10:13:58Z</time>
      </trkpt>
      <trkpt lat="59.4423546" lon="17.7860229">
        <ele>0</ele>
        <time>2013-10-27T10:14:03Z</time>
      </trkpt>
      <trkpt lat="59.4423684" lon="17.7862127">
        <ele>0.6</ele>
        <time>2013-10-27T10:14:09Z</time>
      </trkpt>
      <trkpt lat="59.4423669" lon="17.78625">
        <ele>0.6</ele>
        <time>2013-10-27T10:14:10Z</time>
      </trkpt>
      <trkpt lat="59.4423568" lon="17.7863176">
        <ele>1</ele>
        <time>2013-10-27T10:14:12Z</time>
      </trkpt>
      <trkpt lat="59.4423541" lon="17.7864031">
        <ele>1.2</ele>
        <time>2013-10-27T10:14:14Z</time>
      </trkpt>
      <trkpt lat="59.4423453" lon="17.7865205">
        <ele>1.6</ele>
        <time>2013-10-27T10:14:18Z</time>
      </trkpt>
      <trkpt lat="59.4423477" lon="17.7865452">
        <ele>1.6</ele>
        <time>2013-10-27T10:14:19Z</time>
      </trkpt>
      <trkpt lat="59.4423147" lon="17.7867109">
        <ele>1.8</ele>
        <time>2013-10-27T10:14:25Z</time>
      </trkpt>
      <trkpt lat="59.4422745" lon="17.7868491">
        <ele>1.6</ele>
        <time>2013-10-27T10:14:30Z</time>
      </trkpt>
      <trkpt lat="59.4422768" lon="17.7868774">
        <ele>1.8</ele>
        <time>2013-10-27T10:14:31Z</time>
      </trkpt>
      <trkpt lat="59.4422782" lon="17.7869072">
        <ele>1.8</ele>
        <time>2013-10-27T10:14:32Z</time>
      </trkpt>
      <trkpt lat="59.4422647" lon="17.7869956">
        <ele>1.8</ele>
        <time>2013-10-27T10:14:35Z</time>
      </trkpt>
      <trkpt lat="59.4422637" lon="17.7870539">
        <ele>1.6</ele>
        <time>2013-10-27T10:14:37Z</time>
      </trkpt>
      <trkpt lat="59.4422485" lon="17.7872008">
        <ele>1.6</ele>
        <time>2013-10-27T10:14:42Z</time>
      </trkpt>
      <trkpt lat="59.4422542" lon="17.787397">
        <ele>2</ele>
        <time>2013-10-27T10:14:48Z</time>
      </trkpt>
      <trkpt lat="59.4422272" lon="17.7875529">
        <ele>2.4</ele>
        <time>2013-10-27T10:14:54Z</time>
      </trkpt>
      <trkpt lat="59.4421979" lon="17.7876562">
        <ele>3.4</ele>
        <time>2013-10-27T10:14:59Z</time>
      </trkpt>
      <trkpt lat="59.4421988" lon="17.7876736">
        <ele>3.8</ele>
        <time>2013-10-27T10:15:00Z</time>
      </trkpt>
      <trkpt lat="59.4421915" lon="17.7876924">
        <ele>4</ele>
        <time>2013-10-27T10:15:01Z</time>
      </trkpt>
      <trkpt lat="59.4421584" lon="17.7878277">
        <ele>5</ele>
        <time>2013-10-27T10:15:05Z</time>
      </trkpt>
      <trkpt lat="59.442138" lon="17.7879602">
        <ele>5.8</ele>
        <time>2013-10-27T10:15:09Z</time>
      </trkpt>
      <trkpt lat="59.4421223" lon="17.788023">
        <ele>6.2</ele>
        <time>2013-10-27T10:15:11Z</time>
      </trkpt>
      <trkpt lat="59.4421077" lon="17.7880732">
        <ele>7</ele>
        <time>2013-10-27T10:15:13Z</time>
      </trkpt>
      <trkpt lat="59.4420929" lon="17.7880972">
        <ele>7.6</ele>
        <time>2013-10-27T10:15:15Z</time>
      </trkpt>
      <trkpt lat="59.4420716" lon="17.7883022">
        <ele>9.8</ele>
        <time>2013-10-27T10:15:21Z</time>
      </trkpt>
      <trkpt lat="59.4420597" lon="17.788529">
        <ele>11.8</ele>
        <time>2013-10-27T10:15:28Z</time>
      </trkpt>
      <trkpt lat="59.4420467" lon="17.7886979">
        <ele>12.6</ele>
        <time>2013-10-27T10:15:33Z</time>
      </trkpt>
      <trkpt lat="59.4420358" lon="17.7888683">
        <ele>13</ele>
        <time>2013-10-27T10:15:39Z</time>
      </trkpt>
      <trkpt lat="59.4419935" lon="17.78898">
        <ele>12.4</ele>
        <time>2013-10-27T10:15:45Z</time>
      </trkpt>
      <trkpt lat="59.4419582" lon="17.7890996">
        <ele>12</ele>
        <time>2013-10-27T10:15:50Z</time>
      </trkpt>
      <trkpt lat="59.4419575" lon="17.7891163">
        <ele>11.8</ele>
        <time>2013-10-27T10:15:51Z</time>
      </trkpt>
      <trkpt lat="59.4419209" lon="17.789211">
        <ele>11.4</ele>
        <time>2013-10-27T10:15:55Z</time>
      </trkpt>
      <trkpt lat="59.4419234" lon="17.7892424">
        <ele>11.2</ele>
        <time>2013-10-27T10:15:56Z</time>
      </trkpt>
      <trkpt lat="59.4418939" lon="17.7892796">
        <ele>10.8</ele>
        <time>2013-10-27T10:15:59Z</time>
      </trkpt>
      <trkpt lat="59.4418483" lon="17.7893298">
        <ele>10.4</ele>
        <time>2013-10-27T10:16:02Z</time>
      </trkpt>
      <trkpt lat="59.4418492" lon="17.7893585">
        <ele>10.4</ele>
        <time>2013-10-27T10:16:03Z</time>
      </trkpt>
      <trkpt lat="59.4418266" lon="17.789387">
        <ele>10.2</ele>
        <time>2013-10-27T10:16:05Z</time>
      </trkpt>
      <trkpt lat="59.4418157" lon="17.7894933">
        <ele>9.6</ele>
        <time>2013-10-27T10:16:09Z</time>
      </trkpt>
      <trkpt lat="59.4417935" lon="17.7895811">
        <ele>9.4</ele>
        <time>2013-10-27T10:16:12Z</time>
      </trkpt>
      <trkpt lat="59.4417768" lon="17.789646">
        <ele>9.4</ele>
        <time>2013-10-27T10:16:14Z</time>
      </trkpt>
      <trkpt lat="59.4417608" lon="17.7897775">
        <ele>9.4</ele>
        <time>2013-10-27T10:16:18Z</time>
      </trkpt>
      <trkpt lat="59.441751" lon="17.7897942">
        <ele>9.4</ele>
        <time>2013-10-27T10:16:19Z</time>
      </trkpt>
      <trkpt lat="59.4416857" lon="17.7898903">
        <ele>9.6</ele>
        <time>2013-10-27T10:16:25Z</time>
      </trkpt>
      <trkpt lat="59.4416273" lon="17.7899698">
        <ele>10.2</ele>
        <time>2013-10-27T10:16:30Z</time>
      </trkpt>
      <trkpt lat="59.4415789" lon="17.7900611">
        <ele>10.2</ele>
        <time>2013-10-27T10:16:35Z</time>
      </trkpt>
      <trkpt lat="59.44154" lon="17.7901173">
        <ele>10.2</ele>
        <time>2013-10-27T10:16:38Z</time>
      </trkpt>
      <trkpt lat="59.4415105" lon="17.7901923">
        <ele>10.8</ele>
        <time>2013-10-27T10:16:42Z</time>
      </trkpt>
      <trkpt lat="59.4414895" lon="17.7902325">
        <ele>11.2</ele>
        <time>2013-10-27T10:16:44Z</time>
      </trkpt>
      <trkpt lat="59.4414665" lon="17.7903196">
        <ele>11.8</ele>
        <time>2013-10-27T10:16:48Z</time>
      </trkpt>
      <trkpt lat="59.4414463" lon="17.7903519">
        <ele>12</ele>
        <time>2013-10-27T10:16:50Z</time>
      </trkpt>
      <trkpt lat="59.4414328" lon="17.7904467">
        <ele>12.6</ele>
        <time>2013-10-27T10:16:53Z</time>
      </trkpt>
      <trkpt lat="59.441415" lon="17.7905255">
        <ele>13.2</ele>
        <time>2013-10-27T10:16:56Z</time>
      </trkpt>
      <trkpt lat="59.4414169" lon="17.7905634">
        <ele>13.4</ele>
        <time>2013-10-27T10:16:57Z</time>
      </trkpt>
      <trkpt lat="59.4414137" lon="17.7905846">
        <ele>13.6</ele>
        <time>2013-10-27T10:16:58Z</time>
      </trkpt>
      <trkpt lat="59.4413856" lon="17.7907502">
        <ele>14.2</ele>
        <time>2013-10-27T10:17:05Z</time>
      </trkpt>
      <trkpt lat="59.4413609" lon="17.7909056">
        <ele>14</ele>
        <time>2013-10-27T10:17:11Z</time>
      </trkpt>
      <trkpt lat="59.4412995" lon="17.7910564">
        <ele>13.8</ele>
        <time>2013-10-27T10:17:17Z</time>
      </trkpt>
      <trkpt lat="59.4412692" lon="17.7911667">
        <ele>13.6</ele>
        <time>2013-10-27T10:17:22Z</time>
      </trkpt>
      <trkpt lat="59.4412702" lon="17.7911953">
        <ele>13.6</ele>
        <time>2013-10-27T10:17:23Z</time>
      </trkpt>
      <trkpt lat="59.4412615" lon="17.7912954">
        <ele>13.2</ele>
        <time>2013-10-27T10:17:27Z</time>
      </trkpt>
      <trkpt lat="59.4412521" lon="17.7913486">
        <ele>13</ele>
        <time>2013-10-27T10:17:31Z</time>
      </trkpt>
      <trkpt lat="59.4412396" lon="17.7913711">
        <ele>13</ele>
        <time>2013-10-27T10:17:33Z</time>
      </trkpt>
      <trkpt lat="59.4412373" lon="17.7913984">
        <ele>12.8</ele>
        <time>2013-10-27T10:17:35Z</time>
      </trkpt>
      <trkpt lat="59.4412875" lon="17.7915034">
        <ele>12.8</ele>
        <time>2013-10-27T10:17:39Z</time>
      </trkpt>
      <trkpt lat="59.4413065" lon="17.7915423">
        <ele>12.6</ele>
        <time>2013-10-27T10:17:41Z</time>
      </trkpt>
      <trkpt lat="59.4413488" lon="17.791618">
        <ele>12.6</ele>
        <time>2013-10-27T10:17:45Z</time>
      </trkpt>
      <trkpt lat="59.4414272" lon="17.7918208">
        <ele>12.2</ele>
        <time>2013-10-27T10:17:53Z</time>
      </trkpt>
      <trkpt lat="59.4414751" lon="17.7919679">
        <ele>12.2</ele>
        <time>2013-10-27T10:17:58Z</time>
      </trkpt>
      <trkpt lat="59.4414971" lon="17.7921406">
        <ele>12.8</ele>
        <time>2013-10-27T10:18:03Z</time>
      </trkpt>
      <trkpt lat="59.4415081" lon="17.792197">
        <ele>12.8</ele>
        <time>2013-10-27T10:18:05Z</time>
      </trkpt>
      <trkpt lat="59.4415165" lon="17.7922877">
        <ele>13</ele>
        <time>2013-10-27T10:18:08Z</time>
      </trkpt>
      <trkpt lat="59.4415204" lon="17.7923847">
        <ele>13.2</ele>
        <time>2013-10-27T10:18:11Z</time>
      </trkpt>
      <trkpt lat="59.4415192" lon="17.7926377">
        <ele>13.8</ele>
        <time>2013-10-27T10:18:19Z</time>
      </trkpt>
      <trkpt lat="59.4415059" lon="17.7928568">
        <ele>14.4</ele>
        <time>2013-10-27T10:18:26Z</time>
      </trkpt>
      <trkpt lat="59.4414902" lon="17.7931496">
        <ele>14.8</ele>
        <time>2013-10-27T10:18:35Z</time>
      </trkpt>
      <trkpt lat="59.441486" lon="17.7933942">
        <ele>15.2</ele>
        <time>2013-10-27T10:18:43Z</time>
      </trkpt>
      <trkpt lat="59.4415214" lon="17.7935105">
        <ele>15.4</ele>
        <time>2013-10-27T10:18:48Z</time>
      </trkpt>
      <trkpt lat="59.4415321" lon="17.7935282">
        <ele>15.4</ele>
        <time>2013-10-27T10:18:49Z</time>
      </trkpt>
      <trkpt lat="59.4416003" lon="17.7936448">
        <ele>15.4</ele>
        <time>2013-10-27T10:18:56Z</time>
      </trkpt>
      <trkpt lat="59.4416784" lon="17.7937589">
        <ele>15.2</ele>
        <time>2013-10-27T10:19:03Z</time>
      </trkpt>
      <trkpt lat="59.4417478" lon="17.7939122">
        <ele>16.6</ele>
        <time>2013-10-27T10:19:10Z</time>
      </trkpt>
      <trkpt lat="59.4417713" lon="17.7939745">
        <ele>17.4</ele>
        <time>2013-10-27T10:19:13Z</time>
      </trkpt>
      <trkpt lat="59.4417649" lon="17.7940417">
        <ele>18.2</ele>
        <time>2013-10-27T10:19:16Z</time>
      </trkpt>
      <trkpt lat="59.441792" lon="17.7941542">
        <ele>19</ele>
        <time>2013-10-27T10:19:20Z</time>
      </trkpt>
      <trkpt lat="59.4418063" lon="17.7941772">
        <ele>19.2</ele>
        <time>2013-10-27T10:19:21Z</time>
      </trkpt>
      <trkpt lat="59.4418418" lon="17.7942567">
        <ele>19.6</ele>
        <time>2013-10-27T10:19:25Z</time>
      </trkpt>
      <trkpt lat="59.4418527" lon="17.7942712">
        <ele>19.6</ele>
        <time>2013-10-27T10:19:26Z</time>
      </trkpt>
      <trkpt lat="59.441867" lon="17.7943961">
        <ele>20.4</ele>
        <time>2013-10-27T10:19:31Z</time>
      </trkpt>
      <trkpt lat="59.4418822" lon="17.7945402">
        <ele>21.4</ele>
        <time>2013-10-27T10:19:37Z</time>
      </trkpt>
      <trkpt lat="59.441901" lon="17.7945734">
        <ele>21.4</ele>
        <time>2013-10-27T10:19:39Z</time>
      </trkpt>
      <trkpt lat="59.441923" lon="17.7945904">
        <ele>21.8</ele>
        <time>2013-10-27T10:19:41Z</time>
      </trkpt>
      <trkpt lat="59.4419472" lon="17.79461">
        <ele>22.2</ele>
        <time>2013-10-27T10:19:43Z</time>
      </trkpt>
      <trkpt lat="59.4420186" lon="17.7947197">
        <ele>23.2</ele>
        <time>2013-10-27T10:19:49Z</time>
      </trkpt>
      <trkpt lat="59.4420234" lon="17.7947477">
        <ele>23.2</ele>
        <time>2013-10-27T10:19:50Z</time>
      </trkpt>
      <trkpt lat="59.4420747" lon="17.7947922">
        <ele>23.6</ele>
        <time>2013-10-27T10:19:54Z</time>
      </trkpt>
      <trkpt lat="59.4421618" lon="17.7949104">
        <ele>23.4</ele>
        <time>2013-10-27T10:20:02Z</time>
      </trkpt>
      <trkpt lat="59.442225" lon="17.7950279">
        <ele>23.2</ele>
        <time>2013-10-27T10:20:08Z</time>
      </trkpt>
      <trkpt lat="59.4422652" lon="17.7951214">
        <ele>23</ele>
        <time>2013-10-27T10:20:13Z</time>
      </trkpt>
      <trkpt lat="59.4422688" lon="17.7951499">
        <ele>22.8</ele>
        <time>2013-10-27T10:20:14Z</time>
      </trkpt>
      <trkpt lat="59.4422805" lon="17.7952149">
        <ele>22.8</ele>
        <time>2013-10-27T10:20:16Z</time>
      </trkpt>
      <trkpt lat="59.4422868" lon="17.7952895">
        <ele>22.8</ele>
        <time>2013-10-27T10:20:19Z</time>
      </trkpt>
      <trkpt lat="59.4422801" lon="17.7953265">
        <ele>22.6</ele>
        <time>2013-10-27T10:20:21Z</time>
      </trkpt>
      <trkpt lat="59.442276" lon="17.7954625">
        <ele>22.6</ele>
        <time>2013-10-27T10:20:25Z</time>
      </trkpt>
      <trkpt lat="59.4422617" lon="17.7956315">
        <ele>22.6</ele>
        <time>2013-10-27T10:20:31Z</time>
      </trkpt>
      <trkpt lat="59.442263" lon="17.7956563">
        <ele>22.4</ele>
        <time>2013-10-27T10:20:32Z</time>
      </trkpt>
      <trkpt lat="59.4423013" lon="17.795781">
        <ele>22.6</ele>
        <time>2013-10-27T10:20:36Z</time>
      </trkpt>
      <trkpt lat="59.4423395" lon="17.7958435">
        <ele>22.8</ele>
        <time>2013-10-27T10:20:38Z</time>
      </trkpt>
      <trkpt lat="59.4423554" lon="17.7958811">
        <ele>23.2</ele>
        <time>2013-10-27T10:20:40Z</time>
      </trkpt>
      <trkpt lat="59.4423899" lon="17.7959032">
        <ele>23.6</ele>
        <time>2013-10-27T10:20:42Z</time>
      </trkpt>
      <trkpt lat="59.4424297" lon="17.7959673">
        <ele>24</ele>
        <time>2013-10-27T10:20:45Z</time>
      </trkpt>
      <trkpt lat="59.4424858" lon="17.796034">
        <ele>24.4</ele>
        <time>2013-10-27T10:20:48Z</time>
      </trkpt>
      <trkpt lat="59.4425487" lon="17.7961577">
        <ele>24.8</ele>
        <time>2013-10-27T10:20:54Z</time>
      </trkpt>
      <trkpt lat="59.4425526" lon="17.7961742">
        <ele>24.6</ele>
        <time>2013-10-27T10:20:55Z</time>
      </trkpt>
      <trkpt lat="59.44265" lon="17.7963174">
        <ele>25</ele>
        <time>2013-10-27T10:21:03Z</time>
      </trkpt>
      <trkpt lat="59.4427204" lon="17.7963841">
        <ele>24.8</ele>
        <time>2013-10-27T10:21:09Z</time>
      </trkpt>
      <trkpt lat="59.4428012" lon="17.7964332">
        <ele>24.6</ele>
        <time>2013-10-27T10:21:14Z</time>
      </trkpt>
      <trkpt lat="59.4428125" lon="17.7964498">
        <ele>24.6</ele>
        <time>2013-10-27T10:21:15Z</time>
      </trkpt>
      <trkpt lat="59.4428615" lon="17.7965429">
        <ele>24.4</ele>
        <time>2013-10-27T10:21:20Z</time>
      </trkpt>
      <trkpt lat="59.4429297" lon="17.7966753">
        <ele>24.4</ele>
        <time>2013-10-27T10:21:26Z</time>
      </trkpt>
      <trkpt lat="59.4429536" lon="17.7967498">
        <ele>24</ele>
        <time>2013-10-27T10:21:30Z</time>
      </trkpt>
      <trkpt lat="59.442965" lon="17.7967691">
        <ele>24</ele>
        <time>2013-10-27T10:21:31Z</time>
      </trkpt>
      <trkpt lat="59.4429943" lon="17.7968213">
        <ele>24</ele>
        <time>2013-10-27T10:21:33Z</time>
      </trkpt>
      <trkpt lat="59.4430533" lon="17.7969273">
        <ele>23.8</ele>
        <time>2013-10-27T10:21:38Z</time>
      </trkpt>
      <trkpt lat="59.4431156" lon="17.7971">
        <ele>23.6</ele>
        <time>2013-10-27T10:21:45Z</time>
      </trkpt>
      <trkpt lat="59.4431342" lon="17.7971599">
        <ele>23.6</ele>
        <time>2013-10-27T10:21:47Z</time>
      </trkpt>
      <trkpt lat="59.4431449" lon="17.7972492">
        <ele>23.6</ele>
        <time>2013-10-27T10:21:50Z</time>
      </trkpt>
      <trkpt lat="59.4431609" lon="17.7974476">
        <ele>24</ele>
        <time>2013-10-27T10:21:57Z</time>
      </trkpt>
      <trkpt lat="59.4431749" lon="17.7975029">
        <ele>24.2</ele>
        <time>2013-10-27T10:21:59Z</time>
      </trkpt>
      <trkpt lat="59.4432179" lon="17.7976104">
        <ele>24.6</ele>
        <time>2013-10-27T10:22:03Z</time>
      </trkpt>
      <trkpt lat="59.4432375" lon="17.7976496">
        <ele>24.8</ele>
        <time>2013-10-27T10:22:05Z</time>
      </trkpt>
      <trkpt lat="59.4432821" lon="17.7977299">
        <ele>25</ele>
        <time>2013-10-27T10:22:09Z</time>
      </trkpt>
      <trkpt lat="59.4433055" lon="17.7977656">
        <ele>25</ele>
        <time>2013-10-27T10:22:11Z</time>
      </trkpt>
      <trkpt lat="59.4433357" lon="17.7978243">
        <ele>24.8</ele>
        <time>2013-10-27T10:22:14Z</time>
      </trkpt>
      <trkpt lat="59.4433993" lon="17.7978863">
        <ele>24.6</ele>
        <time>2013-10-27T10:22:19Z</time>
      </trkpt>
      <trkpt lat="59.4434065" lon="17.7979127">
        <ele>24.6</ele>
        <time>2013-10-27T10:22:20Z</time>
      </trkpt>
      <trkpt lat="59.4434598" lon="17.7980057">
        <ele>24.6</ele>
        <time>2013-10-27T10:22:24Z</time>
      </trkpt>
      <trkpt lat="59.4435466" lon="17.7980691">
        <ele>24.6</ele>
        <time>2013-10-27T10:22:30Z</time>
      </trkpt>
      <trkpt lat="59.4436374" lon="17.7980753">
        <ele>25.4</ele>
        <time>2013-10-27T10:22:36Z</time>
      </trkpt>
      <trkpt lat="59.443754" lon="17.7980479">
        <ele>26.2</ele>
        <time>2013-10-27T10:22:43Z</time>
      </trkpt>
      <trkpt lat="59.4438477" lon="17.7979904">
        <ele>27.4</ele>
        <time>2013-10-27T10:22:50Z</time>
      </trkpt>
      <trkpt lat="59.4439469" lon="17.7979874">
        <ele>29.2</ele>
        <time>2013-10-27T10:22:58Z</time>
      </trkpt>
      <trkpt lat="59.444008" lon="17.7980101">
        <ele>29.8</ele>
        <time>2013-10-27T10:23:02Z</time>
      </trkpt>
      <trkpt lat="59.444075" lon="17.798069">
        <ele>30.4</ele>
        <time>2013-10-27T10:23:07Z</time>
      </trkpt>
      <trkpt lat="59.4440967" lon="17.7980796">
        <ele>30.4</ele>
        <time>2013-10-27T10:23:08Z</time>
      </trkpt>
      <trkpt lat="59.4441553" lon="17.7981144">
        <ele>30.4</ele>
        <time>2013-10-27T10:23:12Z</time>
      </trkpt>
      <trkpt lat="59.4442543" lon="17.7981681">
        <ele>31</ele>
        <time>2013-10-27T10:23:18Z</time>
      </trkpt>
      <trkpt lat="59.4443414" lon="17.7982061">
        <ele>32</ele>
        <time>2013-10-27T10:23:23Z</time>
      </trkpt>
      <trkpt lat="59.444365" lon="17.798223">
        <ele>32.4</ele>
        <time>2013-10-27T10:23:25Z</time>
      </trkpt>
      <trkpt lat="59.444392" lon="17.7982153">
        <ele>32.4</ele>
        <time>2013-10-27T10:23:28Z</time>
      </trkpt>
      <trkpt lat="59.4444073" lon="17.7982353">
        <ele>32.4</ele>
        <time>2013-10-27T10:23:29Z</time>
      </trkpt>
      <trkpt lat="59.4445016" lon="17.7982687">
        <ele>33</ele>
        <time>2013-10-27T10:23:34Z</time>
      </trkpt>
      <trkpt lat="59.444591" lon="17.7982709">
        <ele>33</ele>
        <time>2013-10-27T10:23:39Z</time>
      </trkpt>
      <trkpt lat="59.4447063" lon="17.7982767">
        <ele>34.2</ele>
        <time>2013-10-27T10:23:45Z</time>
      </trkpt>
      <trkpt lat="59.444804" lon="17.7982778">
        <ele>35.6</ele>
        <time>2013-10-27T10:23:51Z</time>
      </trkpt>
      <trkpt lat="59.4448582" lon="17.7982561">
        <ele>36</ele>
        <time>2013-10-27T10:23:55Z</time>
      </trkpt>
      <trkpt lat="59.4448718" lon="17.7982569">
        <ele>36.2</ele>
        <time>2013-10-27T10:23:56Z</time>
      </trkpt>
      <trkpt lat="59.4449543" lon="17.7982431">
        <ele>36.6</ele>
        <time>2013-10-27T10:24:01Z</time>
      </trkpt>
      <trkpt lat="59.4450707" lon="17.7982127">
        <ele>37.2</ele>
        <time>2013-10-27T10:24:07Z</time>
      </trkpt>
      <trkpt lat="59.4451421" lon="17.7982186">
        <ele>37.4</ele>
        <time>2013-10-27T10:24:12Z</time>
      </trkpt>
      <trkpt lat="59.4452405" lon="17.7982112">
        <ele>38.4</ele>
        <time>2013-10-27T10:24:18Z</time>
      </trkpt>
      <trkpt lat="59.4452735" lon="17.7982266">
        <ele>38.8</ele>
        <time>2013-10-27T10:24:20Z</time>
      </trkpt>
      <trkpt lat="59.4453191" lon="17.7982215">
        <ele>39</ele>
        <time>2013-10-27T10:24:23Z</time>
      </trkpt>
      <trkpt lat="59.4454192" lon="17.798179">
        <ele>39</ele>
        <time>2013-10-27T10:24:30Z</time>
      </trkpt>
      <trkpt lat="59.4454416" lon="17.7981611">
        <ele>38.8</ele>
        <time>2013-10-27T10:24:32Z</time>
      </trkpt>
      <trkpt lat="59.4454968" lon="17.7981465">
        <ele>39</ele>
        <time>2013-10-27T10:24:35Z</time>
      </trkpt>
      <trkpt lat="59.4456167" lon="17.7981783">
        <ele>39.2</ele>
        <time>2013-10-27T10:24:43Z</time>
      </trkpt>
      <trkpt lat="59.4456615" lon="17.7981831">
        <ele>39.2</ele>
        <time>2013-10-27T10:24:46Z</time>
      </trkpt>
      <trkpt lat="59.445714" lon="17.7981857">
        <ele>39.2</ele>
        <time>2013-10-27T10:24:49Z</time>
      </trkpt>
      <trkpt lat="59.4458114" lon="17.7981835">
        <ele>39.2</ele>
        <time>2013-10-27T10:24:54Z</time>
      </trkpt>
      <trkpt lat="59.4458525" lon="17.7981882">
        <ele>39</ele>
        <time>2013-10-27T10:24:57Z</time>
      </trkpt>
      <trkpt lat="59.4458996" lon="17.7981695">
        <ele>38.8</ele>
        <time>2013-10-27T10:25:00Z</time>
      </trkpt>
      <trkpt lat="59.4460091" lon="17.7981544">
        <ele>38.8</ele>
        <time>2013-10-27T10:25:05Z</time>
      </trkpt>
      <trkpt lat="59.4461058" lon="17.7981124">
        <ele>38.6</ele>
        <time>2013-10-27T10:25:11Z</time>
      </trkpt>
      <trkpt lat="59.4461766" lon="17.7980746">
        <ele>38.4</ele>
        <time>2013-10-27T10:25:16Z</time>
      </trkpt>
      <trkpt lat="59.4462005" lon="17.7980589">
        <ele>38.2</ele>
        <time>2013-10-27T10:25:18Z</time>
      </trkpt>
      <trkpt lat="59.4462418" lon="17.798017">
        <ele>38</ele>
        <time>2013-10-27T10:25:21Z</time>
      </trkpt>
      <trkpt lat="59.44628" lon="17.7979813">
        <ele>37.8</ele>
        <time>2013-10-27T10:25:24Z</time>
      </trkpt>
      <trkpt lat="59.4463176" lon="17.7979539">
        <ele>37.6</ele>
        <time>2013-10-27T10:25:27Z</time>
      </trkpt>
      <trkpt lat="59.4463921" lon="17.7979056">
        <ele>37</ele>
        <time>2013-10-27T10:25:32Z</time>
      </trkpt>
      <trkpt lat="59.4464249" lon="17.7979028">
        <ele>36.8</ele>
        <time>2013-10-27T10:25:34Z</time>
      </trkpt>
      <trkpt lat="59.4464458" lon="17.7978917">
        <ele>36.8</ele>
        <time>2013-10-27T10:25:36Z</time>
      </trkpt>
      <trkpt lat="59.4465035" lon="17.7978516">
        <ele>36.4</ele>
        <time>2013-10-27T10:25:39Z</time>
      </trkpt>
      <trkpt lat="59.4465907" lon="17.797797">
        <ele>35.8</ele>
        <time>2013-10-27T10:25:45Z</time>
      </trkpt>
      <trkpt lat="59.4466562" lon="17.7977154">
        <ele>35.4</ele>
        <time>2013-10-27T10:25:50Z</time>
      </trkpt>
      <trkpt lat="59.4467183" lon="17.7976407">
        <ele>35</ele>
        <time>2013-10-27T10:25:55Z</time>
      </trkpt>
      <trkpt lat="59.4467944" lon="17.797542">
        <ele>34.8</ele>
        <time>2013-10-27T10:26:00Z</time>
      </trkpt>
      <trkpt lat="59.4468182" lon="17.7975046">
        <ele>34.8</ele>
        <time>2013-10-27T10:26:02Z</time>
      </trkpt>
      <trkpt lat="59.4468459" lon="17.7974346">
        <ele>34.4</ele>
        <time>2013-10-27T10:26:06Z</time>
      </trkpt>
      <trkpt lat="59.4469102" lon="17.7972714">
        <ele>34</ele>
        <time>2013-10-27T10:26:12Z</time>
      </trkpt>
      <trkpt lat="59.44698" lon="17.7971248">
        <ele>33.4</ele>
        <time>2013-10-27T10:26:18Z</time>
      </trkpt>
      <trkpt lat="59.4470604" lon="17.7970311">
        <ele>33</ele>
        <time>2013-10-27T10:26:25Z</time>
      </trkpt>
      <trkpt lat="59.447147" lon="17.7970035">
        <ele>32.6</ele>
        <time>2013-10-27T10:26:30Z</time>
      </trkpt>
      <trkpt lat="59.4472095" lon="17.7970118">
        <ele>32.4</ele>
        <time>2013-10-27T10:26:34Z</time>
      </trkpt>
      <trkpt lat="59.44724" lon="17.7970201">
        <ele>32.2</ele>
        <time>2013-10-27T10:26:36Z</time>
      </trkpt>
      <trkpt lat="59.4473444" lon="17.7969661">
        <ele>32</ele>
        <time>2013-10-27T10:26:42Z</time>
      </trkpt>
      <trkpt lat="59.4474242" lon="17.7969108">
        <ele>31.6</ele>
        <time>2013-10-27T10:26:47Z</time>
      </trkpt>
      <trkpt lat="59.4474956" lon="17.7968218">
        <ele>31.4</ele>
        <time>2013-10-27T10:26:52Z</time>
      </trkpt>
      <trkpt lat="59.4475273" lon="17.7968001">
        <ele>31.2</ele>
        <time>2013-10-27T10:26:54Z</time>
      </trkpt>
      <trkpt lat="59.4475958" lon="17.7966965">
        <ele>31.2</ele>
        <time>2013-10-27T10:26:58Z</time>
      </trkpt>
      <trkpt lat="59.4476836" lon="17.7966021">
        <ele>30.8</ele>
        <time>2013-10-27T10:27:04Z</time>
      </trkpt>
      <trkpt lat="59.4477337" lon="17.7965136">
        <ele>30.8</ele>
        <time>2013-10-27T10:27:08Z</time>
      </trkpt>
      <trkpt lat="59.4477627" lon="17.7964682">
        <ele>30.8</ele>
        <time>2013-10-27T10:27:10Z</time>
      </trkpt>
      <trkpt lat="59.4478672" lon="17.796441">
        <ele>30.8</ele>
        <time>2013-10-27T10:27:17Z</time>
      </trkpt>
      <trkpt lat="59.4478872" lon="17.7964512">
        <ele>30.8</ele>
        <time>2013-10-27T10:27:18Z</time>
      </trkpt>
      <trkpt lat="59.4479473" lon="17.7964716">
        <ele>31.2</ele>
        <time>2013-10-27T10:27:22Z</time>
      </trkpt>
      <trkpt lat="59.4479491" lon="17.7964761">
        <ele>31.2</ele>
        <time>2013-10-27T10:27:23Z</time>
      </trkpt>
      <trkpt lat="59.4479988" lon="17.7964676">
        <ele>31.2</ele>
        <time>2013-10-27T10:27:27Z</time>
      </trkpt>
      <trkpt lat="59.4480714" lon="17.7964801">
        <ele>31.2</ele>
        <time>2013-10-27T10:27:32Z</time>
      </trkpt>
      <trkpt lat="59.4481131" lon="17.7964815">
        <ele>31.2</ele>
        <time>2013-10-27T10:27:34Z</time>
      </trkpt>
      <trkpt lat="59.4481297" lon="17.7964635">
        <ele>31.4</ele>
        <time>2013-10-27T10:27:35Z</time>
      </trkpt>
      <trkpt lat="59.4481513" lon="17.7964969">
        <ele>31.4</ele>
        <time>2013-10-27T10:27:37Z</time>
      </trkpt>
      <trkpt lat="59.4482086" lon="17.7965439">
        <ele>31.6</ele>
        <time>2013-10-27T10:27:41Z</time>
      </trkpt>
      <trkpt lat="59.4483156" lon="17.7965869">
        <ele>32.2</ele>
        <time>2013-10-27T10:27:48Z</time>
      </trkpt>
      <trkpt lat="59.4484034" lon="17.7966128">
        <ele>32.2</ele>
        <time>2013-10-27T10:27:54Z</time>
      </trkpt>
      <trkpt lat="59.4484389" lon="17.7966109">
        <ele>32.2</ele>
        <time>2013-10-27T10:27:57Z</time>
      </trkpt>
      <trkpt lat="59.4484943" lon="17.7966131">
        <ele>32.2</ele>
        <time>2013-10-27T10:28:00Z</time>
      </trkpt>
      <trkpt lat="59.4485135" lon="17.7966006">
        <ele>32.2</ele>
        <time>2013-10-27T10:28:01Z</time>
      </trkpt>
      <trkpt lat="59.4485822" lon="17.796559">
        <ele>32</ele>
        <time>2013-10-27T10:28:07Z</time>
      </trkpt>
      <trkpt lat="59.4485921" lon="17.7965328">
        <ele>32</ele>
        <time>2013-10-27T10:28:08Z</time>
      </trkpt>
      <trkpt lat="59.4486537" lon="17.7965405">
        <ele>32</ele>
        <time>2013-10-27T10:28:13Z</time>
      </trkpt>
      <trkpt lat="59.4487166" lon="17.7967152">
        <ele>32</ele>
        <time>2013-10-27T10:28:18Z</time>
      </trkpt>
      <trkpt lat="59.4487256" lon="17.79683">
        <ele>32.2</ele>
        <time>2013-10-27T10:28:22Z</time>
      </trkpt>
      <trkpt lat="59.448731" lon="17.7968771">
        <ele>32.2</ele>
        <time>2013-10-27T10:28:24Z</time>
      </trkpt>
      <trkpt lat="59.4487653" lon="17.7970025">
        <ele>32.6</ele>
        <time>2013-10-27T10:28:28Z</time>
      </trkpt>
      <trkpt lat="59.448819" lon="17.7971585">
        <ele>32.8</ele>
        <time>2013-10-27T10:28:33Z</time>
      </trkpt>
      <trkpt lat="59.4488479" lon="17.7972597">
        <ele>32.8</ele>
        <time>2013-10-27T10:28:38Z</time>
      </trkpt>
      <trkpt lat="59.4488544" lon="17.7972854">
        <ele>32.8</ele>
        <time>2013-10-27T10:28:39Z</time>
      </trkpt>
      <trkpt lat="59.4489064" lon="17.79746">
        <ele>33</ele>
        <time>2013-10-27T10:28:44Z</time>
      </trkpt>
      <trkpt lat="59.4489411" lon="17.7975305">
        <ele>33.6</ele>
        <time>2013-10-27T10:28:47Z</time>
      </trkpt>
      <trkpt lat="59.448976" lon="17.797585">
        <ele>34</ele>
        <time>2013-10-27T10:28:49Z</time>
      </trkpt>
      <trkpt lat="59.4490233" lon="17.7976567">
        <ele>34.8</ele>
        <time>2013-10-27T10:28:53Z</time>
      </trkpt>
      <trkpt lat="59.4490302" lon="17.7977097">
        <ele>35.2</ele>
        <time>2013-10-27T10:28:56Z</time>
      </trkpt>
      <trkpt lat="59.4490208" lon="17.7977985">
        <ele>35.4</ele>
        <time>2013-10-27T10:28:59Z</time>
      </trkpt>
      <trkpt lat="59.4490107" lon="17.7978544">
        <ele>35.4</ele>
        <time>2013-10-27T10:29:01Z</time>
      </trkpt>
      <trkpt lat="59.4489874" lon="17.7979244">
        <ele>35.2</ele>
        <time>2013-10-27T10:29:04Z</time>
      </trkpt>
      <trkpt lat="59.4489791" lon="17.7980102">
        <ele>35</ele>
        <time>2013-10-27T10:29:07Z</time>
      </trkpt>
      <trkpt lat="59.4489668" lon="17.7980621">
        <ele>35</ele>
        <time>2013-10-27T10:29:09Z</time>
      </trkpt>
      <trkpt lat="59.4489402" lon="17.7981883">
        <ele>34.6</ele>
        <time>2013-10-27T10:29:14Z</time>
      </trkpt>
      <trkpt lat="59.4489231" lon="17.7983747">
        <ele>34.6</ele>
        <time>2013-10-27T10:29:19Z</time>
      </trkpt>
      <trkpt lat="59.4488991" lon="17.7985732">
        <ele>34.6</ele>
        <time>2013-10-27T10:29:25Z</time>
      </trkpt>
      <trkpt lat="59.4488809" lon="17.7988747">
        <ele>34.6</ele>
        <time>2013-10-27T10:29:34Z</time>
      </trkpt>
      <trkpt lat="59.448902" lon="17.7990726">
        <ele>34.4</ele>
        <time>2013-10-27T10:29:40Z</time>
      </trkpt>
      <trkpt lat="59.4489665" lon="17.7992983">
        <ele>34</ele>
        <time>2013-10-27T10:29:48Z</time>
      </trkpt>
      <trkpt lat="59.449036" lon="17.7994929">
        <ele>33.6</ele>
        <time>2013-10-27T10:29:55Z</time>
      </trkpt>
      <trkpt lat="59.4491159" lon="17.7997175">
        <ele>33.2</ele>
        <time>2013-10-27T10:30:03Z</time>
      </trkpt>
      <trkpt lat="59.4492052" lon="17.7998922">
        <ele>32.8</ele>
        <time>2013-10-27T10:30:11Z</time>
      </trkpt>
      <trkpt lat="59.4492829" lon="17.799984">
        <ele>32.4</ele>
        <time>2013-10-27T10:30:17Z</time>
      </trkpt>
      <trkpt lat="59.4493464" lon="17.8000691">
        <ele>32</ele>
        <time>2013-10-27T10:30:22Z</time>
      </trkpt>
      <trkpt lat="59.4494493" lon="17.800171">
        <ele>31.6</ele>
        <time>2013-10-27T10:30:29Z</time>
      </trkpt>
      <trkpt lat="59.4495603" lon="17.800335">
        <ele>31</ele>
        <time>2013-10-27T10:30:38Z</time>
      </trkpt>
      <trkpt lat="59.4496491" lon="17.8004271">
        <ele>30.8</ele>
        <time>2013-10-27T10:30:44Z</time>
      </trkpt>
      <trkpt lat="59.4497411" lon="17.8005583">
        <ele>30.8</ele>
        <time>2013-10-27T10:30:51Z</time>
      </trkpt>
      <trkpt lat="59.4498566" lon="17.8006386">
        <ele>30.4</ele>
        <time>2013-10-27T10:30:58Z</time>
      </trkpt>
      <trkpt lat="59.4499587" lon="17.800751">
        <ele>30</ele>
        <time>2013-10-27T10:31:04Z</time>
      </trkpt>
      <trkpt lat="59.4500462" lon="17.8008337">
        <ele>29.8</ele>
        <time>2013-10-27T10:31:10Z</time>
      </trkpt>
      <trkpt lat="59.4501624" lon="17.8009356">
        <ele>29.2</ele>
        <time>2013-10-27T10:31:18Z</time>
      </trkpt>
      <trkpt lat="59.4502076" lon="17.8009922">
        <ele>29</ele>
        <time>2013-10-27T10:31:21Z</time>
      </trkpt>
      <trkpt lat="59.4502779" lon="17.8010677">
        <ele>28.8</ele>
        <time>2013-10-27T10:31:26Z</time>
      </trkpt>
      <trkpt lat="59.4503756" lon="17.8012046">
        <ele>28.2</ele>
        <time>2013-10-27T10:31:33Z</time>
      </trkpt>
      <trkpt lat="59.450455" lon="17.8013936">
        <ele>27.8</ele>
        <time>2013-10-27T10:31:41Z</time>
      </trkpt>
      <trkpt lat="59.4505031" lon="17.8016305">
        <ele>27.4</ele>
        <time>2013-10-27T10:31:49Z</time>
      </trkpt>
      <trkpt lat="59.4505475" lon="17.8018558">
        <ele>27</ele>
        <time>2013-10-27T10:31:56Z</time>
      </trkpt>
      <trkpt lat="59.450595" lon="17.8020748">
        <ele>26.8</ele>
        <time>2013-10-27T10:32:04Z</time>
      </trkpt>
      <trkpt lat="59.4506584" lon="17.8022962">
        <ele>26.4</ele>
        <time>2013-10-27T10:32:12Z</time>
      </trkpt>
      <trkpt lat="59.4507074" lon="17.8025397">
        <ele>26</ele>
        <time>2013-10-27T10:32:20Z</time>
      </trkpt>
      <trkpt lat="59.4507658" lon="17.8027546">
        <ele>25.6</ele>
        <time>2013-10-27T10:32:27Z</time>
      </trkpt>
      <trkpt lat="59.4508674" lon="17.8029336">
        <ele>25</ele>
        <time>2013-10-27T10:32:36Z</time>
      </trkpt>
      <trkpt lat="59.4509243" lon="17.803019">
        <ele>24.4</ele>
        <time>2013-10-27T10:32:41Z</time>
      </trkpt>
      <trkpt lat="59.4510053" lon="17.8031675">
        <ele>23.8</ele>
        <time>2013-10-27T10:32:48Z</time>
      </trkpt>
      <trkpt lat="59.4510644" lon="17.8032577">
        <ele>23.2</ele>
        <time>2013-10-27T10:32:53Z</time>
      </trkpt>
      <trkpt lat="59.4511553" lon="17.8034211">
        <ele>22.6</ele>
        <time>2013-10-27T10:33:00Z</time>
      </trkpt>
      <trkpt lat="59.4512619" lon="17.8035697">
        <ele>22.4</ele>
        <time>2013-10-27T10:33:07Z</time>
      </trkpt>
      <trkpt lat="59.4513375" lon="17.8036813">
        <ele>22.2</ele>
        <time>2013-10-27T10:33:12Z</time>
      </trkpt>
      <trkpt lat="59.4514274" lon="17.8038564">
        <ele>21.8</ele>
        <time>2013-10-27T10:33:19Z</time>
      </trkpt>
      <trkpt lat="59.4514841" lon="17.8039249">
        <ele>21.8</ele>
        <time>2013-10-27T10:33:24Z</time>
      </trkpt>
      <trkpt lat="59.4515508" lon="17.8040249">
        <ele>22</ele>
        <time>2013-10-27T10:33:28Z</time>
      </trkpt>
      <trkpt lat="59.4515798" lon="17.8040521">
        <ele>22.4</ele>
        <time>2013-10-27T10:33:30Z</time>
      </trkpt>
      <trkpt lat="59.4516433" lon="17.8041015">
        <ele>23</ele>
        <time>2013-10-27T10:33:34Z</time>
      </trkpt>
      <trkpt lat="59.4516768" lon="17.8041341">
        <ele>23.4</ele>
        <time>2013-10-27T10:33:36Z</time>
      </trkpt>
      <trkpt lat="59.4517817" lon="17.8041771">
        <ele>24.4</ele>
        <time>2013-10-27T10:33:41Z</time>
      </trkpt>
      <trkpt lat="59.4518671" lon="17.8042357">
        <ele>25</ele>
        <time>2013-10-27T10:33:48Z</time>
      </trkpt>
      <trkpt lat="59.4519735" lon="17.804235">
        <ele>25.2</ele>
        <time>2013-10-27T10:33:55Z</time>
      </trkpt>
      <trkpt lat="59.4520682" lon="17.8042687">
        <ele>25.4</ele>
        <time>2013-10-27T10:34:01Z</time>
      </trkpt>
      <trkpt lat="59.4521478" lon="17.8043016">
        <ele>25.4</ele>
        <time>2013-10-27T10:34:05Z</time>
      </trkpt>
      <trkpt lat="59.4522448" lon="17.8043407">
        <ele>25.4</ele>
        <time>2013-10-27T10:34:12Z</time>
      </trkpt>
      <trkpt lat="59.4522632" lon="17.8043516">
        <ele>25.4</ele>
        <time>2013-10-27T10:34:13Z</time>
      </trkpt>
      <trkpt lat="59.4523577" lon="17.8043664">
        <ele>25.4</ele>
        <time>2013-10-27T10:34:19Z</time>
      </trkpt>
      <trkpt lat="59.4524483" lon="17.8044098">
        <ele>25.6</ele>
        <time>2013-10-27T10:34:25Z</time>
      </trkpt>
      <trkpt lat="59.4525347" lon="17.8044155">
        <ele>25.4</ele>
        <time>2013-10-27T10:34:31Z</time>
      </trkpt>
      <trkpt lat="59.4526258" lon="17.8042931">
        <ele>25.2</ele>
        <time>2013-10-27T10:34:37Z</time>
      </trkpt>
      <trkpt lat="59.4526978" lon="17.8042332">
        <ele>25</ele>
        <time>2013-10-27T10:34:43Z</time>
      </trkpt>
      <trkpt lat="59.452778" lon="17.8042193">
        <ele>25</ele>
        <time>2013-10-27T10:34:49Z</time>
      </trkpt>
      <trkpt lat="59.4528107" lon="17.8041889">
        <ele>24.8</ele>
        <time>2013-10-27T10:34:51Z</time>
      </trkpt>
      <trkpt lat="59.4528269" lon="17.8041686">
        <ele>24.6</ele>
        <time>2013-10-27T10:34:53Z</time>
      </trkpt>
      <trkpt lat="59.4528451" lon="17.8041503">
        <ele>24.6</ele>
        <time>2013-10-27T10:34:55Z</time>
      </trkpt>
      <trkpt lat="59.4528768" lon="17.8041128">
        <ele>24.2</ele>
        <time>2013-10-27T10:34:59Z</time>
      </trkpt>
      <trkpt lat="59.4529115" lon="17.8040805">
        <ele>23.8</ele>
        <time>2013-10-27T10:35:02Z</time>
      </trkpt>
      <trkpt lat="59.4529842" lon="17.80413">
        <ele>23.6</ele>
        <time>2013-10-27T10:35:08Z</time>
      </trkpt>
      <trkpt lat="59.4530267" lon="17.8042817">
        <ele>23.4</ele>
        <time>2013-10-27T10:35:14Z</time>
      </trkpt>
      <trkpt lat="59.4530321" lon="17.8043045">
        <ele>23.4</ele>
        <time>2013-10-27T10:35:15Z</time>
      </trkpt>
      <trkpt lat="59.453071" lon="17.8044218">
        <ele>23.2</ele>
        <time>2013-10-27T10:35:19Z</time>
      </trkpt>
      <trkpt lat="59.4530892" lon="17.8044713">
        <ele>23.4</ele>
        <time>2013-10-27T10:35:21Z</time>
      </trkpt>
      <trkpt lat="59.4531367" lon="17.8045848">
        <ele>23.6</ele>
        <time>2013-10-27T10:35:26Z</time>
      </trkpt>
      <trkpt lat="59.4531447" lon="17.8046004">
        <ele>23.6</ele>
        <time>2013-10-27T10:35:27Z</time>
      </trkpt>
      <trkpt lat="59.4532236" lon="17.8047993">
        <ele>23.8</ele>
        <time>2013-10-27T10:35:36Z</time>
      </trkpt>
      <trkpt lat="59.4532974" lon="17.8049536">
        <ele>24.2</ele>
        <time>2013-10-27T10:35:43Z</time>
      </trkpt>
      <trkpt lat="59.4533155" lon="17.8050384">
        <ele>24.6</ele>
        <time>2013-10-27T10:35:46Z</time>
      </trkpt>
      <trkpt lat="59.4533372" lon="17.8050763">
        <ele>24.6</ele>
        <time>2013-10-27T10:35:48Z</time>
      </trkpt>
      <trkpt lat="59.4533879" lon="17.8051893">
        <ele>25</ele>
        <time>2013-10-27T10:35:54Z</time>
      </trkpt>
      <trkpt lat="59.4533947" lon="17.805207">
        <ele>25</ele>
        <time>2013-10-27T10:35:55Z</time>
      </trkpt>
      <trkpt lat="59.4534365" lon="17.8053461">
        <ele>24.8</ele>
        <time>2013-10-27T10:36:01Z</time>
      </trkpt>
      <trkpt lat="59.4535081" lon="17.8055273">
        <ele>24.8</ele>
        <time>2013-10-27T10:36:08Z</time>
      </trkpt>
      <trkpt lat="59.4535839" lon="17.80573">
        <ele>24.8</ele>
        <time>2013-10-27T10:36:16Z</time>
      </trkpt>
      <trkpt lat="59.453639" lon="17.8059302">
        <ele>24.8</ele>
        <time>2013-10-27T10:36:23Z</time>
      </trkpt>
      <trkpt lat="59.4536748" lon="17.8060981">
        <ele>24.6</ele>
        <time>2013-10-27T10:36:29Z</time>
      </trkpt>
      <trkpt lat="59.4537434" lon="17.8062606">
        <ele>24.8</ele>
        <time>2013-10-27T10:36:35Z</time>
      </trkpt>
      <trkpt lat="59.4537968" lon="17.8063989">
        <ele>24.8</ele>
        <time>2013-10-27T10:36:41Z</time>
      </trkpt>
      <trkpt lat="59.4538445" lon="17.8065122">
        <ele>24.8</ele>
        <time>2013-10-27T10:36:46Z</time>
      </trkpt>
      <trkpt lat="59.4538511" lon="17.8065329">
        <ele>24.6</ele>
        <time>2013-10-27T10:36:47Z</time>
      </trkpt>
      <trkpt lat="59.4538479" lon="17.8066676">
        <ele>24.6</ele>
        <time>2013-10-27T10:36:53Z</time>
      </trkpt>
      <trkpt lat="59.4538543" lon="17.8067207">
        <ele>24.6</ele>
        <time>2013-10-27T10:36:55Z</time>
      </trkpt>
      <trkpt lat="59.4538567" lon="17.8069342">
        <ele>28</ele>
        <time>2013-10-27T10:42:57Z</time>
      </trkpt>
      <trkpt lat="59.453858" lon="17.8069198">
        <ele>27.8</ele>
        <time>2013-10-27T10:42:58Z</time>
      </trkpt>
      <trkpt lat="59.45386" lon="17.8069099">
        <ele>27.8</ele>
        <time>2013-10-27T10:42:59Z</time>
      </trkpt>
      <trkpt lat="59.4538662" lon="17.8068896">
        <ele>27.8</ele>
        <time>2013-10-27T10:43:00Z</time>
      </trkpt>
      <trkpt lat="59.4539132" lon="17.8067902">
        <ele>27.6</ele>
        <time>2013-10-27T10:43:04Z</time>
      </trkpt>
      <trkpt lat="59.453967" lon="17.8067335">
        <ele>27.8</ele>
        <time>2013-10-27T10:43:07Z</time>
      </trkpt>
      <trkpt lat="59.453984" lon="17.8066796">
        <ele>28</ele>
        <time>2013-10-27T10:43:09Z</time>
      </trkpt>
      <trkpt lat="59.4540035" lon="17.8066527">
        <ele>28.2</ele>
        <time>2013-10-27T10:43:12Z</time>
      </trkpt>
      <trkpt lat="59.4540195" lon="17.8066248">
        <ele>28.8</ele>
        <time>2013-10-27T10:43:14Z</time>
      </trkpt>
      <trkpt lat="59.4540438" lon="17.8066239">
        <ele>29.8</ele>
        <time>2013-10-27T10:43:17Z</time>
      </trkpt>
      <trkpt lat="59.4540912" lon="17.8065156">
        <ele>30.8</ele>
        <time>2013-10-27T10:43:21Z</time>
      </trkpt>
      <trkpt lat="59.4541588" lon="17.8062943">
        <ele>31.4</ele>
        <time>2013-10-27T10:43:28Z</time>
      </trkpt>
      <trkpt lat="59.4542123" lon="17.8061385">
        <ele>31.8</ele>
        <time>2013-10-27T10:43:34Z</time>
      </trkpt>
      <trkpt lat="59.454274" lon="17.8059636">
        <ele>32.2</ele>
        <time>2013-10-27T10:43:41Z</time>
      </trkpt>
      <trkpt lat="59.4543358" lon="17.8058744">
        <ele>32.6</ele>
        <time>2013-10-27T10:43:47Z</time>
      </trkpt>
      <trkpt lat="59.4543398" lon="17.8058417">
        <ele>32.8</ele>
        <time>2013-10-27T10:43:48Z</time>
      </trkpt>
      <trkpt lat="59.4543596" lon="17.8056847">
        <ele>33.4</ele>
        <time>2013-10-27T10:43:53Z</time>
      </trkpt>
      <trkpt lat="59.4544201" lon="17.8055342">
        <ele>34.4</ele>
        <time>2013-10-27T10:43:59Z</time>
      </trkpt>
      <trkpt lat="59.4544363" lon="17.8055204">
        <ele>34.6</ele>
        <time>2013-10-27T10:44:00Z</time>
      </trkpt>
      <trkpt lat="59.4545219" lon="17.805393">
        <ele>35.8</ele>
        <time>2013-10-27T10:44:07Z</time>
      </trkpt>
      <trkpt lat="59.4545973" lon="17.8052349">
        <ele>36</ele>
        <time>2013-10-27T10:44:14Z</time>
      </trkpt>
      <trkpt lat="59.4546987" lon="17.8051267">
        <ele>36</ele>
        <time>2013-10-27T10:44:21Z</time>
      </trkpt>
      <trkpt lat="59.4548384" lon="17.8050458">
        <ele>35.6</ele>
        <time>2013-10-27T10:44:29Z</time>
      </trkpt>
      <trkpt lat="59.4549291" lon="17.8049376">
        <ele>35</ele>
        <time>2013-10-27T10:44:37Z</time>
      </trkpt>
      <trkpt lat="59.4550259" lon="17.8048719">
        <ele>34.8</ele>
        <time>2013-10-27T10:44:44Z</time>
      </trkpt>
      <trkpt lat="59.4551657" lon="17.8047786">
        <ele>34.4</ele>
        <time>2013-10-27T10:44:53Z</time>
      </trkpt>
      <trkpt lat="59.4552543" lon="17.804713">
        <ele>34.2</ele>
        <time>2013-10-27T10:45:00Z</time>
      </trkpt>
      <trkpt lat="59.4552677" lon="17.804699">
        <ele>34.2</ele>
        <time>2013-10-27T10:45:01Z</time>
      </trkpt>
      <trkpt lat="59.4553088" lon="17.8047145">
        <ele>34.6</ele>
        <time>2013-10-27T10:45:05Z</time>
      </trkpt>
      <trkpt lat="59.4553306" lon="17.8046824">
        <ele>34.8</ele>
        <time>2013-10-27T10:45:09Z</time>
      </trkpt>
      <trkpt lat="59.4553458" lon="17.8046577">
        <ele>34.8</ele>
        <time>2013-10-27T10:45:10Z</time>
      </trkpt>
      <trkpt lat="59.4554247" lon="17.8046818">
        <ele>34.4</ele>
        <time>2013-10-27T10:45:15Z</time>
      </trkpt>
      <trkpt lat="59.4554923" lon="17.8047179">
        <ele>34.2</ele>
        <time>2013-10-27T10:45:18Z</time>
      </trkpt>
      <trkpt lat="59.4555966" lon="17.8047817">
        <ele>34.4</ele>
        <time>2013-10-27T10:45:22Z</time>
      </trkpt>
      <trkpt lat="59.4557292" lon="17.8047961">
        <ele>34.2</ele>
        <time>2013-10-27T10:45:29Z</time>
      </trkpt>
      <trkpt lat="59.4558449" lon="17.8048347">
        <ele>34</ele>
        <time>2013-10-27T10:45:35Z</time>
      </trkpt>
      <trkpt lat="59.4559634" lon="17.8048951">
        <ele>33.6</ele>
        <time>2013-10-27T10:45:42Z</time>
      </trkpt>
      <trkpt lat="59.4560535" lon="17.8049592">
        <ele>33.4</ele>
        <time>2013-10-27T10:45:48Z</time>
      </trkpt>
      <trkpt lat="59.4561866" lon="17.8050852">
        <ele>33</ele>
        <time>2013-10-27T10:45:57Z</time>
      </trkpt>
      <trkpt lat="59.456307" lon="17.8052615">
        <ele>33</ele>
        <time>2013-10-27T10:46:05Z</time>
      </trkpt>
      <trkpt lat="59.456383" lon="17.8052757">
        <ele>32.8</ele>
        <time>2013-10-27T10:46:10Z</time>
      </trkpt>
      <trkpt lat="59.4565046" lon="17.8053374">
        <ele>32.8</ele>
        <time>2013-10-27T10:46:18Z</time>
      </trkpt>
      <trkpt lat="59.4566321" lon="17.8053971">
        <ele>32.6</ele>
        <time>2013-10-27T10:46:26Z</time>
      </trkpt>
      <trkpt lat="59.4567692" lon="17.805504">
        <ele>32.4</ele>
        <time>2013-10-27T10:46:35Z</time>
      </trkpt>
      <trkpt lat="59.4569124" lon="17.8056099">
        <ele>32.6</ele>
        <time>2013-10-27T10:46:45Z</time>
      </trkpt>
      <trkpt lat="59.4570547" lon="17.8056521">
        <ele>32.8</ele>
        <time>2013-10-27T10:46:54Z</time>
      </trkpt>
      <trkpt lat="59.4570862" lon="17.8056564">
        <ele>32.8</ele>
        <time>2013-10-27T10:46:56Z</time>
      </trkpt>
      <trkpt lat="59.4571349" lon="17.8055135">
        <ele>32.6</ele>
        <time>2013-10-27T10:47:00Z</time>
      </trkpt>
      <trkpt lat="59.4572181" lon="17.8053057">
        <ele>32.2</ele>
        <time>2013-10-27T10:47:07Z</time>
      </trkpt>
      <trkpt lat="59.4573302" lon="17.8051281">
        <ele>32</ele>
        <time>2013-10-27T10:47:15Z</time>
      </trkpt>
      <trkpt lat="59.4574174" lon="17.8050247">
        <ele>31.8</ele>
        <time>2013-10-27T10:47:22Z</time>
      </trkpt>
      <trkpt lat="59.4575326" lon="17.804841">
        <ele>31.4</ele>
        <time>2013-10-27T10:47:32Z</time>
      </trkpt>
      <trkpt lat="59.4576533" lon="17.8047249">
        <ele>31.2</ele>
        <time>2013-10-27T10:47:41Z</time>
      </trkpt>
      <trkpt lat="59.4578067" lon="17.8045842">
        <ele>31</ele>
        <time>2013-10-27T10:47:52Z</time>
      </trkpt>
      <trkpt lat="59.4579116" lon="17.8045605">
        <ele>31.2</ele>
        <time>2013-10-27T10:48:00Z</time>
      </trkpt>
      <trkpt lat="59.4580146" lon="17.804568">
        <ele>31.6</ele>
        <time>2013-10-27T10:48:07Z</time>
      </trkpt>
      <trkpt lat="59.4581174" lon="17.8045782">
        <ele>32.6</ele>
        <time>2013-10-27T10:48:14Z</time>
      </trkpt>
      <trkpt lat="59.4582371" lon="17.8045729">
        <ele>34</ele>
        <time>2013-10-27T10:48:22Z</time>
      </trkpt>
      <trkpt lat="59.4583138" lon="17.8046739">
        <ele>36.6</ele>
        <time>2013-10-27T10:48:29Z</time>
      </trkpt>
      <trkpt lat="59.4583949" lon="17.8047469">
        <ele>39.8</ele>
        <time>2013-10-27T10:48:36Z</time>
      </trkpt>
      <trkpt lat="59.4584797" lon="17.8047452">
        <ele>42.2</ele>
        <time>2013-10-27T10:48:43Z</time>
      </trkpt>
      <trkpt lat="59.4585711" lon="17.8046868">
        <ele>44.8</ele>
        <time>2013-10-27T10:48:51Z</time>
      </trkpt>
      <trkpt lat="59.4586616" lon="17.8046444">
        <ele>46.8</ele>
        <time>2013-10-27T10:48:58Z</time>
      </trkpt>
      <trkpt lat="59.4587746" lon="17.8045817">
        <ele>48.8</ele>
        <time>2013-10-27T10:49:06Z</time>
      </trkpt>
      <trkpt lat="59.4587789" lon="17.8045711">
        <ele>49.6</ele>
        <time>2013-10-27T10:49:09Z</time>
      </trkpt>
      <trkpt lat="59.4587853" lon="17.8045854">
        <ele>49.8</ele>
        <time>2013-10-27T10:49:10Z</time>
      </trkpt>
      <trkpt lat="59.4587997" lon="17.8046121">
        <ele>50</ele>
        <time>2013-10-27T10:49:14Z</time>
      </trkpt>
    </trkseg>
  </trk>
</gpx>